GFSGBSN_sfc_temp_000.txt.gz
Temp
61 61 61 60 60 60 61 60 59 58 58 58 58 58 58 59 59 59 58 58 58 58 58 58 59 59 68 77 78 92 78 81 89 92 88 85 82 81 75 77 78 75 75 77 78 78 77
61 60 60 60 60 60 60 59 59 58 58 58 58 58 58 58 58 59 58 58 58 58 58 58 59 57 72 71 92 95 93 93 93 91 88 86 82 83 79 76 75 77 77 77 78 78 78
61 60 60 59 59 59 59 59 58 58 58 58 58 58 58 58 58 59 59 58 58 58 58 58 59 70 80 77 94 96 94 91 93 90 84 87 87 82 80 74 79 78 71 75 76 77 75
61 61 60 59 59 59 59 58 58 58 58 58 58 57 57 57 58 58 58 58 58 58 58 58 58 72 76 92 95 93 95 91 93 93 90 89 88 83 79 80 76 72 73 67 76 76 76
61 60 60 60 59 59 58 58 58 58 58 57 57 57 57 57 58 59 59 58 58 58 58 59 68 74 75 84 86 92 92 86 89 90 90 90 87 80 78 70 69 72 63 66 69 79 75
61 60 60 60 59 59 59 59 58 57 57 57 57 57 57 58 58 60 59 59 59 61 66 78 86 79 82 78 85 88 93 89 84 84 83 82 80 74 75 68 55 60 61 65 65 73 73
60 60 60 60 59 59 59 59 58 57 57 57 57 57 58 58 59 58 64 79 78 77 83 76 78 77 80 86 90 86 89 86 85 81 72 78 70 64 67 69 69 68 66 65 69 74 70
60 60 60 60 59 59 59 59 57 57 57 57 56 57 57 58 59 61 70 79 75 77 71 81 81 80 83 85 77 82 87 78 76 70 75 72 65 70 72 72 69 68 65 63 68 72 69
59 59 59 59 59 59 59 59 57 57 56 56 56 56 57 57 59 67 80 77 83 81 71 74 79 78 78 82 75 76 80 77 73 70 70 66 67 72 70 69 64 65 62 60 60 66 72
59 58 58 59 59 58 58 58 57 57 56 56 56 56 56 57 68 82 77 81 82 79 63 68 73 77 81 80 72 82 82 75 73 67 69 68 72 68 67 66 64 57 67 63 62 60 53
59 59 58 58 58 57 56 56 57 57 56 55 55 56 56 57 78 79 77 81 81 75 46 68 73 85 81 74 75 76 84 77 68 68 68 63 66 64 64 63 66 60 66 63 64 61 59
59 59 58 58 57 56 56 56 56 56 56 55 55 56 59 75 77 77 80 79 75 56 45 64 73 70 71 73 73 77 76 79 76 69 70 68 73 69 66 68 69 68 65 65 67 60 47
59 58 58 57 57 56 56 56 56 55 55 55 55 56 69 80 73 78 77 74 58 49 67 63 65 69 68 66 68 70 68 65 61 55 58 67 67 70 68 63 69 65 58 46 42 45 45
58 58 58 58 57 57 56 56 55 55 55 54 55 54 68 77 79 77 75 66 49 61 63 69 67 67 63 65 66 67 66 63 65 62 59 55 52 64 68 62 57 59 57 44 34 38 42
57 57 58 58 57 56 56 56 55 55 55 54 54 76 77 74 76 75 70 52 54 63 66 65 66 62 63 64 63 65 62 61 62 63 53 52 55 68 66 66 63 58 52 60 45 38 39
58 57 58 58 57 56 55 55 55 55 55 54 75 78 72 75 76 72 63 55 63 67 68 67 58 62 58 61 61 62 61 63 61 64 65 59 47 62 65 67 67 61 64 47 47 33 34
58 57 57 57 56 55 55 55 55 55 55 55 72 72 73 77 74 71 57 60 64 68 69 63 62 60 60 58 60 59 59 62 64 63 65 61 54 53 60 60 57 57 54 54 55 48 37
57 56 56 56 56 56 55 55 55 54 55 60 73 63 75 76 66 67 62 65 55 66 69 66 66 63 60 60 57 58 57 60 65 64 57 60 52 43 50 63 67 62 57 57 40 41 44
56 56 55 56 56 56 55 55 55 54 54 67 72 71 78 73 54 51 65 63 66 65 64 64 61 63 64 59 52 58 59 63 65 62 56 58 50 41 49 58 61 56 59 59 55 42 39
55 55 55 55 56 56 56 55 55 54 54 66 72 53 66 72 72 65 62 61 59 65 63 65 63 64 61 58 62 55 58 63 63 62 53 56 52 45 39 46 54 48 54 56 53 41 43
54 54 54 55 55 56 56 55 55 54 54 66 72 63 65 56 61 65 65 64 60 58 64 65 62 61 59 47 51 54 59 61 63 55 61 57 44 49 51 53 52 50 50 53 51 51 43
53 53 53 54 55 55 56 55 54 54 53 71 63 64 68 65 65 64 56 61 60 61 62 60 58 62 61 55 55 52 57 56 55 61 58 56 40 41 39 49 50 46 49 51 52 53 53
53 53 53 54 54 55 57 55 54 53 56 73 73 72 68 54 60 57 59 61 61 63 62 64 62 60 49 58 62 63 62 61 60 56 52 51 40 35 35 44 40 34 43 49 53 56 55
53 53 53 54 54 54 52 52 54 53 54 70 70 70 52 51 57 59 62 63 62 63 59 63 64 51 63 70 66 61 59 59 59 59 61 46 37 35 33 33 28 49 60 57 53 56 58
53 53 53 54 54 54 51 52 55 54 54 68 72 68 57 37 58 60 61 61 63 63 61 62 64 64 66 61 46 37 43 37 41 57 59 59 39 36 32 35 41 47 53 51 48 48 58
52 53 53 53 53 52 52 53 54 53 54 63 71 70 65 41 48 63 60 62 55 54 56 59 67 68 63 49 40 33 36 41 43 49 57 50 41 40 37 31 29 44 56 61 59 40 53
51 52 52 52 52 52 52 52 52 53 54 61 68 70 66 50 61 62 58 58 63 58 54 58 59 49 60 41 35 35 37 50 40 34 35 38 37 34 35 32 39 53 59 59 37 37 49
51 51 51 52 52 52 51 51 51 51 52 58 65 69 63 55 60 64 65 60 61 60 51 57 54 54 45 37 36 39 35 42 43 47 43 40 36 34 33 32 31 60 57 39 48 53 52
50 50 50 51 51 51 51 51 51 51 52 53 60 66 67 57 60 64 65 68 67 66 59 57 53 55 52 44 40 39 35 36 35 34 51 38 44 41 44 43 55 59 56 58 57 52 52

GFSGBSN_sfc_temp_003.txt.gz
Temp
61 60 60 60 60 60 61 60 59 58 58 58 58 58 58 59 59 59 58 58 58 58 58 58 58 58 63 66 71 83 77 78 80 81 78 77 73 70 65 66 68 64 66 69 71 71 67
60 60 60 60 60 60 60 59 58 58 58 58 58 58 58 58 58 58 58 58 57 57 58 58 58 56 64 61 84 85 87 86 84 81 78 77 73 75 69 67 63 67 69 67 69 69 70
60 60 60 59 59 59 59 58 58 58 58 58 58 58 58 58 58 58 58 58 57 57 58 58 58 66 62 69 80 82 87 81 82 82 76 78 78 71 70 65 70 70 61 65 67 67 64
60 60 60 59 59 58 58 58 58 58 58 58 58 58 57 57 58 58 58 58 57 58 57 57 57 62 65 84 79 85 84 81 85 85 81 78 79 72 68 70 68 63 59 52 65 67 67
60 60 60 59 59 58 58 58 57 58 58 57 57 57 57 57 58 58 58 58 58 58 58 57 57 61 65 80 79 83 81 80 81 83 80 86 75 68 67 58 53 58 48 55 61 67 63
60 60 60 59 59 59 59 58 57 57 57 57 57 57 58 58 58 60 59 58 59 60 60 68 74 63 75 73 78 81 81 82 77 75 74 71 66 60 57 52 42 49 51 57 52 60 62
60 60 60 59 59 59 59 59 57 56 56 57 57 57 58 58 59 59 62 66 65 62 65 65 68 71 75 80 81 77 80 77 75 70 60 65 56 49 53 57 60 58 55 52 56 64 59
59 59 59 59 59 59 59 59 57 56 56 56 56 57 57 58 58 60 59 64 64 64 58 74 75 75 79 77 71 74 79 69 67 60 65 59 52 61 65 65 61 58 54 51 57 63 60
59 59 59 59 59 59 59 58 57 56 56 56 56 56 57 56 57 61 65 64 71 68 58 69 74 73 73 75 69 69 72 68 63 62 60 54 59 68 65 60 58 54 52 51 51 57 60
58 58 58 58 58 58 57 58 57 57 56 56 56 56 56 56 63 67 63 69 70 65 50 62 67 71 76 74 66 75 73 67 65 59 60 59 66 63 60 59 58 50 59 57 55 49 43
58 58 58 58 57 56 56 56 56 56 56 56 55 56 56 57 62 64 67 69 68 64 33 64 68 76 75 68 69 69 73 68 60 61 59 56 57 56 57 57 60 54 60 56 55 50 45
58 58 58 57 57 56 56 56 56 56 55 55 55 56 55 65 62 63 67 66 63 44 34 60 69 66 66 68 67 71 69 70 68 62 62 60 64 60 57 62 61 62 56 55 53 49 35
58 58 58 57 57 56 56 56 55 55 55 55 54 55 59 69 60 66 64 61 45 36 63 59 61 66 63 61 64 64 62 56 50 44 45 58 58 60 63 55 60 56 47 31 31 31 31
57 57 57 57 57 56 56 56 55 55 55 54 54 54 64 67 65 65 62 51 38 56 58 65 63 63 58 60 60 61 58 52 56 54 47 44 40 56 62 55 51 51 48 31 27 25 31
57 57 57 57 57 56 56 56 55 55 54 54 54 62 62 63 66 63 57 40 40 55 62 60 62 56 55 59 57 58 53 52 55 55 45 41 47 59 62 60 57 51 41 51 38 28 27
57 57 57 57 56 56 55 55 55 55 54 54 59 62 59 65 65 61 49 47 55 63 64 62 53 56 51 55 54 55 53 57 56 58 57 52 41 55 59 60 59 54 56 38 34 26 26
56 56 57 57 56 55 55 55 55 55 55 54 60 58 62 67 63 56 41 47 59 65 65 58 55 54 55 52 53 52 52 55 58 57 57 53 45 44 52 52 48 48 43 46 49 38 30
56 55 56 55 56 56 55 55 55 54 55 59 59 53 63 64 52 49 46 58 56 62 64 61 59 57 54 54 51 52 51 54 59 58 50 52 44 32 45 56 59 55 51 52 35 34 33
55 55 55 55 55 56 55 55 55 54 54 51 54 55 63 63 39 38 56 59 59 60 60 60 56 58 58 52 43 52 53 58 59 55 49 51 38 30 38 47 51 49 52 50 44 35 34
54 54 55 55 55 55 56 55 55 54 54 53 55 41 53 56 56 54 53 55 54 60 59 61 59 59 55 52 54 48 52 57 58 57 53 52 45 37 31 38 46 42 47 49 44 26 35
54 54 54 54 55 55 55 55 54 54 54 55 55 49 54 41 47 53 54 58 55 52 59 60 56 56 53 41 45 46 53 55 56 51 54 51 36 42 45 47 49 47 46 46 43 43 36
53 53 53 53 54 54 55 54 53 53 53 58 51 48 53 51 56 54 49 53 55 57 57 55 53 55 54 45 49 43 49 48 47 52 48 50 35 37 37 45 46 40 42 45 45 44 45
53 53 53 53 53 54 54 51 52 53 54 56 57 57 52 45 47 41 43 54 56 57 55 59 56 52 43 51 53 52 52 52 51 48 42 42 34 31 36 40 37 29 39 42 45 48 46
53 53 53 54 54 54 52 51 53 53 53 55 56 55 41 38 38 46 56 58 56 55 52 58 57 45 54 60 55 49 48 49 47 49 50 36 31 30 32 30 27 42 53 52 47 48 49
52 52 53 54 54 54 51 51 54 53 53 54 58 54 42 34 42 48 53 53 55 54 51 54 57 58 57 49 36 34 33 35 40 49 45 46 33 32 32 30 35 41 47 42 41 43 47
52 52 53 52 53 53 53 52 53 53 53 55 58 58 47 37 40 56 51 52 40 40 42 50 58 57 55 35 35 31 23 33 35 43 48 42 37 33 28 25 26 37 48 53 52 36 46
52 52 52 52 52 52 52 52 52 52 53 54 56 60 54 42 49 54 46 45 52 45 41 44 48 44 50 35 33 34 30 40 30 28 30 30 27 26 20 28 33 45 51 51 31 37 45
51 51 51 51 51 51 51 51 52 52 52 54 55 60 54 44 49 56 57 51 51 46 37 46 44 41 36 33 34 32 34 32 31 39 33 31 27 29 29 31 26 51 48 36 42 44 49
50 51 51 51 51 51 51 51 51 51 52 52 52 59 58 50 50 57 58 58 58 56 51 47 45 46 42 34 33 34 33 34 33 32 44 34 37 31 35 33 45 51 49 51 53 50 46

GFSGBSN_sfc_temp_006.txt.gz
Temp
60 60 60 60 60 60 61 60 59 58 57 57 57 58 58 59 59 58 58 57 57 58 58 58 58 59 63 65 67 82 74 77 81 80 75 73 69 65 60 61 63 59 61 64 67 66 63
60 60 60 59 59 60 60 59 58 57 57 57 57 57 57 58 58 58 58 57 57 57 58 58 58 57 65 59 80 83 82 82 80 77 74 74 68 70 65 64 61 63 64 63 65 64 64
60 60 60 59 59 59 59 58 58 58 57 57 57 57 57 58 58 58 58 57 57 57 57 58 59 66 63 67 76 75 80 78 79 76 73 74 72 70 66 63 67 65 59 62 64 62 61
60 60 60 59 59 58 58 58 57 58 57 57 58 57 57 57 57 57 57 57 57 57 57 58 58 62 63 81 76 81 79 77 81 81 76 77 75 68 64 66 65 59 56 50 61 63 64
60 60 60 59 59 58 58 58 57 57 57 57 57 57 57 57 57 57 58 58 57 58 57 57 60 61 64 79 77 79 78 77 78 78 76 81 72 64 64 54 50 52 45 49 57 63 60
60 60 59 59 59 59 58 58 57 56 57 57 57 57 57 57 57 56 57 58 58 57 58 64 70 60 71 69 75 78 77 78 72 71 71 67 61 55 54 50 41 45 47 51 48 57 56
60 60 59 59 59 59 59 58 57 56 56 57 57 57 57 57 57 57 63 65 62 61 63 62 64 66 70 77 77 74 76 74 70 65 57 61 54 48 51 53 56 53 49 47 52 57 55
59 59 59 59 59 59 59 59 57 56 56 56 56 57 57 57 57 58 62 62 62 63 57 70 70 70 74 73 66 71 73 65 63 56 60 56 49 57 62 60 56 54 48 47 53 58 54
58 58 59 59 59 58 59 58 57 56 56 56 56 56 56 56 56 62 63 61 68 65 56 65 70 68 71 72 65 66 68 64 59 58 55 51 56 63 60 56 54 50 48 48 49 52 53
58 58 58 58 57 57 57 57 57 56 56 56 56 55 55 56 63 62 61 66 66 63 47 58 64 68 72 70 63 72 70 65 61 56 56 55 61 59 56 54 53 47 55 54 51 46 40
58 58 57 57 57 56 56 56 56 56 56 56 55 55 55 58 61 61 64 65 63 62 31 61 64 73 71 65 65 67 71 65 56 57 56 54 54 54 53 54 56 52 56 52 51 45 42
57 57 57 57 56 56 56 56 56 56 55 55 55 55 56 62 59 60 63 61 62 43 34 56 65 63 62 64 65 66 65 67 63 58 57 56 60 57 54 58 57 58 53 50 48 45 34
57 57 57 56 56 56 56 56 55 55 55 55 54 55 62 65 60 61 61 59 44 35 60 55 57 61 59 57 61 60 56 53 48 43 43 53 54 57 59 52 56 52 43 30 30 29 30
56 56 57 56 56 56 56 55 55 55 54 54 54 55 61 63 61 61 59 49 38 51 54 61 59 59 54 56 57 56 54 48 54 50 43 41 39 53 59 52 48 48 45 30 26 24 30
56 56 57 56 56 56 55 55 55 55 54 54 55 59 58 61 62 60 54 37 38 50 57 56 58 52 52 57 55 54 49 49 52 52 43 38 43 56 58 57 54 49 40 48 36 25 26
56 56 56 56 55 55 55 55 55 55 55 54 58 57 57 61 61 58 44 44 51 58 59 58 49 52 47 50 51 51 49 53 52 54 53 48 39 51 55 56 55 51 53 38 33 23 26
56 55 55 55 54 54 55 55 54 54 55 55 59 55 60 62 60 52 39 42 55 61 61 56 52 50 50 48 50 48 48 52 55 54 54 48 43 43 49 48 45 45 40 44 44 34 27
55 55 54 54 54 54 55 55 54 53 54 56 55 48 61 61 51 44 45 55 55 59 61 58 56 53 50 50 48 48 48 51 56 54 47 49 40 32 43 51 54 49 45 44 29 33 31
55 54 54 54 54 54 54 54 54 53 53 52 52 52 60 61 38 35 52 56 56 57 56 56 53 55 54 49 42 49 50 56 56 53 48 48 36 29 37 45 48 45 48 46 41 32 30
54 54 54 54 54 54 54 54 54 53 53 53 51 41 49 52 50 50 50 51 52 57 56 58 56 56 52 48 51 45 49 54 54 54 52 50 42 36 30 37 41 39 45 47 39 24 33
54 54 54 53 53 54 54 53 52 53 53 55 50 46 50 39 45 49 51 53 51 50 56 57 53 52 49 40 43 42 48 49 53 51 50 47 36 39 41 44 44 44 43 44 40 40 31
53 52 52 53 53 53 53 50 51 53 53 54 49 48 49 46 52 51 44 50 51 54 54 51 49 50 50 43 45 40 46 44 44 48 44 46 34 35 37 42 42 38 43 42 41 42 40
53 52 52 53 53 53 51 50 52 52 54 52 52 52 50 42 43 39 40 50 52 54 53 56 53 49 41 48 51 51 51 51 50 45 39 39 32 28 33 35 34 32 37 39 42 44 41
52 52 53 53 53 53 50 50 52 52 52 53 52 49 41 36 34 42 52 54 52 52 49 54 53 45 53 56 52 49 46 45 44 45 47 33 30 29 27 31 26 41 47 47 43 44 45
52 52 52 53 53 53 50 51 52 52 52 54 53 51 41 34 38 44 49 50 50 50 48 51 53 55 53 45 36 32 32 34 37 46 43 43 34 30 27 29 34 40 45 40 37 39 45
52 52 52 52 52 52 52 52 53 52 52 54 54 52 46 37 39 52 48 48 39 37 41 47 54 54 47 35 30 22 22 31 34 40 44 39 33 29 29 27 26 36 45 49 47 32 46
51 51 52 52 51 52 52 52 53 52 53 54 53 56 50 39 47 51 44 43 49 41 39 40 46 42 45 35 29 29 27 37 29 25 27 27 31 25 19 25 28 42 47 49 28 34 42
51 51 51 51 51 51 51 51 51 52 52 54 54 56 52 43 47 53 55 50 48 44 36 44 43 39 35 33 31 29 32 31 29 37 33 32 27 29 28 26 27 47 47 37 41 42 47
50 50 50 50 50 50 51 51 51 52 52 53 51 56 55 48 49 54 55 57 56 54 48 44 44 43 39 34 34 29 32 33 28 32 40 34 36 31 33 32 43 46 48 47 49 48 46

GFSGBSN_sfc_temp_009.txt.gz
Temp
60 60 60 60 60 60 60 60 59 58 57 57 57 57 58 58 59 58 57 57 57 57 58 58 59 59 60 63 65 79 72 75 77 75 72 70 66 61 58 59 60 58 59 61 62 62 59
60 59 59 59 59 60 60 59 58 57 57 57 57 57 57 58 58 58 57 57 57 57 57 58 59 59 63 58 77 78 78 79 77 74 72 72 66 65 62 60 58 61 60 61 61 61 60
60 59 59 59 59 59 59 58 57 57 57 57 57 57 57 57 58 58 58 57 57 57 57 58 59 65 63 65 74 74 78 74 73 73 71 71 68 68 62 60 65 62 57 59 59 59 59
60 60 60 59 59 58 58 57 57 57 57 57 58 57 57 57 57 57 57 57 57 57 57 58 59 63 61 77 73 78 77 75 77 75 72 73 72 66 62 63 61 56 53 48 59 57 59
59 59 59 59 58 58 58 57 57 57 57 57 57 57 57 57 57 57 57 56 56 58 58 58 63 61 61 77 74 75 74 73 74 74 73 77 71 61 60 51 48 49 42 45 53 59 57
60 60 59 59 59 58 58 57 56 56 57 57 57 57 57 57 57 57 56 56 57 57 61 66 68 60 70 67 72 75 74 73 69 69 68 66 58 54 51 49 39 42 43 48 46 55 54
59 59 59 59 59 59 59 58 57 56 56 57 57 57 57 57 57 56 56 57 61 62 64 59 61 63 67 74 74 72 72 71 68 64 55 58 52 46 47 50 53 50 46 43 48 54 52
59 59 59 59 59 59 59 58 57 56 56 56 57 57 57 57 57 58 62 60 60 61 55 66 66 66 70 69 65 69 72 64 62 54 56 53 48 54 57 56 53 50 46 45 50 54 50
58 58 58 58 58 58 58 58 57 56 56 56 56 56 56 56 57 62 61 61 64 63 55 63 66 65 67 69 62 64 66 61 57 54 53 49 53 60 56 52 51 48 45 45 47 50 49
58 58 57 57 58 58 57 57 57 56 56 55 55 55 55 58 63 59 59 62 63 62 45 55 62 66 69 66 62 68 68 62 59 52 52 52 57 55 53 51 50 44 52 50 48 44 39
58 58 57 57 57 56 56 56 56 56 56 55 55 55 55 62 61 60 62 62 61 61 29 58 61 70 66 62 61 65 66 63 54 54 54 51 52 52 51 52 52 50 53 48 47 43 39
58 57 57 57 56 56 55 55 55 55 55 55 55 55 56 62 58 57 60 58 60 41 32 54 61 59 60 62 61 63 61 64 59 55 55 52 57 55 52 55 54 56 49 47 45 42 33
57 57 57 56 56 55 55 55 55 55 55 54 54 55 61 62 59 59 59 58 43 33 56 52 54 58 56 55 57 56 53 50 45 42 41 50 51 55 56 51 54 50 41 29 29 28 29
56 56 56 56 56 55 55 55 55 55 54 54 54 58 59 61 58 59 57 48 37 48 50 58 56 56 52 55 53 53 50 45 50 47 40 39 37 50 56 50 46 45 42 29 25 23 28
56 56 56 56 55 55 55 55 55 55 54 54 57 57 56 59 59 58 53 35 38 47 54 53 54 50 49 53 52 50 46 46 48 49 41 36 41 52 53 53 51 46 38 45 32 24 25
56 56 56 55 54 54 54 54 54 55 54 55 57 55 56 59 59 56 43 42 49 55 56 54 47 49 44 48 48 47 46 50 50 51 50 45 37 48 52 53 53 50 50 36 32 21 25
55 55 55 54 54 54 54 54 54 54 54 54 57 53 59 58 59 50 37 40 52 58 57 53 49 48 48 46 47 45 45 50 52 51 52 46 41 42 47 46 42 43 39 40 41 33 27
55 55 54 54 54 54 54 54 54 53 53 56 53 48 59 58 50 41 43 52 53 55 58 55 53 51 48 48 45 45 45 49 53 51 46 46 38 31 40 49 50 47 43 41 32 31 29
54 54 54 54 53 54 54 54 53 53 53 54 51 50 58 59 38 34 49 53 54 54 53 53 51 52 52 46 41 46 47 53 54 51 45 46 35 28 37 43 46 42 43 42 36 31 30
53 54 53 53 53 54 54 52 51 52 53 54 50 41 48 49 47 49 48 48 50 54 54 55 52 53 50 46 48 43 46 51 52 52 50 49 39 35 29 36 40 38 41 42 39 28 30
53 53 53 53 53 53 52 50 51 52 52 55 48 44 48 38 43 47 49 50 49 48 54 54 50 49 47 38 40 39 45 48 50 50 48 45 36 37 39 41 41 42 41 42 38 38 33
53 53 52 52 53 52 50 50 52 53 53 52 48 46 46 45 49 48 43 47 49 50 51 48 47 48 48 42 44 39 44 42 43 46 42 43 32 34 34 39 40 37 40 40 40 39 37
52 52 51 52 53 51 49 49 51 52 54 51 49 49 48 39 40 38 39 48 50 52 51 53 51 46 39 47 49 49 50 49 47 43 39 38 31 28 27 34 32 29 34 37 39 41 40
52 52 52 52 53 50 49 49 51 52 53 52 50 48 41 35 32 41 48 50 49 49 48 51 51 44 50 53 50 48 45 43 41 42 45 32 30 28 23 32 23 40 44 45 41 43 43
52 52 52 53 53 50 49 50 51 52 52 53 51 49 41 33 36 42 48 49 48 48 46 49 50 52 50 45 35 32 31 34 34 41 39 39 33 29 28 27 32 40 43 38 36 38 44
52 52 52 52 52 52 52 52 52 52 52 54 52 48 45 37 39 50 47 46 37 36 38 44 51 50 45 31 30 24 24 30 33 37 40 36 31 28 29 26 24 35 43 46 44 31 43
51 52 52 52 52 52 52 52 52 52 52 53 53 52 49 38 45 49 42 42 46 39 38 37 43 41 43 33 29 23 26 35 28 25 27 27 30 26 26 25 29 40 45 45 30 34 42
51 51 51 51 51 51 52 52 52 52 52 53 51 53 50 41 46 51 53 48 46 42 36 43 41 37 36 33 27 28 21 30 29 34 31 31 28 24 27 26 23 45 45 37 42 42 44
50 51 50 50 50 50 51 51 51 52 53 54 50 54 53 48 49 52 54 54 55 53 46 42 43 41 38 34 33 26 29 31 32 32 38 33 36 31 33 33 42 45 46 46 46 43 42

GFSGBSN_sfc_temp_012.txt.gz
Temp
60 60 60 60 60 60 60 60 59 58 57 57 57 57 58 58 58 58 57 57 57 58 58 59 59 59 55 61 63 75 71 74 74 75 70 67 65 59 56 57 58 57 56 60 60 61 57
60 59 59 59 59 60 60 59 58 57 57 57 57 57 57 57 58 58 57 57 57 57 58 58 59 59 58 58 73 74 75 76 72 70 69 69 64 62 60 57 57 58 57 56 57 57 57
60 59 59 59 59 59 59 57 57 57 57 57 57 57 57 57 57 57 57 57 57 57 58 58 59 59 63 62 70 72 76 71 69 70 68 67 66 65 60 57 61 59 55 57 59 56 55
59 59 59 59 58 58 57 57 57 57 57 57 57 57 57 57 57 57 57 57 57 57 57 58 59 60 60 74 70 75 74 72 73 72 70 68 69 64 61 59 58 54 51 46 57 56 56
59 59 59 59 58 58 57 57 57 57 57 57 57 57 57 57 57 57 56 56 57 57 58 58 59 62 59 76 72 72 72 70 71 72 71 74 67 57 57 50 47 47 41 42 51 54 53
60 59 59 59 59 58 58 57 56 56 57 57 57 57 57 57 56 56 56 56 57 57 59 64 67 61 68 65 69 72 70 70 68 66 66 63 56 52 49 48 39 40 41 45 42 52 52
59 59 59 59 58 58 59 58 56 56 56 57 57 57 57 57 56 55 54 54 60 60 64 58 59 60 64 71 70 70 67 68 66 62 53 55 51 45 46 47 49 47 44 41 44 50 49
59 59 59 59 59 59 59 58 56 56 56 56 57 57 57 57 57 56 57 59 57 60 55 63 63 64 67 66 63 67 69 62 59 51 53 52 46 51 54 53 50 48 43 43 48 50 48
58 58 58 58 59 59 58 58 56 56 56 56 56 56 56 56 58 60 59 57 62 61 54 61 64 63 65 68 60 63 65 59 56 53 50 47 50 56 54 50 49 46 43 43 45 48 46
58 57 57 57 58 57 57 57 57 56 56 55 56 55 56 57 62 57 57 60 60 60 44 54 61 64 66 64 59 64 64 60 57 50 50 50 54 53 51 49 47 42 49 47 46 41 38
57 57 57 57 57 56 55 55 56 56 55 56 55 55 57 62 60 58 59 59 59 60 29 55 60 68 65 61 59 63 63 61 51 51 51 47 49 50 49 48 49 48 49 45 44 40 38
57 57 57 56 56 55 55 55 55 55 55 55 55 55 57 61 57 55 58 57 59 39 32 51 58 58 58 59 58 60 58 61 57 52 52 48 54 52 50 52 50 53 46 45 42 39 32
57 57 56 56 56 55 55 55 55 54 54 55 55 57 60 60 57 57 57 57 42 32 53 49 52 56 54 52 54 54 51 47 44 42 39 47 48 52 53 49 52 48 39 29 29 27 28
56 56 56 56 55 55 55 55 54 54 54 55 56 57 57 58 56 57 56 48 36 45 47 54 53 53 49 51 50 50 48 44 48 45 38 37 36 48 54 47 43 43 40 28 25 21 27
56 56 56 55 55 55 55 55 54 54 53 55 57 55 55 57 57 57 52 34 37 45 51 50 52 47 46 50 50 48 44 44 46 46 39 35 39 50 51 50 48 43 36 42 31 22 23
56 55 55 54 54 54 54 54 54 54 54 55 56 53 54 57 57 55 42 40 46 52 53 52 44 46 42 46 45 45 43 48 46 49 48 43 36 46 50 50 51 47 48 35 31 21 23
55 55 55 54 54 54 54 54 54 54 53 55 55 52 57 56 57 49 36 38 50 54 55 51 47 46 45 44 45 42 43 48 50 49 50 44 40 41 45 43 40 42 37 38 38 32 22
55 54 54 53 53 54 54 54 53 53 53 56 51 47 57 56 49 39 42 49 51 52 56 53 51 49 46 45 43 43 43 47 52 49 44 44 37 31 39 45 46 43 40 39 27 29 28
54 54 54 53 53 53 53 52 50 51 53 54 50 49 56 57 38 33 47 50 52 52 51 51 49 50 49 44 40 45 46 49 51 48 43 44 35 28 36 41 44 41 41 40 34 31 32
53 53 53 53 53 53 52 50 51 52 53 52 49 42 47 48 45 47 46 46 48 53 52 51 49 51 48 44 46 41 43 49 50 49 48 48 38 35 28 35 38 35 39 40 37 31 32
53 53 53 52 52 52 50 50 52 53 52 54 47 43 46 38 41 45 47 48 47 46 52 51 48 48 45 38 39 39 44 46 48 49 46 44 35 36 38 40 39 39 38 39 35 36 33
52 53 52 52 51 51 49 50 50 52 53 51 47 46 45 42 47 46 42 45 47 48 49 46 46 46 46 41 43 39 43 40 42 44 40 41 32 32 32 35 35 32 37 38 37 37 36
52 52 51 51 51 50 49 49 50 52 54 50 46 47 48 38 39 38 38 46 48 50 49 51 49 45 39 46 47 46 48 47 44 40 39 37 30 29 26 31 31 27 34 35 37 39 38
52 52 51 51 52 49 49 50 50 52 53 51 48 47 41 34 32 39 46 48 47 47 47 49 49 42 48 51 49 46 44 42 40 40 43 32 28 28 23 32 19 39 42 44 39 41 42
52 52 52 52 52 50 49 50 51 52 53 52 48 48 40 33 36 40 46 47 46 47 45 47 48 47 49 44 35 31 31 32 32 38 37 37 32 29 29 29 31 40 41 37 35 36 41
52 52 52 52 52 52 52 51 51 52 52 53 50 47 45 37 38 48 46 44 37 35 37 41 47 47 45 31 30 23 24 30 32 35 38 35 30 27 28 26 23 35 41 43 42 30 41
51 52 52 52 51 51 52 52 52 52 52 53 51 50 48 38 43 47 41 41 44 38 37 36 42 39 41 31 26 23 26 33 28 25 24 27 30 26 27 27 30 39 43 44 30 34 41
51 51 51 51 51 51 51 52 52 52 52 53 50 52 50 40 44 49 50 46 44 41 36 41 40 36 35 33 28 29 20 29 29 34 30 31 26 22 26 26 24 42 42 37 43 41 43
51 50 50 50 50 50 51 51 51 52 52 53 50 52 51 47 47 48 50 51 52 51 45 39 42 39 37 33 32 26 25 29 30 28 36 30 36 33 36 31 41 46 46 46 45 42 41

GFSGBSN_sfc_temp_015.txt.gz
Temp
60 60 60 60 60 60 60 60 59 58 57 57 57 58 58 59 59 58 57 57 57 58 58 59 59 59 61 68 71 81 70 75 79 78 74 73 70 68 64 67 67 66 66 66 68 66 68
59 59 59 59 59 60 60 59 58 57 57 57 57 57 57 57 58 58 57 57 57 57 58 58 59 59 69 63 79 77 76 78 79 78 75 75 72 71 67 66 66 66 66 65 67 67 67
60 59 59 59 59 59 58 57 57 57 57 57 57 57 57 57 57 57 57 57 57 57 58 59 59 61 69 69 79 76 78 77 78 79 75 76 75 73 69 66 66 65 64 64 64 65 66
59 59 59 59 58 58 57 57 57 57 57 57 58 57 57 57 57 57 57 57 57 57 58 58 59 62 66 78 77 78 78 79 78 78 77 76 75 69 68 68 64 61 61 58 64 64 65
59 59 59 59 58 58 57 57 57 57 57 57 57 57 57 57 56 56 56 56 57 58 58 58 64 69 66 78 75 76 77 75 75 76 74 75 71 64 65 60 58 58 54 54 59 61 62
60 59 59 59 58 58 58 57 56 56 57 57 57 57 57 57 57 56 55 57 58 58 60 63 68 66 71 69 72 74 76 74 71 72 72 68 64 61 60 60 50 52 53 53 54 60 61
59 59 59 59 58 59 59 58 56 56 56 57 57 58 58 57 56 55 58 62 64 64 66 63 63 63 67 74 74 72 73 73 71 66 60 61 59 54 56 57 57 56 54 52 55 58 58
59 59 59 59 59 59 59 58 56 56 56 57 57 57 57 57 57 55 59 62 62 65 60 65 65 67 69 71 66 70 73 67 64 58 61 59 54 59 59 58 57 56 52 52 55 57 56
58 58 58 58 59 59 58 57 56 56 56 56 56 57 56 56 56 59 61 62 64 66 59 63 66 66 68 71 63 64 68 65 61 57 55 54 57 59 58 55 54 53 53 51 51 54 55
57 57 57 57 58 57 57 57 56 56 56 56 56 55 56 56 61 61 61 64 63 64 48 55 63 68 69 68 63 69 67 66 61 56 57 57 59 56 55 54 54 49 55 53 51 50 49
57 57 57 57 57 56 55 55 55 55 56 56 55 56 56 62 61 61 63 61 63 61 34 58 62 73 67 64 63 66 67 65 56 55 58 54 55 54 54 54 56 53 54 51 51 49 49
57 57 57 56 56 55 55 55 55 55 55 56 56 56 58 62 59 60 60 61 61 43 35 54 62 60 61 60 59 62 60 64 62 56 57 54 60 58 57 57 56 56 52 50 49 48 42
56 56 56 56 55 55 55 55 54 54 55 55 56 57 60 60 60 59 59 59 45 36 55 52 55 58 55 54 55 56 53 51 49 48 44 52 54 57 57 55 57 54 48 42 40 39 40
56 56 55 55 55 55 55 55 54 54 54 55 55 57 57 58 58 59 59 51 39 46 50 56 56 55 52 54 54 52 52 48 52 50 45 43 44 53 56 54 51 50 48 39 33 34 38
56 55 55 55 55 55 55 55 54 54 53 55 57 57 57 58 58 58 55 39 41 47 54 54 55 51 51 54 52 51 48 48 50 51 45 42 45 54 55 55 55 50 44 48 37 28 34
56 55 55 54 54 54 54 54 54 54 53 54 57 55 57 57 58 56 45 43 50 54 56 55 48 50 47 49 49 49 48 53 51 52 54 48 42 51 54 56 55 53 52 43 41 32 30
55 55 54 54 53 53 54 54 52 52 53 54 55 54 59 57 58 51 41 43 52 55 56 54 51 49 49 48 49 47 48 52 54 53 53 50 45 47 50 48 46 48 46 44 44 39 33
54 54 54 53 52 53 54 51 51 51 53 56 52 50 58 58 50 43 45 52 52 54 57 55 54 52 50 49 47 47 47 51 53 55 49 49 43 39 46 50 52 50 46 45 38 35 37
53 54 54 52 51 53 51 51 51 52 53 55 52 52 57 58 41 37 50 52 53 54 52 53 51 52 52 47 44 48 49 52 53 54 50 50 41 36 42 47 50 47 47 43 41 38 36
53 53 53 53 52 52 50 51 51 52 53 54 51 44 49 49 48 48 48 48 49 54 52 52 52 53 50 46 48 46 48 52 52 52 48 50 42 40 37 42 45 41 43 44 43 35 37
53 53 52 52 52 50 50 50 50 52 52 55 48 45 48 41 45 48 49 50 49 48 53 53 51 51 48 42 44 44 48 50 51 50 50 49 40 41 42 44 42 42 42 42 40 42 36
53 53 52 51 51 50 50 50 50 52 52 52 49 47 46 44 48 49 43 48 48 50 51 50 48 50 50 46 47 44 48 47 47 50 47 45 39 38 35 39 39 36 41 41 41 42 41
52 53 51 51 51 49 50 50 50 52 54 52 48 49 50 39 41 42 42 49 50 51 50 52 51 48 43 50 53 53 51 48 50 48 43 42 37 33 32 35 35 32 40 41 43 45 44
52 52 51 50 51 50 49 50 51 52 53 53 49 49 43 37 37 42 48 50 49 50 48 51 52 45 52 54 52 49 46 45 46 43 46 34 34 32 32 32 29 44 48 48 44 46 46
51 52 52 52 52 50 50 51 51 52 52 52 49 50 43 33 38 42 48 47 48 48 47 50 50 50 52 48 39 35 36 35 36 39 40 41 34 31 30 32 36 43 46 45 42 43 49
51 51 52 52 52 52 51 51 51 52 52 53 50 48 47 37 41 49 47 47 41 41 42 44 49 49 47 36 35 32 32 35 37 38 40 37 35 35 31 28 27 40 47 49 48 38 48
51 51 51 52 51 51 52 51 51 52 53 54 52 51 50 40 46 49 45 45 46 43 41 41 45 43 45 34 32 33 35 36 35 29 29 30 32 31 32 29 34 44 46 48 34 38 45
51 51 51 51 51 51 51 51 51 51 52 54 53 52 51 41 47 51 52 47 46 45 40 43 43 40 37 34 33 33 32 35 35 38 34 36 33 30 30 27 27 47 46 40 46 47 48
50 50 50 50 50 50 51 51 51 51 50 53 52 52 51 48 49 51 53 55 55 53 47 42 45 42 41 35 33 32 32 30 33 34 40 35 39 37 37 37 46 48 49 51 49 44 45

GFSGBSN_sfc_temp_018.txt.gz
Temp
61 60 60 60 60 60 60 60 59 58 58 58 58 58 59 59 59 59 58 57 57 58 59 59 59 60 70 79 79 92 72 81 91 91 88 85 83 81 76 78 79 75 76 77 77 77 77
60 60 60 59 59 60 60 59 58 58 57 57 57 57 57 58 58 58 57 57 57 57 58 59 60 58 79 72 89 92 90 91 92 91 88 87 82 84 78 76 76 75 76 75 76 76 75
60 60 59 59 59 59 59 58 57 58 58 58 58 57 57 57 58 58 58 57 57 57 58 59 60 71 82 77 91 93 89 88 89 88 85 86 85 82 81 75 77 76 72 75 74 75 74
59 60 60 59 59 58 58 57 57 58 58 58 58 57 57 57 57 57 57 57 57 58 58 59 59 75 76 88 93 89 91 88 89 89 87 86 88 81 78 78 75 73 74 68 72 74 74
59 60 60 59 58 58 58 57 57 57 58 58 58 58 57 57 57 57 57 57 57 58 59 60 75 81 74 84 84 88 87 84 85 86 85 84 84 78 77 74 71 72 66 64 67 72 72
60 60 59 59 59 58 58 57 57 57 57 58 58 58 58 57 57 56 56 57 58 61 68 74 81 78 80 76 83 83 87 84 83 82 82 81 82 76 77 74 63 62 63 63 63 69 71
60 59 59 59 59 59 59 58 57 56 57 58 58 59 59 58 56 56 61 76 77 76 80 74 74 74 77 83 84 83 83 83 83 80 73 74 74 66 67 68 68 66 63 62 67 68 66
59 59 59 59 59 59 59 58 56 56 57 57 57 58 58 57 56 56 71 78 73 77 70 76 76 77 79 81 77 81 86 78 76 70 72 72 63 67 69 68 65 64 62 61 65 66 64
58 58 58 58 59 59 58 57 56 56 57 57 57 58 58 57 56 65 76 72 75 77 73 72 75 76 77 81 72 74 79 75 73 68 69 66 65 66 66 65 63 63 60 59 59 65 65
58 57 57 58 58 57 57 57 56 56 56 57 57 57 57 56 65 74 73 74 76 74 65 64 70 76 78 77 70 78 78 74 70 65 68 65 67 64 64 61 63 59 62 61 59 60 59
57 57 57 57 57 56 56 56 56 56 56 56 56 58 56 59 74 78 72 75 75 74 48 65 70 83 78 72 71 73 77 76 66 64 66 60 63 63 61 60 63 59 62 60 59 59 59
57 57 57 56 56 56 56 55 55 55 55 56 56 58 58 71 75 72 74 74 74 59 44 61 70 68 69 70 69 73 72 76 71 67 69 64 68 66 64 64 63 64 60 59 60 60 51
57 56 56 56 56 56 56 55 54 54 55 56 56 57 68 75 73 72 73 75 60 51 61 59 62 67 65 62 64 66 64 61 61 57 56 62 62 66 66 63 65 65 59 51 46 47 48
56 56 56 56 55 55 55 55 54 54 54 56 56 59 60 71 74 71 75 67 50 55 58 64 64 65 60 62 61 62 62 60 63 61 59 55 51 61 64 60 57 58 57 48 38 43 49
56 56 55 55 55 55 55 54 54 54 54 55 57 72 73 69 70 72 73 55 54 59 63 63 64 60 58 61 61 61 58 57 59 61 55 53 52 62 61 63 61 57 53 56 45 36 42
56 56 55 54 54 54 54 53 51 52 54 55 75 74 71 68 69 73 65 51 59 62 64 65 57 59 56 58 58 58 57 59 58 61 63 55 50 58 61 63 63 60 60 50 52 36 37
56 56 55 53 52 53 53 51 51 52 53 55 72 70 69 69 70 73 58 57 60 63 65 63 59 57 58 56 58 56 54 58 61 59 63 59 54 54 58 56 55 57 55 53 54 48 40
55 55 54 51 52 53 51 51 51 52 53 63 68 63 69 69 66 63 60 62 56 63 65 63 63 61 59 57 56 55 54 57 60 61 56 57 54 49 52 57 60 59 54 54 46 40 45
54 54 54 52 52 52 51 51 51 52 54 73 70 68 71 69 55 53 59 59 62 62 61 62 59 61 61 56 52 56 56 59 61 61 57 58 51 46 48 54 57 54 55 53 50 47 42
54 54 54 52 53 51 51 51 51 52 54 71 70 57 66 69 65 63 59 58 57 62 60 62 60 63 59 56 58 54 55 57 59 59 48 55 53 49 45 50 54 49 53 54 51 41 44
54 54 53 52 52 51 51 51 51 52 52 70 68 60 60 56 58 63 63 61 58 56 61 63 60 60 58 51 54 53 56 57 58 52 57 58 47 51 53 54 54 51 50 52 49 49 42
53 53 52 51 51 50 50 50 51 52 53 67 64 61 62 58 60 62 53 59 59 57 61 58 59 59 61 55 57 52 57 56 55 57 56 55 47 45 43 50 51 46 52 52 50 51 52
53 53 52 51 51 50 51 50 52 52 56 69 62 63 68 48 55 58 57 60 60 62 58 62 62 59 53 59 63 61 61 60 59 56 52 50 46 42 37 45 43 37 46 50 51 54 52
52 52 51 51 50 50 50 51 52 52 57 70 65 67 59 50 56 58 59 61 59 59 57 59 63 55 58 62 61 61 58 56 56 53 54 41 42 38 36 37 32 48 57 57 52 54 57
52 51 51 52 51 50 51 51 51 51 53 66 63 65 58 37 56 55 59 58 59 59 57 59 57 57 64 60 52 40 45 39 42 49 50 51 44 35 32 37 45 50 52 50 48 48 57
51 51 52 52 52 52 51 51 51 52 53 64 60 61 63 44 52 61 59 60 56 55 54 52 56 59 60 51 45 36 41 44 45 45 48 46 45 42 35 30 30 48 54 55 54 43 54
51 51 52 52 52 52 52 51 51 52 53 65 61 60 66 54 59 60 59 58 60 58 55 54 54 51 57 44 37 39 43 46 43 37 35 35 35 34 35 33 41 54 54 55 37 42 52
50 51 51 51 52 52 52 51 51 51 51 64 60 60 64 54 58 59 60 58 58 61 53 54 53 50 46 38 37 39 36 44 43 48 43 43 36 33 34 30 30 56 54 42 50 54 53
50 50 50 50 51 51 51 52 51 50 52 57 64 61 60 61 58 59 60 63 63 66 62 55 56 55 55 46 40 39 34 35 39 39 51 41 48 46 45 45 57 59 56 59 58 53 48

GFSGBSN_sfc_temp_021.txt.gz
Temp
61 61 60 60 60 60 61 61 60 60 58 58 58 59 59 60 60 59 58 58 58 58 59 59 60 60 72 80 83 96 78 83 94 96 93 90 86 85 79 82 83 79 80 82 83 82 82
60 60 60 60 60 60 61 60 60 58 58 58 58 58 58 58 59 59 58 58 58 58 58 59 60 59 79 75 94 97 96 96 96 96 92 92 87 89 84 83 81 82 81 81 82 80 80
60 60 60 59 59 60 59 59 58 58 58 58 58 58 58 58 58 58 58 58 58 58 58 60 61 76 82 81 96 98 96 94 96 94 89 92 92 87 86 78 84 82 76 79 80 81 79
59 60 60 60 59 59 58 58 58 58 58 58 59 58 57 58 58 58 58 58 58 58 59 60 61 80 79 93 99 94 96 93 95 95 93 93 93 87 85 85 81 77 78 71 78 79 79
59 60 60 60 59 58 58 58 58 58 59 59 59 58 58 57 57 57 58 58 58 59 59 61 75 80 78 83 88 93 94 89 90 92 91 90 90 84 82 76 73 76 69 69 71 78 77
60 60 60 60 59 59 58 58 58 58 58 58 59 59 59 58 58 57 57 57 58 60 67 83 88 80 84 80 87 89 93 90 87 87 85 85 84 79 80 76 65 68 68 68 69 74 76
59 60 60 59 59 59 59 58 57 57 58 59 60 60 59 59 58 57 61 79 78 76 84 79 81 78 82 88 90 88 90 88 88 84 76 80 75 72 73 73 73 72 69 68 72 74 71
59 59 59 59 59 59 59 58 57 57 58 58 59 59 59 59 58 57 70 81 79 84 73 82 82 82 84 87 80 84 91 81 80 75 77 75 69 72 74 73 71 70 67 67 70 72 70
58 59 59 59 59 59 58 58 57 57 58 58 58 59 59 57 56 65 82 80 85 85 75 76 80 80 80 85 76 78 85 82 78 73 74 70 70 72 71 70 68 69 65 64 64 70 73
58 58 58 58 58 58 57 57 57 57 58 58 58 60 57 55 64 82 80 82 84 81 69 68 75 79 82 82 73 84 84 80 76 71 74 70 72 69 69 66 68 64 68 66 65 64 62
59 58 58 57 57 56 56 56 56 57 57 58 58 59 56 57 80 81 80 84 84 79 50 69 74 87 83 76 77 77 85 81 72 71 71 65 67 67 65 65 68 65 68 65 65 64 66
59 58 57 57 57 56 56 56 55 56 57 57 58 58 57 71 80 79 83 82 80 62 48 65 74 73 73 75 74 78 78 82 79 72 74 70 74 72 68 70 69 70 67 66 66 65 53
58 58 57 57 56 56 56 55 55 56 57 57 57 58 62 82 78 80 80 78 62 53 68 63 67 71 71 68 69 72 70 68 68 61 61 67 67 71 71 67 70 70 64 53 49 51 50
57 57 57 56 56 56 55 54 54 55 56 58 57 59 66 80 84 78 78 70 52 62 65 72 71 71 65 69 67 67 68 65 69 68 67 60 54 66 69 65 62 63 62 50 41 46 52
57 57 56 56 55 55 54 52 53 54 55 57 57 78 78 76 78 78 75 57 59 64 69 68 69 64 63 66 67 66 64 63 64 67 61 58 57 67 67 69 67 62 57 62 51 46 45
57 56 56 53 53 54 52 52 53 53 55 57 80 79 78 76 77 76 68 56 64 69 71 72 62 65 60 63 63 64 62 64 63 66 69 62 55 64 66 68 67 64 66 53 56 39 39
56 56 55 52 52 53 51 52 52 53 54 57 78 73 73 78 76 75 61 63 65 70 72 68 65 62 65 61 64 61 60 63 66 65 68 65 59 59 64 61 60 62 60 58 59 52 43
55 55 54 52 52 52 52 52 52 53 54 58 74 67 76 77 69 71 64 67 61 69 71 68 70 67 64 64 61 60 59 63 66 67 61 63 59 51 58 64 66 64 60 59 48 45 49
55 55 54 53 53 52 52 51 52 52 54 80 74 72 77 74 59 59 66 65 69 67 68 67 64 67 68 63 56 61 61 63 66 65 61 63 56 49 54 59 62 58 61 59 55 50 44
54 54 54 52 53 51 51 51 51 52 54 73 76 61 71 74 74 69 64 64 62 67 66 68 66 69 65 62 65 59 60 62 63 64 51 58 59 52 47 53 60 54 58 60 56 44 46
54 54 53 52 52 51 51 51 51 52 54 72 77 67 69 60 65 69 69 67 63 61 67 70 65 66 63 56 60 58 62 61 62 52 61 61 50 56 57 59 59 57 56 57 54 55 46
54 53 52 52 52 51 51 51 52 53 53 77 71 68 71 69 69 68 58 65 65 63 66 63 64 66 66 58 62 58 62 62 60 62 61 61 50 49 47 57 57 52 57 57 57 56 56
53 53 52 52 51 51 51 52 52 52 55 78 74 74 73 54 65 63 63 65 66 66 64 69 68 65 59 64 67 67 66 66 64 61 56 54 51 46 41 50 47 39 51 55 56 58 56
53 52 51 52 51 51 51 52 52 52 55 78 74 76 63 56 62 65 65 67 66 66 62 67 69 61 63 70 69 67 65 62 62 60 61 49 48 42 37 38 33 53 63 62 57 58 61
51 51 51 53 50 51 51 52 51 52 54 75 74 74 63 42 65 64 66 66 65 66 64 63 62 66 71 66 55 45 46 39 47 57 57 58 49 38 35 40 47 53 55 54 51 51 61
51 50 51 52 53 52 52 52 52 52 54 73 69 70 70 48 55 69 65 66 60 59 59 57 63 67 66 57 48 37 42 49 49 49 54 52 51 45 38 32 32 50 59 60 59 44 59
51 52 52 53 53 53 52 52 52 51 53 71 68 67 73 59 66 68 63 63 69 65 60 60 59 56 64 47 39 40 46 53 47 39 36 37 38 36 37 34 43 58 59 60 40 44 56
51 51 51 52 52 52 52 52 50 50 52 66 68 67 69 61 63 66 67 65 65 67 55 60 58 57 53 40 40 44 39 49 48 54 45 41 37 34 38 33 31 61 58 43 52 55 53
51 51 51 51 52 52 52 52 50 51 52 55 71 70 71 68 63 66 66 67 67 69 69 62 62 60 60 51 45 44 36 38 42 42 60 46 51 47 48 47 61 61 58 60 58 55 53

GFSGBSN_sfc_temp_024.txt.gz
Temp
61 61 61 60 60 60 61 61 60 60 60 59 58 59 59 60 60 60 59 58 58 59 59 59 60 60 67 74 82 95 80 82 87 88 89 90 86 85 79 81 82 77 79 81 82 81 81
61 60 60 60 60 60 61 60 59 59 59 58 58 58 58 59 59 59 59 58 58 58 59 59 60 59 70 71 95 98 97 97 97 95 92 92 88 89 83 82 80 81 80 80 81 80 80
60 60 60 60 60 60 60 59 59 59 58 58 58 58 58 58 58 58 58 58 58 58 59 60 60 69 77 80 97 99 97 94 96 94 89 92 92 87 86 78 85 82 75 78 79 79 78
60 60 60 60 59 59 59 59 59 59 59 58 59 58 58 58 58 58 58 58 58 58 59 60 60 73 75 94 97 94 97 94 96 96 93 94 93 87 84 85 81 76 76 68 77 79 79
60 60 60 60 59 59 59 58 58 59 59 59 59 58 58 58 58 58 58 58 58 59 59 61 68 76 76 84 88 94 95 90 92 93 92 92 90 84 82 74 70 73 65 68 70 80 78
60 60 60 60 59 59 59 59 58 58 59 59 59 59 59 58 58 58 58 58 59 60 65 78 83 76 84 81 88 91 95 92 88 87 85 83 82 76 76 72 58 64 67 69 68 74 75
60 60 60 60 59 60 60 59 58 58 58 60 60 60 59 59 58 58 58 72 74 73 80 78 80 79 83 89 91 89 92 88 87 83 73 80 72 68 71 73 73 72 69 68 73 75 71
59 59 60 60 60 60 60 59 58 58 59 59 60 60 60 59 59 58 66 76 80 83 72 83 83 82 86 89 80 85 91 80 78 72 78 74 67 73 76 74 72 71 67 67 72 74 70
59 59 59 59 59 59 59 58 58 58 58 59 59 60 60 58 57 63 77 80 88 85 74 77 82 81 81 86 79 79 84 83 77 74 74 67 70 75 72 71 68 70 65 64 63 70 73
59 59 59 59 59 58 58 57 57 58 58 59 59 60 58 56 63 81 79 85 87 83 65 68 74 79 83 84 74 86 87 80 77 72 74 70 74 71 70 67 68 62 69 66 65 63 57
58 59 58 58 58 57 56 56 56 57 59 59 59 61 56 55 70 79 81 86 85 79 47 71 75 89 85 77 78 78 87 81 73 72 72 67 69 68 67 66 69 64 69 66 65 62 62
58 60 58 58 57 57 56 56 56 57 58 59 60 59 56 67 75 81 84 83 79 58 47 65 75 74 73 76 76 79 79 83 81 74 74 70 76 72 69 70 70 71 67 67 66 62 50
58 59 59 58 57 57 56 55 55 56 58 58 59 58 62 81 75 82 81 77 59 52 71 64 68 73 71 69 71 74 71 70 67 60 60 67 68 72 72 66 71 69 62 49 44 46 45
57 58 59 57 57 56 55 53 52 55 58 59 59 58 68 81 83 79 77 67 51 64 65 74 71 71 65 70 68 70 69 64 70 68 65 59 52 66 71 66 61 64 61 47 39 40 46
57 57 58 56 55 55 53 53 53 54 56 59 57 75 77 75 78 77 71 55 59 65 71 69 70 64 63 67 68 67 65 63 65 67 60 58 57 69 69 70 68 62 56 63 51 44 42
57 57 57 54 52 54 52 52 53 54 56 59 76 75 76 78 78 73 64 56 66 72 74 72 62 67 61 64 63 65 64 66 64 67 70 63 55 65 68 69 69 65 66 52 52 38 38
56 56 56 53 52 52 52 52 52 53 55 57 73 69 72 79 76 70 59 63 68 74 74 70 67 64 66 64 66 63 63 65 68 66 70 66 61 59 66 61 59 61 59 59 58 51 40
55 56 55 53 52 52 52 52 52 52 55 61 73 62 75 77 65 68 63 69 61 69 72 70 72 69 66 66 63 62 61 62 68 68 61 63 60 49 58 66 67 65 60 59 44 44 46
55 55 55 53 52 51 52 52 52 52 54 74 70 69 76 75 58 60 68 68 71 69 70 69 66 69 70 65 57 63 61 65 68 65 58 62 56 47 52 58 63 59 62 60 56 47 41
54 54 54 53 52 51 51 51 52 52 55 68 72 60 69 71 72 67 64 64 63 70 69 71 69 70 67 63 66 60 59 63 65 63 52 58 59 53 45 53 59 54 58 61 57 42 43
54 54 54 52 52 51 51 51 52 53 54 68 73 66 70 59 64 69 69 68 64 61 69 71 66 67 65 57 61 60 62 60 63 54 62 62 51 56 57 59 59 57 56 57 54 54 44
54 53 52 52 52 51 51 52 53 53 53 70 68 68 71 69 69 68 60 66 65 67 67 65 64 67 67 60 62 59 63 62 60 62 61 62 48 48 46 58 57 51 55 55 56 57 56
53 52 52 52 51 51 51 52 52 52 55 75 75 76 72 58 66 64 63 66 67 68 66 71 70 66 57 62 65 66 67 67 66 61 58 55 49 44 39 47 45 38 49 56 57 59 56
53 52 51 53 51 51 52 52 52 52 54 73 74 75 63 57 64 65 68 70 68 67 64 70 71 60 65 71 68 66 64 63 64 62 63 49 47 41 36 37 32 54 62 61 56 58 60
52 51 51 53 50 52 52 52 52 52 54 74 75 72 63 41 64 67 67 67 67 67 66 63 64 69 71 67 54 45 44 40 48 59 58 60 47 37 35 39 46 52 56 54 50 49 59
50 51 51 52 53 53 52 52 51 51 53 72 67 70 69 49 58 70 67 66 61 60 59 58 65 70 68 55 45 38 41 49 47 49 56 55 51 43 37 31 32 49 59 61 59 41 56
50 50 52 53 53 53 52 52 50 51 53 68 67 68 70 60 68 68 64 62 68 63 58 59 59 57 65 46 37 42 45 55 45 39 36 37 39 37 37 34 41 56 60 60 40 41 52
51 52 52 52 53 53 52 51 50 52 53 63 67 69 68 61 65 69 70 67 67 66 53 60 57 57 52 38 40 44 38 46 48 54 42 38 36 33 38 34 32 61 58 42 50 54 53
51 51 51 52 52 53 53 52 52 52 53 55 69 71 72 67 63 69 67 68 68 68 67 62 62 59 58 49 46 45 36 37 40 42 61 45 48 45 45 43 56 58 55 55 54 51 49

GFSGBSN_sfc_temp_027.txt.gz
Temp
61 61 61 60 60 60 61 61 60 59 59 59 59 58 59 59 59 59 59 59 58 58 58 59 59 59 60 63 70 88 71 72 75 78 77 76 75 72 68 69 71 68 68 72 72 73 71
60 60 60 60 60 60 61 60 59 59 58 58 58 58 58 58 58 58 59 58 57 58 58 59 59 59 60 62 87 89 88 84 83 79 79 79 77 79 73 70 69 71 71 70 68 68 70
61 60 59 59 59 59 59 59 59 58 58 58 58 58 57 58 58 58 58 58 57 57 58 59 60 64 66 69 83 83 88 83 86 84 80 82 80 75 73 69 74 73 65 68 67 69 67
60 60 60 59 59 59 59 58 58 58 58 58 58 58 57 57 57 57 57 57 57 58 59 59 60 63 64 86 81 87 86 84 87 88 84 83 82 76 71 72 72 65 62 55 66 69 69
60 59 59 59 59 59 58 58 58 58 58 58 58 58 57 57 57 57 57 57 57 58 59 59 59 61 66 81 80 84 82 83 84 84 80 88 78 69 71 61 55 58 52 57 61 70 67
60 60 59 59 59 59 59 59 58 58 58 58 58 58 58 57 57 57 56 57 58 57 60 69 72 63 74 75 80 83 81 84 78 77 75 72 68 62 60 56 47 53 55 60 56 61 63
60 60 59 59 59 59 59 59 58 57 57 58 59 59 58 58 57 57 53 57 61 61 64 65 69 70 77 81 83 79 83 79 77 72 61 68 58 53 56 61 64 62 59 56 58 65 59
59 59 59 59 59 59 59 59 57 57 58 59 59 59 59 58 58 57 54 61 68 68 60 74 77 77 81 81 74 77 82 70 68 62 66 61 54 64 69 66 64 63 59 55 60 66 61
58 58 59 59 59 59 59 58 57 57 58 59 59 59 59 58 57 55 60 67 76 72 60 71 76 76 76 78 72 72 76 72 67 64 63 57 62 70 68 63 61 59 56 55 56 61 60
58 58 59 59 58 58 58 57 57 57 58 59 59 59 57 55 58 63 63 74 74 68 51 63 69 74 78 77 68 78 77 72 68 62 63 61 68 67 63 61 61 54 62 61 59 53 45
58 58 58 58 58 57 56 56 56 57 58 59 59 59 55 58 59 64 70 74 72 66 32 65 70 79 76 70 70 70 75 72 63 65 63 58 61 60 60 60 63 57 61 59 57 51 47
57 58 58 58 57 56 56 56 55 56 58 59 59 59 56 59 57 67 71 70 65 46 35 61 70 68 67 69 70 73 71 73 71 66 64 61 67 63 61 66 65 65 59 58 56 51 36
57 57 58 57 57 56 56 54 53 56 57 58 57 56 59 69 61 69 66 62 44 36 64 59 62 67 65 63 66 67 65 60 55 50 50 60 60 63 66 58 62 59 51 35 34 32 33
57 57 58 57 56 56 54 53 52 54 57 58 57 57 63 70 68 67 63 54 39 59 59 67 65 65 60 63 63 64 61 54 60 58 53 49 45 58 65 59 54 55 52 33 31 29 35
57 57 57 56 53 53 52 53 52 54 56 57 58 62 63 64 68 65 57 41 47 58 66 63 64 58 58 63 60 61 56 55 57 58 50 48 50 61 64 63 60 54 46 55 41 35 30
56 56 57 54 52 53 52 53 52 53 55 57 60 60 61 66 67 61 51 46 58 67 68 66 56 60 53 57 57 56 56 60 58 61 60 56 47 60 62 62 62 57 59 41 39 30 30
56 56 56 53 52 52 51 52 52 53 54 56 59 56 62 67 64 56 43 51 63 70 67 62 60 58 59 57 58 56 55 59 62 61 60 55 50 50 58 54 51 52 49 50 49 38 29
55 55 55 53 52 52 51 52 52 52 55 59 58 50 63 65 52 50 48 61 58 65 67 65 63 63 59 59 56 56 53 56 63 61 54 55 49 36 50 58 61 56 52 51 32 36 32
54 55 54 54 53 51 51 52 52 52 54 59 55 55 64 62 42 41 57 63 65 63 63 62 61 63 63 57 50 54 54 59 61 56 50 53 46 33 42 50 56 52 56 54 46 36 34
54 54 54 53 52 51 51 51 52 53 55 59 56 47 54 56 57 54 55 57 58 64 63 66 63 63 58 55 59 51 52 58 58 57 52 53 51 42 34 43 49 45 51 52 45 30 33
54 54 53 52 51 51 51 51 53 53 55 60 58 53 56 44 50 54 58 59 57 56 62 64 59 60 57 47 52 50 54 54 57 53 55 52 42 46 48 51 52 50 49 50 47 45 35
53 54 52 51 51 51 51 52 52 52 53 58 56 56 57 53 58 55 52 57 57 60 60 58 57 61 58 51 52 50 54 53 51 54 52 53 37 38 37 48 48 43 47 47 49 49 48
53 53 52 51 50 51 51 52 52 52 54 57 61 62 57 49 52 49 52 57 60 60 59 63 59 53 47 54 56 55 56 55 56 52 49 46 37 32 30 40 36 31 41 49 50 51 47
53 52 51 52 51 52 53 52 52 52 54 60 59 59 49 43 49 54 61 61 59 61 56 58 58 51 57 61 57 54 52 53 56 54 54 40 37 31 25 29 21 45 54 53 50 51 51
52 51 52 52 50 53 52 52 51 52 53 60 59 58 47 36 52 57 59 57 57 56 54 55 58 59 61 55 40 39 35 36 43 52 51 50 35 27 28 27 37 46 51 47 43 42 49
51 50 52 50 53 52 52 50 50 52 54 60 57 58 53 42 45 62 57 56 48 47 48 52 59 59 57 39 34 29 29 38 37 44 47 47 39 31 25 23 19 39 52 56 52 31 47
50 50 52 53 53 52 51 49 50 52 53 59 57 60 58 47 55 57 52 52 56 51 45 49 50 48 53 33 33 31 32 45 34 33 29 29 33 29 23 23 31 47 53 54 33 34 45
49 51 52 52 53 52 52 51 52 52 53 58 57 60 57 48 53 58 58 55 56 51 42 50 45 44 37 36 33 32 30 34 36 42 36 31 28 27 32 30 23 53 51 39 42 45 45
51 51 51 52 52 53 52 52 52 52 53 53 56 61 61 54 52 59 59 61 59 57 54 52 49 49 46 38 34 35 33 35 33 30 47 35 38 33 36 34 46 50 48 48 48 45 44

GFSGBSN_sfc_temp_030.txt.gz
Temp
62 61 61 60 60 60 60 60 60 59 58 58 58 58 59 59 59 59 58 58 58 58 58 58 59 59 58 60 65 81 71 69 71 73 72 73 70 70 65 66 65 64 65 68 68 69 66
61 60 60 59 59 60 60 60 59 58 58 58 58 57 57 58 58 58 58 58 58 57 58 58 59 59 58 58 81 82 79 74 76 75 74 73 72 75 68 67 66 68 67 67 65 64 67
61 60 59 59 59 59 59 59 58 58 58 58 58 57 57 58 58 58 58 57 57 57 58 59 59 61 61 65 79 78 82 80 80 77 75 76 75 73 68 67 70 68 62 64 62 63 61
60 60 59 59 58 58 58 58 58 58 58 58 58 57 57 57 57 57 57 57 57 57 58 59 59 59 61 80 76 81 79 81 83 82 79 77 77 71 70 68 68 63 60 53 62 64 65
60 59 59 59 58 58 58 58 58 58 58 58 58 57 57 56 56 56 56 56 57 58 58 59 57 57 63 79 77 83 79 79 80 81 78 84 76 66 67 57 53 55 49 52 57 66 63
60 59 59 59 59 58 58 58 58 58 57 57 58 58 57 57 56 56 56 57 58 57 58 64 68 60 70 72 77 78 78 80 74 74 73 71 63 58 57 54 45 49 50 55 53 58 59
60 59 59 59 59 59 59 59 58 57 57 57 58 58 58 57 57 56 53 55 58 58 61 63 65 66 72 77 78 74 77 76 73 68 58 64 57 51 55 57 61 59 53 54 53 59 57
59 59 59 59 59 59 59 59 57 56 57 58 58 58 58 58 57 57 53 59 65 66 58 70 70 70 76 76 68 72 78 67 65 58 62 58 52 61 64 63 60 59 55 52 58 63 58
58 58 58 59 59 59 59 58 57 56 57 57 58 58 58 57 57 55 57 64 70 69 57 67 71 71 73 75 67 68 72 67 63 59 58 53 59 66 63 59 58 54 52 51 52 56 56
57 57 57 58 58 58 58 57 57 56 57 57 58 58 57 55 56 59 60 70 69 66 48 59 65 70 74 73 65 73 74 68 64 57 60 58 65 63 59 57 56 49 58 57 54 49 44
57 57 57 58 58 57 56 56 56 56 56 57 58 57 55 56 57 61 68 69 67 64 31 61 65 76 71 67 67 67 72 69 59 60 59 54 56 57 56 56 59 54 58 55 54 47 44
56 56 57 57 57 56 56 55 54 55 56 57 57 56 54 58 54 63 66 65 63 44 34 57 66 64 63 65 65 67 67 70 67 62 60 58 62 59 57 61 60 61 56 53 51 47 35
56 56 57 57 56 56 55 53 53 52 56 56 56 56 56 66 61 64 63 59 43 35 60 56 58 63 61 59 62 62 60 56 51 48 48 56 56 60 62 55 59 56 47 33 33 31 32
56 56 56 56 56 55 53 53 53 51 55 56 55 54 58 66 63 63 60 52 38 53 55 62 61 60 57 60 59 59 56 51 56 55 49 45 42 55 62 55 51 51 48 32 32 28 33
56 56 56 56 52 53 52 52 52 52 54 55 55 57 60 62 65 61 54 39 44 53 61 60 60 54 53 59 58 57 52 51 53 54 49 45 47 57 59 59 57 51 44 51 38 33 29
56 56 56 53 52 52 52 52 52 52 54 56 57 57 58 63 62 58 49 43 53 62 63 62 52 56 50 55 54 53 51 56 54 57 56 52 44 56 58 60 59 55 55 41 36 29 30
55 55 55 52 51 51 52 52 52 52 54 55 57 54 59 63 60 52 42 47 58 64 64 60 56 55 55 53 54 51 51 55 58 57 56 52 48 48 55 50 48 49 46 46 45 35 29
54 54 54 52 52 51 51 52 52 52 54 57 54 48 60 61 50 45 46 57 59 61 64 62 60 58 55 55 52 49 50 53 57 56 51 51 45 35 46 54 56 52 49 46 31 36 30
54 54 54 52 52 51 51 52 52 52 54 56 52 51 60 59 40 37 52 59 61 59 59 59 57 59 58 54 47 50 51 55 57 54 49 50 43 32 40 47 52 48 51 49 42 34 34
53 53 53 52 52 51 51 51 52 51 54 55 52 44 51 52 50 51 51 54 54 60 60 61 59 60 56 52 54 49 49 55 56 54 50 52 46 40 34 40 45 42 47 47 42 29 32
53 53 53 51 51 50 50 51 52 53 54 56 53 49 52 43 47 51 53 55 54 53 59 60 57 57 54 45 49 46 50 51 55 52 53 50 40 43 44 46 46 45 44 44 43 41 34
53 53 52 51 51 50 50 52 52 53 53 56 53 53 51 49 54 53 49 53 54 56 57 54 53 55 54 48 50 47 50 48 48 50 49 48 36 37 38 43 43 40 44 43 44 45 45
53 52 50 51 51 51 52 52 51 52 54 58 58 58 54 46 48 47 48 54 56 58 57 57 54 49 46 51 51 50 51 53 53 50 45 43 35 31 30 36 36 30 40 45 46 46 45
52 51 51 51 51 52 52 51 51 52 54 60 57 55 48 41 47 50 56 57 55 56 52 55 55 49 54 57 53 53 50 51 52 49 50 38 33 28 24 27 21 42 50 50 44 44 46
51 50 52 51 50 52 51 49 49 50 53 56 57 55 47 35 47 53 55 52 52 52 50 51 54 55 56 51 38 38 34 37 40 46 45 45 32 27 22 25 34 43 47 46 43 40 46
51 50 52 50 51 52 49 50 51 52 53 56 55 56 51 42 44 55 51 52 46 44 45 49 56 56 50 35 32 29 29 36 35 41 45 43 36 29 25 21 19 37 48 52 49 32 46
50 51 51 52 52 51 49 51 52 52 53 57 55 57 55 45 50 53 49 50 51 46 42 46 48 47 48 30 32 26 31 42 32 31 28 27 26 26 17 17 29 43 50 52 32 35 44
50 50 51 52 52 51 51 51 51 52 52 57 55 57 56 45 50 54 55 52 51 48 40 47 45 42 37 32 28 33 25 33 33 39 35 32 28 25 24 18 24 48 48 39 41 42 43
49 51 51 51 52 50 48 49 50 52 52 55 55 57 57 52 51 56 56 56 55 55 50 47 47 45 43 36 34 36 27 33 31 30 43 36 37 32 36 34 44 47 47 46 46 43 43

GFSGBSN_sfc_temp_033.txt.gz
Temp
62 62 62 61 60 60 60 60 60 59 58 58 58 58 58 59 59 59 58 57 58 58 58 58 59 59 56 57 63 77 68 68 70 70 69 68 66 65 63 62 64 62 64 65 66 67 64
61 61 60 60 60 60 60 60 59 58 58 58 57 57 57 58 58 58 58 57 57 57 57 58 59 59 54 56 77 78 74 71 72 70 70 71 70 69 65 66 63 66 64 62 63 65 65
61 60 60 59 59 59 59 59 58 58 58 58 57 57 57 57 57 57 57 57 57 57 57 58 59 59 58 65 73 73 76 75 73 74 73 73 72 68 67 60 67 64 60 61 60 60 60
61 60 60 59 58 58 58 58 58 58 58 58 58 57 57 57 57 57 57 56 56 57 57 58 59 56 59 77 73 76 78 78 79 76 77 76 74 70 65 66 64 59 57 51 59 61 61
60 60 60 59 58 58 58 58 58 58 58 58 57 57 57 56 56 56 56 56 56 57 58 58 54 55 62 77 75 78 77 76 77 76 74 80 72 63 63 56 51 53 47 49 55 61 58
60 60 59 59 58 58 58 58 57 57 57 57 57 57 57 56 56 56 55 56 57 56 57 62 64 57 67 69 74 75 75 76 73 71 70 68 61 56 54 52 44 47 48 51 51 55 57
60 60 59 59 58 59 59 58 58 57 57 57 57 57 57 57 56 56 53 52 56 55 57 60 62 64 68 74 76 72 74 73 71 66 56 61 54 49 50 53 56 54 50 48 50 56 55
60 59 59 59 59 59 59 59 57 57 56 57 57 57 57 57 57 56 53 57 63 64 56 65 66 67 71 71 66 69 74 65 63 55 59 56 50 56 61 59 57 55 51 48 53 57 55
59 58 59 59 59 59 59 59 57 57 56 56 57 58 58 57 56 55 57 61 67 65 55 63 68 67 69 72 64 64 69 64 60 57 55 51 55 62 60 56 55 51 49 48 50 53 54
58 57 58 58 58 58 58 58 57 57 56 56 57 57 55 55 57 58 58 66 66 64 47 56 62 68 71 69 62 70 70 66 61 56 56 56 60 59 56 55 53 48 55 54 52 48 41
57 57 57 57 57 57 56 56 56 56 56 56 57 56 55 56 57 58 66 66 64 62 31 57 63 72 68 65 64 65 69 67 57 57 57 52 54 55 54 53 55 52 55 52 51 45 42
57 57 56 57 56 56 56 55 55 53 55 56 56 56 54 55 52 61 64 61 62 43 33 54 63 60 61 62 61 64 65 67 63 58 57 55 58 57 55 57 57 57 53 50 46 44 34
56 56 56 56 56 56 56 55 52 52 53 56 55 55 56 62 60 63 60 58 42 33 56 52 55 59 57 55 58 58 55 53 51 46 45 53 53 56 58 52 55 53 45 32 32 30 31
56 56 56 56 56 55 55 53 52 51 53 56 54 53 55 61 62 61 58 51 36 50 52 58 58 56 54 57 55 55 52 49 53 51 46 43 41 52 58 52 49 48 46 32 33 28 32
56 55 55 55 55 54 53 52 52 51 54 54 54 54 57 60 62 59 53 38 42 49 57 56 57 51 50 55 55 53 48 48 50 51 46 43 44 55 56 56 55 48 42 48 35 32 28
56 55 55 55 52 52 52 52 52 51 55 54 56 55 57 61 60 57 47 43 50 58 59 59 50 53 48 52 51 50 48 53 52 54 53 50 42 52 55 57 55 51 53 39 34 29 29
55 55 55 52 51 51 51 51 52 51 54 54 56 53 59 60 58 51 41 45 54 61 61 57 53 51 52 50 51 48 48 52 54 54 54 50 46 45 51 48 45 48 44 43 41 33 28
54 54 53 51 51 51 51 51 52 52 53 56 52 47 59 58 48 42 44 53 55 58 62 59 57 55 52 52 48 47 48 50 54 53 48 48 43 34 44 51 52 49 45 44 30 34 28
54 54 53 52 51 51 51 52 51 52 54 54 50 51 59 57 38 35 49 55 57 57 57 56 54 56 55 50 45 48 48 53 54 52 48 49 41 32 39 46 50 46 47 44 39 33 32
53 53 52 52 51 51 51 51 51 51 53 55 51 43 49 50 47 48 48 51 51 57 57 58 56 57 53 49 50 46 47 52 52 52 50 51 43 39 33 39 42 40 44 44 41 29 31
53 52 52 51 51 51 51 51 51 51 53 55 50 47 50 41 45 48 51 52 51 51 57 57 54 54 51 44 45 44 48 49 52 51 50 48 39 40 41 42 43 42 43 42 41 39 34
53 52 50 50 50 50 50 51 52 52 53 54 50 48 48 46 50 50 46 50 52 53 54 52 52 51 51 48 49 45 48 46 46 49 45 46 35 37 36 40 40 38 43 42 41 41 41
52 51 50 50 50 50 51 52 52 52 57 53 53 53 51 43 44 44 45 52 54 55 52 54 53 48 44 48 49 48 49 50 51 47 42 40 34 32 29 34 34 29 39 43 44 44 42
51 50 51 51 51 51 51 51 51 52 54 57 54 53 46 38 43 48 53 54 53 53 51 52 53 48 52 53 51 51 49 48 48 45 47 36 32 27 24 26 21 41 46 46 44 42 42
50 50 51 51 51 51 48 48 48 50 53 58 54 52 45 34 45 50 51 49 50 49 48 49 51 52 53 48 38 39 34 37 39 43 42 43 31 26 22 25 34 42 44 42 41 40 44
50 51 51 51 52 48 48 49 51 52 53 57 54 52 49 43 44 53 49 50 44 42 44 47 53 52 48 33 32 29 30 36 34 38 42 40 34 29 25 19 19 37 44 49 47 33 44
50 51 51 51 52 48 49 51 51 52 54 56 54 55 53 44 48 50 48 48 48 44 41 45 46 45 46 28 25 27 31 39 32 31 28 28 25 24 16 18 29 41 48 49 33 35 42
50 50 51 51 51 49 48 49 50 51 54 57 53 54 54 45 49 52 53 50 48 46 41 46 44 41 34 31 28 28 23 32 32 37 33 31 27 26 23 19 26 45 45 39 42 41 44
50 50 50 50 47 49 49 49 50 51 53 55 53 55 55 51 50 53 54 54 53 54 48 45 47 44 42 33 30 32 26 33 29 28 40 32 36 32 35 34 43 45 44 45 45 43 42

GFSGBSN_sfc_temp_036.txt.gz
Temp
62 62 62 62 61 60 61 60 59 59 58 58 58 58 58 59 59 59 58 57 57 58 58 58 58 59 54 54 61 69 67 67 68 70 68 66 63 62 58 59 61 57 62 63 65 65 64
61 61 61 61 60 60 61 60 59 58 58 58 58 57 57 57 58 58 57 57 57 57 57 57 58 58 53 53 73 72 69 68 68 69 67 67 66 66 61 61 63 64 63 61 61 62 62
62 61 60 60 59 59 59 59 58 58 58 58 58 57 57 57 57 57 57 57 57 56 57 58 59 57 55 62 72 71 72 71 71 71 68 69 70 65 64 61 64 61 58 62 61 60 59
61 61 61 59 59 58 58 58 58 58 58 58 58 57 56 56 56 56 56 56 56 57 57 58 59 54 55 74 70 74 72 73 73 72 71 72 71 67 63 63 62 57 55 50 57 59 58
61 61 60 59 59 58 57 57 57 58 58 58 57 57 56 56 56 55 56 56 56 57 57 58 52 53 58 75 72 76 74 73 73 71 72 77 70 63 61 54 51 52 48 47 52 58 57
61 61 60 59 59 58 58 57 57 57 57 57 57 57 56 56 56 55 55 56 57 56 56 60 61 54 64 66 71 75 73 73 69 68 68 66 59 56 53 52 43 47 46 48 48 52 57
61 61 60 59 59 59 58 58 58 57 57 57 57 57 57 56 56 55 53 50 54 52 54 58 60 60 65 72 72 69 72 70 68 65 56 59 55 49 53 52 53 51 48 46 47 53 49
60 60 60 59 59 59 59 59 58 57 57 57 56 57 57 57 56 56 50 53 59 61 53 61 62 63 67 68 63 68 72 63 61 54 57 55 48 54 56 56 54 52 48 46 49 54 51
59 59 59 59 59 59 59 59 58 57 56 56 56 56 57 56 56 52 52 59 66 63 53 61 63 64 66 69 62 63 67 63 58 55 53 50 52 59 56 53 53 49 48 45 48 50 51
59 58 58 59 59 58 58 58 58 57 56 56 56 56 55 54 53 54 57 65 64 62 46 54 60 66 68 67 60 68 67 64 59 53 55 53 56 56 54 53 51 46 52 51 49 45 40
58 58 57 58 58 57 57 57 57 57 56 55 56 56 55 56 54 57 65 64 62 61 31 56 60 69 65 63 62 62 66 64 55 54 54 49 51 53 52 50 53 49 54 51 48 43 41
58 57 57 57 56 56 56 56 56 55 53 55 55 55 54 54 50 59 61 60 60 42 33 52 61 59 58 59 59 60 62 65 61 56 55 52 55 54 52 54 54 55 51 48 44 42 33
57 57 57 56 56 56 56 55 55 53 52 54 55 55 54 59 57 60 59 57 43 34 54 49 52 57 55 53 55 56 54 51 49 45 43 51 51 55 55 51 53 50 44 32 31 29 31
56 56 56 56 56 55 55 55 54 52 51 53 54 53 54 58 58 59 57 50 37 47 48 54 54 54 52 53 52 53 50 47 51 49 44 41 40 49 56 50 48 45 44 33 32 27 31
53 56 56 55 55 55 55 55 52 52 50 53 53 50 53 58 57 57 52 37 41 46 54 53 54 49 47 52 52 50 46 47 48 49 46 41 42 52 53 53 52 46 39 45 34 31 28
54 55 55 55 55 55 55 53 52 51 52 53 53 53 55 59 58 56 46 43 48 54 55 55 47 50 45 48 48 47 46 50 49 51 51 48 41 49 52 54 53 48 50 38 33 28 28
54 55 55 55 54 53 53 52 52 51 53 54 53 51 56 58 57 51 40 44 51 58 58 55 51 48 49 48 48 45 46 49 51 51 52 48 44 44 48 46 44 46 42 40 39 32 27
54 54 54 54 53 52 51 51 52 51 53 53 50 46 57 57 48 41 43 50 53 56 57 56 55 53 49 48 46 45 46 49 51 51 47 46 42 35 42 48 49 46 44 42 30 33 28
53 54 54 52 52 51 51 51 52 51 54 53 48 49 56 56 39 35 47 52 54 54 54 54 52 54 52 47 43 45 46 51 51 49 48 48 40 32 39 44 47 43 43 41 37 33 31
53 53 53 52 51 51 51 51 51 51 53 53 50 43 48 49 46 46 48 49 50 55 54 56 53 54 50 46 48 44 45 50 50 49 50 49 41 38 34 38 41 39 42 41 40 28 31
53 53 52 52 51 51 51 51 51 51 52 53 49 45 48 41 44 45 52 51 50 49 54 56 52 52 49 42 43 42 46 47 50 50 47 46 38 38 38 39 40 40 41 40 39 38 35
53 52 51 51 50 50 51 51 51 51 52 52 49 47 46 44 48 48 44 49 50 51 52 50 51 48 49 46 48 44 47 45 45 46 43 44 35 36 35 37 38 37 40 40 39 38 38
52 51 51 50 50 50 51 50 51 51 54 52 50 51 50 41 42 43 43 49 51 53 50 51 52 48 43 47 48 47 47 47 48 45 41 39 34 32 29 32 33 29 37 39 39 41 40
51 50 50 50 50 50 51 51 51 52 54 55 52 51 45 36 40 46 50 51 51 51 50 49 50 46 48 50 50 50 47 46 46 43 44 35 32 26 23 26 21 39 43 43 42 42 43
49 50 50 50 51 50 50 50 50 52 52 55 53 51 44 33 42 46 48 47 48 47 46 47 48 49 51 47 38 38 34 37 38 40 39 40 31 24 23 24 34 41 41 41 40 40 43
50 50 50 50 48 48 49 49 49 52 52 55 53 51 49 41 42 50 47 47 43 41 43 45 50 50 47 32 32 29 30 36 34 36 40 38 34 30 21 19 19 37 42 46 45 33 43
50 50 50 49 48 49 50 50 51 52 54 56 54 53 51 43 46 48 46 46 47 43 40 44 46 44 45 28 25 27 30 37 32 30 27 29 26 23 14 17 29 40 45 46 34 35 41
50 51 51 49 48 49 49 50 51 52 54 57 54 53 52 44 47 50 51 48 47 45 40 45 43 41 34 32 28 27 24 31 32 36 33 31 29 28 23 16 25 44 44 38 42 39 42
50 50 49 48 48 49 49 49 51 53 53 57 54 54 53 49 48 52 53 53 51 52 46 43 46 43 41 33 27 28 26 32 29 28 37 32 35 30 33 33 42 44 43 44 44 43 41

GFSGBSN_sfc_temp_039.txt.gz
Temp
62 62 62 62 61 61 61 60 60 59 58 58 58 58 59 59 59 59 58 57 57 58 58 58 58 59 57 59 63 73 67 67 71 73 73 69 67 67 64 65 67 65 66 67 68 68 68
62 61 61 61 61 61 61 60 59 59 58 58 58 58 58 58 58 58 57 57 57 57 57 57 58 58 57 57 77 73 70 70 73 73 71 71 70 71 68 67 67 67 67 65 66 66 67
62 61 61 60 60 60 60 59 59 58 58 58 58 57 57 57 57 57 57 57 57 57 57 58 58 58 57 63 77 73 73 73 73 73 70 72 74 72 69 66 70 68 65 67 67 69 68
62 61 61 60 59 59 59 58 58 58 58 58 58 57 57 56 56 56 56 56 56 57 57 57 58 57 57 74 74 73 74 76 75 75 75 76 75 72 70 70 66 64 63 59 66 67 66
61 61 61 60 59 58 58 58 57 58 58 58 57 57 56 56 56 56 56 55 56 57 57 58 55 56 60 75 75 80 80 77 75 73 75 76 75 68 68 62 60 60 55 57 61 66 66
61 61 61 60 59 59 58 58 57 57 57 57 57 57 56 56 56 55 55 56 57 57 57 60 60 56 66 70 74 77 81 78 74 72 71 71 66 63 61 62 53 55 55 57 58 62 60
60 61 61 60 59 59 59 58 57 57 57 57 57 57 56 56 56 55 54 54 56 55 56 59 61 61 66 73 74 75 78 76 74 69 63 64 62 58 61 61 60 59 58 57 58 59 56
56 60 60 60 60 59 59 59 57 57 57 57 57 56 56 56 56 55 53 53 61 65 57 60 62 63 67 70 67 71 77 70 67 61 64 62 56 61 60 61 59 58 56 55 56 57 56
58 57 60 60 60 59 59 59 57 57 57 57 56 56 56 56 55 53 52 57 66 68 57 61 63 64 68 70 66 68 73 69 65 61 59 57 60 62 60 58 58 55 55 54 55 56 56
57 56 56 59 59 59 59 58 58 57 57 56 55 55 55 54 54 54 56 65 65 65 50 56 62 67 69 70 64 73 73 69 63 59 58 59 61 60 58 56 58 53 59 57 55 55 51
56 56 55 58 58 58 57 57 57 57 57 56 55 55 54 56 55 56 64 65 64 62 35 58 63 74 69 66 66 67 70 69 60 59 60 56 58 57 56 56 59 55 58 56 54 52 52
56 56 56 56 57 57 56 56 56 56 56 55 55 55 54 54 52 58 63 64 61 46 36 54 63 62 62 63 64 67 67 68 65 59 59 57 63 61 60 58 59 57 56 54 51 51 45
56 55 56 55 57 56 56 56 56 55 55 53 53 55 55 58 57 62 61 59 46 38 55 52 55 60 59 57 59 60 57 56 56 50 50 55 56 60 61 58 59 58 53 43 41 41 41
55 55 54 55 57 56 56 55 55 55 54 52 52 53 54 57 59 59 59 52 41 48 50 57 56 57 55 57 56 56 55 53 56 55 50 48 47 57 60 58 55 52 53 43 36 36 41
55 55 54 54 56 56 55 55 55 54 53 51 53 51 52 57 58 57 54 41 43 48 55 55 56 52 53 56 55 54 52 52 54 56 51 48 48 59 58 60 59 52 48 52 41 36 38
54 55 54 52 55 55 55 55 54 53 52 52 52 51 54 59 58 56 49 43 50 55 58 57 50 52 48 52 52 52 52 55 55 56 58 53 46 55 58 60 58 56 55 46 44 34 34
54 54 53 53 54 54 54 54 54 52 51 53 53 51 57 59 57 52 43 45 53 58 59 56 53 51 51 51 51 50 51 54 56 56 57 54 51 50 55 53 52 52 49 45 46 41 37
53 53 53 52 54 54 54 54 52 52 52 52 50 47 56 56 49 44 45 51 54 57 59 58 58 55 53 52 50 50 50 53 54 57 54 53 48 43 50 55 56 55 51 49 41 39 36
53 53 52 52 53 54 53 52 52 52 54 52 49 50 56 56 41 39 49 54 57 56 56 57 55 56 55 50 47 50 50 54 55 55 52 52 46 40 45 51 54 51 50 46 43 41 38
52 52 52 53 54 53 52 52 51 51 54 55 50 44 50 50 48 49 49 51 53 56 56 57 55 55 52 50 50 47 49 53 54 54 49 52 46 45 42 46 48 46 46 46 47 39 40
51 51 52 53 53 52 51 51 51 51 53 53 50 47 51 43 46 48 53 52 52 51 57 57 55 54 51 45 47 46 50 52 53 50 51 52 45 45 44 44 46 47 46 45 45 45 43
51 51 52 51 51 51 51 51 51 51 52 53 48 47 46 46 49 50 47 50 52 53 53 53 52 52 54 48 51 46 50 49 50 51 49 48 42 43 41 42 42 42 46 45 44 45 46
51 52 51 51 51 51 51 51 51 51 54 52 51 53 51 41 44 45 46 49 53 54 52 53 54 51 49 52 52 50 50 50 51 49 45 44 41 39 36 37 39 35 43 46 46 46 49
51 52 51 51 51 51 51 51 51 51 53 56 53 52 46 38 42 46 50 53 52 53 51 51 53 51 51 54 53 54 50 48 48 45 47 40 37 34 34 31 31 47 49 49 46 47 49
51 51 51 50 50 50 50 50 50 51 52 56 54 52 46 34 43 46 49 48 49 49 48 49 50 51 53 51 44 42 39 40 41 43 43 44 37 31 33 33 40 47 45 45 44 48 50
50 50 50 50 50 50 50 50 50 52 52 55 53 52 50 41 42 51 48 49 45 44 46 46 51 53 49 39 38 35 35 41 40 42 43 42 40 39 30 32 30 43 48 51 52 41 51
50 50 50 50 49 49 50 50 50 53 52 56 53 54 52 45 49 51 48 48 48 46 43 46 49 48 49 36 34 36 38 41 38 34 32 33 32 33 25 33 37 45 50 52 40 43 48
50 50 49 48 49 49 49 49 51 53 52 56 53 54 54 46 49 52 53 49 48 48 44 47 47 45 39 37 37 35 35 38 39 41 36 37 33 31 27 29 32 48 50 44 50 49 49
50 48 48 49 49 49 50 50 52 53 54 55 52 54 54 51 50 53 54 54 53 55 49 46 50 46 46 39 35 33 33 33 34 37 41 38 41 38 39 40 48 49 49 51 50 49 49

GFSGBSN_sfc_temp_042.txt.gz
Temp
63 63 63 62 62 61 62 61 60 59 59 58 58 58 59 59 59 59 59 58 58 58 58 58 59 59 65 67 73 83 69 69 81 83 82 80 76 76 73 76 76 72 74 75 79 77 76
62 62 62 62 61 61 62 61 60 59 58 58 58 58 58 58 58 58 58 57 57 57 58 58 58 58 66 63 87 85 82 81 84 83 82 82 79 81 75 74 74 75 72 73 74 75 75
61 62 61 61 61 61 61 60 59 59 58 58 58 58 58 58 58 58 57 57 57 57 58 58 59 66 65 71 87 87 83 83 86 84 81 85 84 78 77 72 76 74 67 69 71 73 73
60 61 61 60 60 59 59 59 59 59 58 58 58 58 57 57 57 56 56 56 56 57 58 58 59 65 66 85 89 85 88 85 85 86 85 84 84 79 75 76 73 71 72 64 71 75 73
60 60 61 61 60 59 59 58 58 58 58 58 58 57 57 56 56 56 56 56 56 57 58 59 63 64 68 81 81 89 89 84 82 81 81 81 81 76 73 69 67 70 63 65 66 74 74
60 60 61 61 60 59 59 58 58 58 58 58 58 57 57 56 56 56 56 57 57 58 62 67 68 61 74 76 83 85 90 86 82 78 75 76 76 72 72 69 59 63 63 66 66 70 74
60 60 60 60 60 60 59 59 58 57 57 57 58 57 57 56 56 56 58 67 65 65 65 69 69 69 74 83 85 84 87 84 82 78 71 74 70 66 72 72 71 70 68 66 69 68 70
59 59 59 61 60 60 60 59 58 57 57 57 57 57 57 56 56 56 63 67 71 71 66 72 71 70 76 79 74 81 86 78 74 69 71 71 66 68 71 71 70 69 66 65 65 67 69
58 58 58 58 60 60 60 60 58 57 57 57 57 57 56 56 55 58 65 69 77 75 66 69 72 72 76 77 74 78 82 78 74 69 69 67 66 69 70 69 67 65 65 63 64 65 67
57 57 57 57 58 60 59 59 58 57 57 57 56 56 55 55 56 67 65 76 77 73 61 64 68 74 76 78 72 81 82 78 72 68 69 67 68 67 68 65 67 62 66 66 64 64 60
56 56 56 57 56 57 58 58 58 57 57 57 56 56 54 54 65 66 73 77 76 70 44 68 70 83 79 74 75 74 80 78 70 67 67 63 66 66 65 64 66 63 67 66 65 65 63
56 56 56 56 56 55 56 57 56 56 56 56 55 55 54 57 63 70 74 74 71 55 43 61 71 69 69 71 71 74 75 78 75 68 70 67 71 69 67 67 68 68 66 65 65 63 53
55 56 56 55 55 55 56 56 56 56 56 55 53 54 57 67 66 72 71 69 55 47 63 59 63 68 68 66 67 69 68 67 65 59 59 65 64 69 69 65 67 67 63 54 49 49 48
54 55 55 55 55 55 56 56 55 55 55 54 53 53 57 67 73 68 69 62 47 58 60 65 66 68 63 66 65 65 65 63 66 66 63 58 53 64 67 66 64 63 62 53 41 45 52
54 54 54 55 54 54 55 56 55 54 54 53 53 58 60 66 66 65 64 51 54 59 65 63 64 61 60 64 65 64 63 64 65 66 61 58 56 66 65 67 67 60 58 61 51 44 47
53 54 54 54 54 54 55 55 55 54 53 52 63 61 65 69 69 63 58 52 61 65 65 66 58 63 58 62 61 62 62 63 63 65 67 62 54 62 63 67 66 64 65 53 55 40 41
53 53 54 54 54 53 54 55 54 54 52 53 63 60 67 69 67 61 53 58 63 67 67 64 63 60 62 60 63 62 61 62 64 63 67 67 62 57 62 61 61 59 58 58 59 53 46
52 53 53 53 53 53 53 54 54 53 52 52 62 56 63 65 56 59 57 64 59 66 66 67 69 66 63 63 60 61 60 63 64 67 63 62 61 53 58 63 64 64 61 61 51 47 49
52 52 53 53 53 52 53 53 53 52 52 61 60 60 59 64 51 53 62 63 65 65 66 65 64 67 66 63 57 60 61 60 63 64 63 63 58 50 52 58 61 59 62 61 56 54 48
52 52 52 53 53 52 52 53 52 52 53 64 64 53 55 59 66 61 59 60 61 64 65 66 64 65 63 60 61 57 58 59 60 62 49 59 59 56 51 56 61 54 57 59 59 49 52
51 52 52 52 52 51 52 53 52 52 53 58 64 60 64 52 57 61 63 63 61 59 65 67 63 66 63 56 57 56 59 58 60 52 60 62 55 56 55 55 55 57 57 57 56 58 50
51 51 51 52 51 51 52 52 52 51 52 53 60 60 60 61 62 60 56 60 62 61 63 63 63 64 65 60 63 58 61 60 60 59 60 58 53 52 49 51 52 51 57 58 58 59 59
51 52 52 51 51 51 53 52 51 51 53 58 64 65 67 49 58 58 59 62 63 65 59 62 67 63 60 61 63 65 63 65 65 60 57 56 52 49 46 47 48 40 52 57 59 60 59
51 52 51 51 51 52 52 51 51 51 54 67 69 68 60 49 57 59 61 63 62 65 61 60 64 63 58 65 66 65 63 61 61 57 59 51 51 46 43 39 35 57 59 59 59 62 64
51 51 51 51 52 51 51 51 51 51 52 58 68 66 58 41 59 59 61 60 59 60 58 60 58 61 65 62 57 52 50 47 50 54 54 57 51 39 38 44 51 58 55 54 52 57 62
51 51 51 51 51 50 50 50 51 50 52 54 62 61 65 50 51 65 60 61 58 58 56 53 58 62 61 56 51 45 44 51 48 49 53 53 52 50 39 37 35 53 56 59 58 49 60
50 51 51 50 50 50 50 50 50 50 52 56 62 61 68 56 60 62 61 59 63 60 57 55 56 55 59 50 44 46 48 52 47 42 37 42 41 39 40 38 47 58 58 58 45 50 60
50 50 50 50 50 50 50 50 50 50 53 55 58 62 67 56 58 60 61 60 60 63 56 56 57 55 53 47 46 48 44 49 50 52 47 46 42 38 38 35 36 58 56 50 57 61 60
49 49 49 49 49 49 50 50 50 51 53 53 58 61 67 62 57 61 60 62 62 65 63 60 61 59 61 53 48 45 39 38 47 46 52 46 53 50 51 52 57 60 61 61 60 59 61

GFSGBSN_sfc_temp_045.txt.gz
Temp
62 62 63 63 62 62 62 61 61 60 59 59 59 59 59 59 59 59 58 58 58 58 59 59 59 59 65 72 77 86 70 69 82 85 85 84 80 80 75 79 81 77 78 79 82 80 78
61 61 61 62 62 62 62 61 61 60 59 59 59 58 58 59 59 58 58 58 58 58 58 59 59 58 67 67 92 93 89 87 89 86 86 87 83 85 79 78 78 80 78 77 77 76 78
62 61 61 61 61 61 61 61 60 60 59 59 59 58 58 58 58 58 58 58 57 58 58 59 59 68 70 74 93 94 90 89 91 89 85 89 89 81 81 76 80 79 71 71 74 77 76
61 61 61 61 60 60 60 60 60 60 59 59 59 58 58 57 57 57 57 57 57 58 58 59 59 70 69 90 95 92 94 91 93 92 89 89 89 82 79 80 76 71 71 62 73 77 78
60 61 61 60 59 59 59 59 59 59 59 59 59 58 58 57 57 57 57 57 57 58 59 60 65 70 71 81 85 94 95 87 87 88 88 86 84 76 77 70 67 71 60 64 68 78 78
60 60 60 60 60 59 59 59 59 59 58 58 58 58 58 57 57 57 56 57 58 58 62 74 76 67 77 80 87 90 95 90 84 82 79 78 77 73 73 68 58 63 64 68 67 74 77
59 60 60 60 60 60 60 59 59 58 58 58 58 58 58 57 57 57 58 69 68 67 71 73 75 75 79 87 92 88 92 88 86 81 71 76 68 64 68 72 73 71 69 68 73 77 74
58 59 59 60 60 60 60 60 58 58 58 58 58 58 58 57 57 57 63 70 76 75 68 77 78 77 81 84 77 85 91 80 78 65 70 72 63 74 77 76 73 71 67 67 72 75 72
58 58 59 59 59 59 60 60 58 57 57 58 58 58 57 57 56 59 68 73 83 80 68 75 79 77 80 83 78 82 86 82 75 70 71 61 68 74 74 72 70 69 67 63 67 71 73
57 57 57 58 59 58 59 59 59 58 57 57 57 57 57 55 56 72 69 79 81 78 61 67 71 78 81 81 75 89 88 82 76 68 72 67 71 73 71 69 72 64 71 71 68 67 60
57 57 57 57 57 57 57 58 58 58 57 57 57 57 55 54 66 69 76 83 81 74 45 71 74 90 85 77 79 79 88 82 71 73 72 67 71 70 69 69 72 65 72 70 70 68 65
56 56 56 56 56 56 56 56 57 57 57 57 56 56 55 59 63 73 79 79 74 55 45 65 75 72 72 76 76 80 80 84 81 73 75 59 78 75 73 72 73 73 70 70 70 67 55
56 56 56 56 56 56 56 56 56 56 56 56 55 55 58 72 69 77 76 71 55 49 69 64 67 72 71 69 71 73 71 70 67 61 62 69 70 73 75 69 72 72 66 52 50 52 50
55 55 55 55 56 55 55 56 55 56 56 55 53 54 57 71 75 73 72 60 48 61 64 72 71 70 66 71 70 70 70 67 73 71 65 59 56 69 74 71 67 68 67 55 43 47 53
54 54 54 55 55 55 55 55 55 55 54 54 53 61 65 68 71 70 66 50 55 64 71 67 69 63 65 69 69 68 67 68 72 73 59 59 59 72 71 73 72 66 61 68 56 52 49
53 54 54 54 54 54 54 54 55 55 53 52 63 63 66 72 69 67 59 52 63 72 73 71 61 66 61 64 63 65 66 72 70 72 75 68 58 68 69 72 71 68 71 57 58 43 44
50 53 53 54 54 54 54 54 54 54 53 53 64 59 73 73 70 61 53 58 66 74 73 68 66 64 66 64 66 65 66 69 73 70 73 73 66 62 67 65 66 64 62 63 63 58 47
46 53 53 53 53 54 53 53 54 54 53 53 61 54 68 71 57 60 57 64 64 71 73 70 70 70 67 68 65 65 65 70 74 74 67 71 66 57 62 70 72 70 66 65 53 52 54
47 52 52 53 53 53 53 53 54 53 53 60 55 58 63 69 53 54 64 65 70 69 70 68 67 72 72 67 61 66 67 67 71 70 68 69 62 53 56 63 67 63 67 67 65 59 52
45 51 52 52 53 53 53 53 53 52 54 64 59 50 52 58 67 62 60 62 63 71 70 73 70 73 68 66 70 64 65 64 67 70 53 62 65 59 52 59 66 59 63 66 63 51 53
46 51 52 52 52 53 53 53 53 52 54 59 55 59 61 52 60 64 65 65 62 63 69 72 69 69 67 61 64 63 67 63 65 55 65 67 58 63 64 64 63 63 63 64 60 61 54
48 50 51 51 52 52 52 52 52 52 53 53 56 63 66 64 65 63 59 62 63 68 68 65 66 70 71 65 66 63 67 65 63 65 65 67 57 59 54 61 60 58 62 63 64 64 65
50 51 51 51 52 52 52 51 52 51 55 52 65 66 69 59 62 61 62 64 66 70 66 70 71 70 67 68 71 72 74 73 72 65 63 62 58 53 48 55 55 43 56 61 64 67 65
51 51 51 51 51 52 51 51 51 51 54 65 68 68 60 55 62 62 65 67 67 67 65 68 74 70 66 74 73 72 70 68 68 65 68 59 57 52 46 41 35 61 66 65 62 66 69
50 51 51 51 51 51 50 50 51 51 52 64 66 62 61 46 63 62 66 66 68 66 67 66 64 70 73 71 61 54 53 50 57 62 62 65 57 45 40 47 55 60 63 60 58 59 68
50 50 51 51 51 51 50 50 51 51 52 57 59 66 62 58 59 69 66 68 62 62 61 58 68 70 67 64 56 50 48 55 52 54 60 59 59 52 45 38 34 55 62 65 64 52 67
50 50 51 51 50 50 50 51 51 51 52 57 61 65 64 64 67 69 64 64 70 67 64 59 60 60 65 55 45 50 51 59 50 47 39 45 45 42 44 41 50 63 63 64 48 51 65
50 50 49 49 50 50 50 50 50 51 52 56 60 67 62 65 64 66 72 69 70 70 59 63 60 60 59 51 51 53 48 54 54 59 51 48 45 40 45 36 37 65 62 53 60 66 65
49 50 49 50 50 50 50 50 51 51 51 55 55 68 70 69 61 67 66 67 68 73 72 65 67 64 65 60 54 53 43 42 52 48 62 51 57 54 55 54 63 67 65 67 67 64 64

GFSGBSN_sfc_temp_048.txt.gz
Temp
62 62 62 62 63 62 63 62 61 61 60 60 60 59 60 60 60 59 58 58 58 59 59 59 60 60 66 68 73 88 70 69 81 82 82 82 79 78 73 78 79 75 77 79 82 76 78
61 61 61 61 61 62 63 62 61 60 60 60 59 59 59 59 59 59 58 58 58 58 58 59 60 58 65 62 93 94 91 85 88 84 84 85 82 83 78 77 76 79 78 76 77 78 78
61 61 61 60 61 61 62 61 61 60 60 60 59 59 59 59 58 58 58 58 58 58 58 59 60 66 67 69 92 95 91 90 92 89 83 88 88 82 81 74 81 78 69 72 73 75 73
60 60 61 60 60 60 60 60 60 60 60 60 60 59 58 58 58 57 57 57 57 58 58 59 60 67 65 89 94 90 92 90 93 93 89 90 89 82 78 79 76 72 70 59 72 73 75
60 60 60 60 60 59 59 59 59 60 60 60 59 59 58 57 57 57 57 57 57 58 59 60 63 67 67 85 84 91 92 87 90 89 89 89 84 77 76 67 64 65 55 60 66 76 74
60 60 60 60 60 60 59 59 59 59 59 59 59 59 58 58 57 57 56 57 61 59 62 71 73 66 74 78 88 91 95 91 85 83 79 78 76 69 70 64 51 58 60 64 64 72 74
59 60 60 60 60 60 60 59 59 58 58 59 59 59 58 58 57 57 58 66 65 62 67 69 73 72 80 87 91 87 92 87 85 79 69 74 66 61 66 69 70 68 65 63 70 75 72
58 59 59 59 60 60 60 60 59 58 58 58 59 59 58 58 58 57 61 67 75 75 64 76 76 78 83 85 76 84 92 79 76 69 72 68 60 68 73 72 70 69 65 64 72 75 72
58 58 58 59 59 60 60 60 59 58 58 58 58 58 59 58 57 58 65 69 81 80 65 72 78 77 79 83 76 79 86 81 74 67 68 61 58 65 70 69 68 69 61 60 62 69 73
57 57 57 58 59 59 59 59 59 58 57 57 58 58 57 56 54 69 68 78 78 77 56 66 72 78 81 81 73 88 89 81 75 66 65 58 66 64 66 68 71 58 66 68 63 56 56
56 56 57 57 57 57 57 57 57 58 57 57 57 57 56 53 63 69 76 83 81 72 41 72 73 89 83 75 79 79 89 82 70 69 68 58 62 63 65 68 71 60 65 65 69 65 61
55 56 56 56 56 56 56 56 56 57 57 56 56 56 56 59 61 68 74 75 74 52 42 65 75 72 72 75 76 81 79 83 82 72 72 63 67 67 68 73 74 71 66 69 68 62 49
54 54 56 56 56 56 56 56 56 56 56 56 56 56 56 71 65 75 73 67 51 45 70 65 67 71 70 69 71 73 71 69 65 59 60 64 67 75 75 69 73 70 63 49 37 40 45
54 54 54 55 56 56 56 56 55 55 55 55 55 55 57 67 73 74 69 55 44 59 61 73 71 70 64 70 69 70 68 65 71 69 63 55 52 68 74 69 55 59 61 43 37 40 48
53 53 53 54 55 55 55 55 55 55 54 54 54 58 60 64 66 70 60 45 51 62 69 68 69 63 63 69 69 68 66 66 70 71 60 57 55 64 72 75 68 60 59 67 56 50 45
52 53 52 53 54 55 55 55 55 54 54 53 57 59 60 68 67 64 53 49 59 69 73 72 61 66 60 64 64 65 65 71 70 75 73 60 45 57 68 73 72 68 71 56 57 41 40
51 52 52 50 54 54 54 54 54 54 53 54 57 54 68 71 66 57 49 53 60 72 74 68 65 64 65 64 66 63 65 71 75 72 73 63 53 59 68 64 63 63 60 63 63 57 43
50 51 51 49 53 54 54 54 54 54 53 51 54 49 68 68 52 56 52 60 62 68 74 71 70 69 66 67 64 64 63 69 76 74 66 71 65 55 61 72 73 69 64 65 49 49 52
50 50 50 49 52 53 54 54 53 53 53 52 50 55 64 66 48 50 58 60 66 66 69 69 66 70 72 67 61 66 68 70 75 72 67 70 61 49 55 64 68 63 66 66 64 58 50
49 50 49 48 48 53 53 53 53 53 53 53 53 46 50 56 63 57 55 57 59 69 69 72 70 72 69 65 70 64 66 66 69 71 55 64 63 57 49 57 64 60 62 66 63 47 49
49 50 49 48 47 53 53 53 53 53 52 52 50 54 56 45 51 58 60 61 59 60 69 71 68 68 67 60 64 63 68 63 66 56 65 66 56 61 63 65 65 62 62 64 61 61 51
49 49 48 48 47 52 53 53 52 52 52 50 49 55 61 59 58 56 56 58 60 64 67 64 65 69 69 63 65 62 67 64 62 64 64 67 56 58 55 62 62 57 61 63 63 63 63
49 48 48 47 50 52 52 52 52 52 52 49 61 60 55 54 55 54 56 60 62 68 69 72 70 68 65 69 73 72 75 73 71 64 61 62 56 51 45 55 52 42 55 59 62 65 64
48 47 46 49 51 52 52 52 52 52 52 57 63 60 52 52 56 57 61 64 64 67 65 72 72 67 70 75 74 73 71 70 70 69 69 61 57 50 43 40 34 57 68 66 61 64 67
49 48 47 51 51 51 51 51 51 51 52 52 61 55 54 44 60 61 62 62 67 69 65 62 69 73 74 70 59 53 51 49 57 65 64 67 55 44 38 43 52 58 63 61 59 58 65
49 49 49 50 51 51 51 51 51 51 51 51 54 54 55 54 57 67 64 66 60 62 60 58 69 74 72 62 54 48 45 54 52 55 63 62 60 48 43 38 33 55 63 67 65 48 65
49 49 50 50 50 50 50 51 51 50 51 52 51 54 53 50 62 69 64 61 69 62 53 58 59 60 66 51 42 49 49 61 50 45 38 44 43 39 42 38 47 64 65 65 46 48 63
49 50 50 50 50 50 50 50 50 50 51 51 49 53 51 55 66 72 73 67 69 66 48 55 59 61 57 49 49 52 46 54 54 58 48 44 43 37 44 35 34 66 62 52 58 63 63
50 50 50 50 50 50 50 50 50 50 51 51 47 56 58 52 61 67 67 69 65 67 65 62 65 62 63 58 53 53 41 41 50 46 64 49 56 50 50 48 62 67 63 65 65 62 62

GFSGBSN_sfc_temp_051.txt.gz
Temp
61 61 61 62 62 62 62 62 61 61 60 60 60 59 59 60 59 59 58 58 58 58 58 59 59 59 57 58 63 79 68 68 73 76 73 73 69 68 62 65 67 65 69 72 71 65 64
60 60 60 60 61 61 62 62 61 60 60 60 59 59 59 59 59 59 58 57 57 57 58 59 59 59 54 54 80 80 79 76 78 75 74 74 72 74 69 67 66 69 68 68 68 67 66
60 60 60 60 60 60 61 61 60 60 60 60 59 59 59 59 58 58 58 57 57 57 58 59 59 60 59 59 77 77 80 81 80 78 74 77 77 71 70 65 70 67 62 65 67 62 59
60 60 60 59 59 59 59 60 60 60 60 60 60 59 58 58 57 57 57 57 57 57 58 58 59 57 53 78 75 78 79 80 84 83 81 81 79 72 68 69 67 62 62 53 65 65 64
59 59 60 59 59 59 59 59 59 60 60 60 59 59 58 57 57 57 56 56 56 57 58 58 54 55 56 79 74 80 81 80 82 82 78 86 74 66 67 58 56 59 51 55 59 66 62
59 59 59 59 59 59 59 59 58 59 59 59 59 59 58 57 57 56 55 56 58 56 59 64 65 54 65 70 79 82 83 83 78 76 72 69 64 58 59 55 46 51 52 56 56 65 65
59 59 59 59 59 59 59 59 59 58 58 59 59 59 58 58 57 57 54 57 55 53 57 58 62 64 72 80 84 78 82 80 76 70 58 65 56 51 57 62 63 61 59 55 60 66 63
58 59 59 59 59 59 59 59 58 57 59 58 58 59 58 58 57 57 52 53 62 63 54 67 67 69 75 78 71 76 82 69 67 58 63 58 51 61 64 64 63 62 59 57 62 67 63
57 57 58 59 59 59 59 59 58 57 57 58 58 58 58 58 57 52 53 59 69 66 52 64 71 69 71 76 69 71 75 72 64 61 59 53 58 67 64 60 58 59 57 55 56 60 61
57 56 57 58 58 58 59 59 58 58 57 57 57 57 57 55 52 57 55 66 66 62 44 58 66 71 74 75 67 79 80 73 66 59 59 55 64 63 60 58 61 53 64 61 59 55 46
56 56 56 57 57 57 57 57 57 57 57 57 56 57 56 55 51 54 65 67 66 61 31 64 68 80 76 69 71 71 81 73 63 60 60 57 60 59 57 60 65 57 62 62 60 53 51
55 55 55 56 56 56 56 56 56 56 56 56 56 56 55 54 52 57 62 64 62 45 34 60 69 66 65 68 69 73 72 73 72 64 64 60 65 62 61 67 66 66 60 59 53 51 40
54 54 55 55 56 56 56 56 56 55 56 56 55 56 55 63 55 65 61 57 42 37 62 60 61 65 63 62 64 66 64 60 55 50 50 57 61 65 64 58 62 60 52 38 35 34 35
54 53 53 54 55 55 56 56 55 55 55 55 55 55 54 60 60 59 58 51 37 51 54 67 64 64 58 63 62 64 60 54 61 59 51 48 46 57 63 61 56 55 52 38 33 32 37
52 53 53 53 54 55 55 55 55 55 55 54 54 54 53 56 59 57 52 41 41 53 62 62 64 57 56 62 63 60 57 56 60 63 50 49 47 61 66 66 63 53 47 57 45 39 32
50 52 52 52 53 54 54 55 55 55 54 53 52 52 53 59 59 54 48 44 51 62 65 63 55 59 52 57 58 56 56 63 62 65 64 54 45 55 60 64 63 59 62 45 44 34 32
51 50 51 51 51 52 53 55 54 54 54 54 53 47 57 62 59 50 41 46 53 64 66 61 59 57 58 56 59 56 57 63 66 65 64 57 50 49 58 54 54 55 52 53 52 43 33
50 50 50 50 50 52 52 54 54 54 53 52 51 43 59 62 45 44 42 51 54 60 64 62 63 60 57 59 59 56 56 61 67 67 60 60 49 40 50 60 64 61 55 54 35 41 40
49 50 50 50 50 51 51 53 54 53 53 51 47 50 59 60 40 40 50 52 57 58 59 61 60 62 60 57 54 57 58 62 66 63 59 58 50 38 45 53 58 55 58 58 54 44 41
49 49 50 50 49 51 49 53 54 53 53 52 48 42 49 52 52 49 47 49 51 60 59 63 63 63 59 55 59 57 55 61 62 60 53 59 54 47 38 47 53 51 56 57 52 34 39
48 49 49 49 50 51 49 53 54 53 53 51 47 48 52 43 45 49 51 52 50 51 60 63 60 60 57 51 55 56 56 57 60 55 58 56 47 50 53 56 56 56 54 55 54 51 41
48 48 48 48 49 49 49 51 53 53 53 48 45 47 51 49 52 48 49 50 52 56 58 57 56 60 60 54 56 55 58 55 54 55 53 57 45 48 45 54 53 48 53 53 54 55 53
48 48 48 49 49 47 47 47 53 53 52 45 52 52 51 48 48 45 47 52 54 59 61 64 61 58 55 60 62 60 63 62 60 54 51 51 47 39 35 46 45 35 47 51 53 54 52
48 48 49 49 49 48 47 47 52 53 52 50 55 52 48 41 48 48 53 55 56 57 56 64 64 57 62 65 62 59 57 59 62 57 59 49 47 37 32 34 26 47 58 59 55 55 55
48 48 49 49 49 48 47 48 51 52 52 51 52 52 47 36 51 52 53 55 57 59 57 61 62 61 64 60 47 44 40 43 50 57 55 54 42 34 31 30 42 50 54 53 50 48 55
48 49 49 48 48 48 48 49 52 52 52 50 51 52 50 46 46 58 54 57 53 54 53 51 57 60 57 51 40 37 34 44 44 49 54 54 47 36 31 28 24 43 55 60 57 37 54
48 48 47 47 48 48 50 51 52 51 52 50 50 53 48 45 51 57 53 53 60 54 49 49 49 52 54 36 37 34 35 51 38 37 35 33 32 30 26 26 35 54 58 58 37 38 53
48 48 48 47 49 50 50 50 51 51 51 51 49 50 48 47 50 56 62 59 60 53 43 49 48 48 46 39 39 35 33 41 41 48 41 37 33 28 32 31 30 57 55 44 47 52 53
48 48 47 48 49 50 50 50 50 51 51 52 45 52 53 46 48 55 58 58 66 61 51 48 50 52 51 45 41 39 37 35 39 33 51 37 43 37 40 37 50 54 52 53 53 51 51

GFSGBSN_sfc_temp_054.txt.gz
Temp
61 61 61 61 61 61 62 62 61 60 60 60 60 59 60 60 60 59 58 57 58 58 58 58 59 59 56 55 59 74 68 68 71 73 69 68 64 61 58 61 63 59 63 66 62 61 60
60 60 60 60 60 61 62 62 61 60 59 59 59 59 59 59 59 59 58 57 57 57 57 58 59 58 54 51 75 74 74 71 73 71 70 69 67 68 64 63 60 64 62 61 59 60 60
60 60 60 59 59 60 60 60 60 60 60 59 59 59 58 58 58 58 58 57 57 57 57 58 59 59 54 57 70 70 74 75 74 74 71 73 72 66 65 63 67 63 58 59 57 56 59
60 60 60 59 59 58 58 59 59 60 60 59 59 59 58 58 57 57 57 56 56 57 57 58 59 55 51 71 68 72 72 74 78 76 75 77 73 68 64 65 64 58 55 48 57 61 63
60 60 59 59 58 58 58 58 58 59 60 59 59 58 58 57 56 56 56 56 56 57 58 58 52 52 53 72 71 76 75 74 77 76 75 82 72 63 64 55 53 57 50 52 57 66 62
59 59 59 59 58 58 58 58 58 58 59 59 59 58 58 57 56 56 55 56 57 56 58 62 62 50 60 67 74 77 77 78 72 71 69 67 60 55 54 54 46 50 52 56 53 58 59
58 59 59 59 59 58 59 58 58 58 58 58 59 58 58 57 57 56 53 54 55 53 54 56 58 58 66 74 78 73 77 73 71 66 54 60 54 50 54 57 60 60 56 51 58 62 56
58 58 58 59 59 59 59 59 58 57 58 58 58 58 58 58 57 56 51 50 58 59 50 61 63 64 70 71 64 71 77 67 64 56 58 56 51 60 63 62 58 57 53 53 58 62 59
57 58 58 58 59 59 59 59 58 57 57 57 58 57 58 57 56 52 50 55 64 63 49 58 64 63 66 69 63 66 73 67 61 57 57 51 57 64 61 58 56 54 51 52 53 57 57
56 56 57 57 58 58 58 58 58 57 57 56 57 57 56 55 52 53 52 62 62 60 43 52 59 66 69 70 62 74 74 69 61 56 56 54 59 60 56 57 58 50 59 58 55 50 44
56 56 56 56 57 56 57 57 57 57 57 56 56 56 55 56 52 52 61 60 60 58 28 60 62 75 70 65 66 67 74 68 59 58 57 53 55 56 54 57 62 53 57 56 56 49 47
54 55 55 55 56 56 56 56 56 56 56 56 55 56 55 53 51 54 60 59 58 44 31 56 65 62 61 63 64 68 68 69 67 60 58 56 61 61 59 63 61 62 56 54 50 47 39
52 53 55 55 55 55 56 56 56 56 55 55 55 55 55 60 53 58 58 56 41 37 57 55 57 61 59 58 60 62 60 58 54 47 47 54 56 60 62 57 59 56 48 36 33 32 34
53 52 53 54 54 55 55 55 56 55 55 55 54 54 55 59 55 57 56 47 36 46 49 62 60 59 54 58 58 60 56 52 55 55 47 45 43 57 61 57 52 53 49 35 32 29 34
53 52 53 53 54 54 55 55 55 55 54 54 54 53 54 55 56 56 50 40 38 47 58 57 58 53 52 57 58 56 53 53 57 57 48 45 46 56 60 61 60 52 46 53 42 35 30
52 52 51 53 53 54 53 54 55 55 54 54 51 51 52 57 60 55 46 42 47 57 60 59 50 54 48 53 53 53 52 58 58 61 59 53 44 54 56 60 59 56 58 44 41 33 31
51 51 51 50 53 53 53 53 54 55 54 53 50 47 56 60 58 48 41 43 50 59 60 55 53 53 54 52 54 51 54 59 61 61 59 54 49 48 54 52 51 51 49 49 48 40 33
51 50 51 50 51 52 53 53 54 54 54 51 49 42 56 59 44 42 43 49 52 55 59 57 57 55 55 54 53 52 53 58 62 61 55 56 47 40 50 57 59 53 51 51 35 39 36
50 50 51 51 49 51 51 51 53 54 54 48 45 48 54 58 38 38 46 49 52 53 55 56 55 59 59 54 49 54 55 59 60 62 56 57 46 36 43 51 55 50 54 54 48 41 38
50 50 50 51 49 49 51 50 51 53 54 49 47 40 46 50 51 45 43 45 45 55 54 56 56 57 55 52 56 52 53 58 57 59 54 56 49 44 38 45 50 47 52 53 48 33 37
49 50 50 50 50 50 51 51 49 52 53 49 46 44 47 40 43 47 47 47 45 46 55 58 55 55 52 49 51 51 53 54 57 55 56 54 47 49 50 52 53 50 50 50 49 47 40
49 49 49 49 50 50 51 51 50 51 53 46 44 42 48 44 48 45 45 45 46 50 53 53 52 55 55 51 53 51 54 52 51 53 53 54 45 44 43 48 49 45 49 49 50 51 49
49 49 49 49 49 50 50 50 50 49 51 44 49 48 49 47 45 43 44 47 49 54 55 59 57 55 53 56 58 59 59 59 58 53 49 49 44 37 36 42 42 34 45 49 51 50 51
49 49 49 49 49 50 50 50 50 49 51 49 50 50 46 39 46 46 48 50 51 54 51 58 60 54 59 61 58 56 55 55 55 50 54 45 42 34 31 32 26 46 54 53 49 49 50
48 48 48 48 49 49 48 49 49 47 51 52 52 49 45 38 47 49 49 50 52 55 53 56 60 60 61 56 46 43 38 42 46 51 51 51 40 33 30 30 39 47 52 50 47 44 50
48 48 48 48 48 48 47 46 46 47 47 52 51 51 48 41 43 54 48 51 48 49 50 52 56 56 55 47 38 36 34 42 41 47 50 48 43 37 30 28 25 42 51 56 53 36 50
48 48 48 48 48 48 48 47 47 48 48 51 49 50 47 44 47 53 49 48 55 51 45 49 51 49 52 36 34 33 35 47 37 37 35 33 31 30 24 26 33 48 54 54 38 38 50
48 48 48 48 48 48 48 47 48 48 51 51 47 51 47 45 47 52 51 51 55 55 46 47 47 46 42 36 37 37 33 39 38 44 40 38 32 27 29 26 30 52 52 44 45 48 49
48 48 48 48 48 47 47 48 48 51 52 52 45 51 51 44 46 52 53 54 52 56 54 47 51 48 47 42 42 39 36 34 36 33 47 37 41 36 38 36 47 49 49 49 50 49 48

GFSGBSN_sfc_temp_057.txt.gz
Temp
61 61 61 60 60 60 61 61 61 60 60 60 60 60 60 60 60 59 58 58 58 58 58 58 59 59 55 53 58 71 69 68 67 68 67 66 62 59 54 58 58 55 59 60 59 58 56
60 60 60 60 60 60 61 60 60 60 59 59 59 59 59 59 59 59 58 58 57 57 57 58 58 58 52 50 71 72 72 70 70 66 65 66 66 65 60 59 57 58 58 57 57 58 56
60 60 59 59 59 59 59 59 59 59 59 59 59 58 58 59 58 58 58 57 57 57 57 58 58 58 51 56 66 67 69 70 71 70 67 68 68 64 62 60 62 60 53 55 55 55 54
59 60 60 59 58 58 58 58 58 59 59 59 59 58 58 58 58 57 57 56 56 57 57 58 58 53 50 68 64 67 67 71 73 73 71 72 71 66 61 63 60 56 52 45 56 56 59
59 59 60 59 58 58 58 58 58 58 59 59 59 58 58 57 56 56 56 56 56 57 57 58 51 50 51 69 66 73 73 72 73 72 70 77 68 60 61 54 49 50 45 46 54 60 59
58 58 59 59 59 58 58 58 57 57 58 58 58 58 58 57 56 56 55 56 57 56 57 60 60 49 59 64 70 74 71 74 69 68 66 65 58 53 52 49 41 45 47 51 49 57 58
58 58 58 58 58 58 58 58 57 57 57 57 58 58 58 57 57 56 53 52 53 51 53 54 56 56 62 69 72 69 73 70 67 64 54 57 52 48 53 56 57 54 52 50 54 60 57
57 58 58 58 58 58 59 58 58 57 57 57 57 58 57 57 57 56 51 48 55 56 48 58 60 60 66 67 61 67 72 64 61 54 56 54 50 58 59 57 57 53 49 50 55 58 55
55 56 58 58 58 58 58 58 58 57 57 57 57 57 57 57 56 52 50 53 62 60 47 55 60 59 62 65 59 61 69 64 58 54 54 49 54 60 58 54 54 51 50 49 50 54 53
55 54 55 57 58 57 57 58 58 57 57 56 56 56 56 56 52 53 51 59 59 56 41 49 55 60 65 65 60 69 71 66 58 55 54 52 57 57 53 54 55 47 56 54 51 49 42
55 55 52 56 57 56 56 56 57 57 57 57 56 56 55 56 53 52 58 59 57 56 28 56 58 70 65 63 62 64 70 65 56 56 55 52 54 53 53 55 58 52 55 53 52 48 44
54 55 55 52 55 55 55 56 56 56 56 56 56 55 55 53 51 53 57 58 57 40 30 52 61 58 57 59 60 63 65 66 64 57 55 54 59 58 56 59 58 58 53 51 47 45 37
53 54 54 53 53 55 56 56 55 56 56 55 55 55 54 59 52 55 56 55 41 33 54 51 54 57 55 54 56 58 58 54 51 46 45 51 55 57 59 53 56 54 46 35 33 31 34
53 53 53 54 53 54 55 55 55 55 55 55 54 54 55 59 54 56 56 48 33 43 45 57 56 55 51 55 55 56 53 50 53 52 44 44 42 54 58 54 51 48 47 35 32 29 33
53 53 53 53 53 53 54 55 54 54 55 55 53 49 52 56 57 55 50 39 37 45 54 53 54 49 48 54 55 53 51 50 54 55 47 43 45 55 57 58 57 49 44 49 38 35 30
53 53 53 53 53 52 53 54 55 54 54 54 48 46 51 58 58 53 44 41 45 53 56 54 48 51 45 49 50 50 49 55 55 57 57 51 43 52 55 57 57 53 55 42 38 32 30
53 53 52 52 52 52 52 53 54 54 54 54 45 42 53 58 55 46 39 41 48 57 57 51 49 49 51 49 51 48 51 56 57 56 56 51 48 46 52 50 50 48 46 46 45 37 32
52 52 52 52 52 52 53 53 53 53 54 52 43 38 53 57 42 41 40 46 51 55 56 53 53 52 51 52 49 50 51 56 60 56 53 53 46 39 49 53 55 52 50 47 34 37 35
52 52 51 51 51 52 51 53 53 52 53 48 40 45 53 54 39 37 45 47 51 52 52 52 51 53 53 50 47 51 52 58 59 57 52 53 43 36 43 48 50 48 50 49 45 38 35
51 51 51 51 51 51 49 52 53 53 53 49 42 39 45 48 51 45 41 42 44 53 51 52 51 53 50 49 54 50 51 55 56 58 52 55 46 44 39 45 50 47 48 49 46 32 36
51 51 51 51 51 51 50 50 52 52 52 48 43 42 45 39 42 45 46 45 43 45 51 52 48 49 48 44 49 49 51 53 55 52 53 52 45 46 47 48 50 49 50 48 46 44 39
50 50 50 50 50 50 51 51 51 51 51 44 40 43 44 41 47 45 44 43 44 47 49 47 48 52 52 48 51 48 52 50 51 52 50 51 42 43 40 45 47 44 49 48 47 47 46
50 49 49 50 50 49 50 51 50 51 47 43 48 48 45 43 43 43 43 44 46 50 51 54 52 52 48 52 56 57 57 56 56 52 48 47 42 36 36 40 40 35 42 47 48 49 48
49 49 49 50 50 50 50 50 50 50 48 44 50 48 44 38 43 44 46 49 46 49 48 54 55 50 55 60 58 54 51 52 53 50 51 44 40 34 30 32 25 45 49 51 47 46 47
48 48 49 49 49 49 50 50 50 50 49 42 47 46 44 36 44 46 46 47 49 51 50 52 54 58 58 54 46 42 37 40 44 48 48 48 38 31 30 30 37 45 47 47 46 43 47
48 48 49 49 49 49 49 50 50 50 50 44 45 49 45 41 43 50 46 48 44 45 46 50 54 55 54 46 38 37 34 40 40 44 48 46 41 36 28 28 26 41 49 54 50 35 49
47 48 48 49 49 49 49 49 49 50 49 45 46 49 45 41 45 49 45 45 50 48 44 46 48 48 51 35 34 33 36 45 36 36 35 32 31 31 24 26 34 46 52 52 38 39 48
47 48 48 48 48 48 48 49 49 50 50 45 46 49 46 43 46 48 49 48 48 51 41 45 47 45 40 36 37 34 32 38 37 42 38 37 32 27 27 24 31 50 48 43 45 44 48
48 48 48 47 47 48 48 48 47 47 48 47 44 49 51 44 44 48 49 51 50 52 52 46 46 46 46 40 38 36 34 32 35 33 45 39 40 36 38 37 46 47 49 47 48 47 46

GFSGBSN_sfc_temp_060.txt.gz
Temp
60 60 60 60 60 60 60 61 60 59 59 59 59 60 60 60 60 59 58 58 58 58 58 58 59 59 55 52 57 67 68 66 65 66 63 62 60 57 53 54 54 51 55 57 56 56 55
59 59 59 60 60 60 60 60 59 59 59 59 59 59 59 59 59 59 58 58 57 57 57 58 59 58 51 49 68 69 67 67 67 65 62 63 62 63 57 55 54 55 54 53 54 53 55
60 59 59 59 59 59 59 58 58 58 58 59 59 58 59 59 59 58 58 57 57 57 57 58 58 57 50 55 63 64 66 67 68 68 64 66 66 61 60 55 59 56 52 55 52 51 53
59 59 59 59 59 58 59 58 58 58 58 58 59 58 58 58 57 57 57 56 56 57 57 57 58 52 48 66 62 65 64 68 69 69 68 69 67 62 58 59 58 52 50 45 51 54 54
59 59 59 59 58 58 58 59 58 58 58 58 58 58 57 57 57 56 56 56 56 57 57 57 51 49 50 67 63 69 70 69 70 69 67 75 65 57 59 50 46 48 41 44 51 57 53
57 59 59 59 58 58 58 58 57 57 57 57 57 57 57 57 57 55 55 56 57 56 56 58 58 48 57 61 66 70 68 70 67 65 63 61 55 51 49 47 39 42 44 50 48 56 53
57 57 56 59 58 58 58 58 58 57 57 57 57 57 57 57 57 56 53 52 52 50 53 53 54 53 59 66 68 66 68 68 65 62 52 55 50 45 49 52 54 52 51 49 52 59 52
56 57 57 56 58 59 58 58 58 57 57 57 57 57 57 57 57 56 52 48 54 54 47 56 57 57 62 64 58 64 69 62 59 52 53 51 46 54 55 54 53 51 50 48 53 54 54
55 56 57 56 56 58 58 58 57 57 57 56 57 57 56 56 56 54 49 54 60 57 46 53 57 57 59 63 57 59 66 61 56 52 51 48 53 57 56 52 51 49 48 46 48 50 51
55 55 55 56 56 56 57 58 57 57 57 56 56 56 55 55 52 53 50 58 58 55 40 48 53 57 61 61 57 66 68 64 55 54 51 50 54 55 52 51 52 45 54 53 50 46 41
55 55 55 55 56 55 54 57 57 57 57 56 56 56 55 54 54 51 56 59 57 55 28 54 54 66 61 59 60 61 66 63 55 54 53 51 50 50 49 52 55 50 54 52 51 45 42
55 54 54 54 55 55 54 55 56 56 55 56 55 55 55 54 53 55 57 57 55 41 28 49 57 55 54 56 57 59 61 63 61 54 51 52 55 55 54 56 56 55 50 48 45 43 35
54 54 54 54 54 54 54 53 55 55 55 55 55 55 54 58 52 55 57 53 41 31 51 48 51 54 51 51 54 56 54 52 49 44 42 48 51 54 57 50 53 50 44 34 32 31 34
54 54 54 54 53 54 54 53 54 55 55 54 55 53 53 56 59 57 55 46 33 42 44 54 54 52 48 52 52 53 51 48 50 49 42 42 40 52 56 53 48 46 46 35 31 29 32
54 54 53 53 53 53 54 54 53 55 55 54 54 47 48 52 57 57 49 37 36 43 51 51 52 47 46 52 52 50 48 47 52 52 46 40 43 51 54 55 54 46 42 47 37 33 29
54 54 53 53 53 53 53 53 53 54 54 53 48 44 46 55 57 51 42 40 45 51 54 53 45 49 43 46 48 48 46 52 52 55 54 49 41 49 52 54 53 50 53 41 37 32 30
53 53 53 53 52 52 53 53 53 53 54 53 46 41 47 56 54 46 37 40 49 55 55 49 46 46 48 46 48 45 47 52 55 53 54 50 46 43 49 48 48 46 44 43 43 36 32
52 53 53 52 52 52 52 53 53 53 54 50 44 35 50 55 42 44 41 43 50 52 54 52 50 49 48 48 46 46 48 54 57 55 51 52 44 38 46 50 53 50 47 45 34 36 33
52 52 53 52 52 52 52 52 53 52 54 46 40 41 52 53 36 39 46 46 48 50 50 49 48 50 50 47 44 48 49 56 55 55 51 51 42 35 40 45 47 45 47 46 42 37 34
52 52 52 52 52 52 52 52 52 52 53 47 40 32 43 46 49 44 43 43 42 51 50 50 48 50 48 46 50 47 49 53 55 56 52 54 44 41 38 42 46 42 46 46 45 32 36
52 51 51 51 51 52 52 52 52 52 52 46 40 37 43 37 39 43 46 46 41 42 50 49 45 47 46 41 45 47 50 51 53 51 50 51 43 43 45 46 48 47 47 44 43 43 38
52 51 51 51 51 51 51 51 52 52 52 44 36 38 43 40 44 43 44 43 43 44 45 44 44 48 48 44 48 47 50 48 48 49 48 48 43 42 39 42 44 42 47 46 45 44 43
51 51 50 51 50 50 51 51 51 52 51 39 42 43 43 43 43 40 41 44 44 48 49 50 50 49 46 50 55 54 54 54 52 47 45 45 41 37 36 38 40 34 41 46 47 46 46
50 51 50 50 50 50 50 50 51 52 50 43 42 42 40 35 41 42 44 48 45 47 45 51 51 47 53 58 55 53 50 50 50 46 49 41 39 34 30 31 25 44 46 48 46 46 46
50 51 50 50 49 49 50 50 50 51 52 44 43 41 41 34 42 44 44 46 49 49 48 50 52 57 57 55 45 41 36 40 42 45 45 46 37 32 31 30 37 43 45 45 44 44 46
50 50 50 49 49 49 50 50 50 50 51 46 44 43 43 39 39 48 45 46 44 42 43 47 54 54 54 43 39 35 33 38 38 41 46 44 40 36 28 28 26 40 47 50 49 37 47
50 50 49 49 48 49 49 50 50 50 50 46 43 45 41 38 45 48 43 43 49 44 39 44 48 46 50 32 30 31 35 43 35 36 35 32 31 31 24 26 34 45 48 50 37 39 46
49 48 48 48 48 49 49 50 50 50 49 44 42 46 43 41 45 46 48 45 48 48 38 42 46 43 37 35 34 32 30 38 37 41 39 38 34 29 27 25 31 49 47 43 45 42 45
47 47 48 48 48 49 49 50 50 50 49 47 39 46 49 44 43 47 47 49 55 55 50 45 45 44 44 40 36 34 32 32 37 34 44 37 42 37 40 38 46 47 47 46 47 46 46

GFSGBSN_sfc_temp_063.txt.gz
Temp
60 60 60 60 60 60 60 60 60 59 59 59 59 59 60 60 60 60 59 58 58 58 58 59 59 59 59 57 61 71 66 66 68 70 70 69 67 66 63 64 63 60 62 62 62 62 62
60 60 60 60 60 60 60 60 59 58 58 58 58 58 59 59 59 59 59 58 57 57 58 58 59 58 57 53 72 71 69 69 71 72 70 70 70 70 66 64 63 62 60 60 62 61 62
58 59 60 59 59 59 59 59 58 58 58 57 58 58 58 59 59 59 58 58 57 57 57 58 58 58 53 58 71 69 68 72 72 73 71 72 73 70 68 64 65 63 60 62 61 62 62
59 58 58 59 58 58 58 58 58 58 58 58 58 57 57 57 57 57 57 57 56 57 57 57 58 56 53 68 68 67 69 71 72 73 74 75 74 70 68 68 63 61 59 56 62 62 61
58 58 58 57 59 58 58 58 58 58 59 57 57 57 57 57 57 56 56 56 57 57 57 57 55 55 54 69 67 73 73 72 72 72 72 76 73 66 65 59 57 57 54 53 58 63 61
58 58 58 58 57 58 58 58 58 57 58 58 57 57 56 56 56 56 55 56 57 57 57 59 59 53 60 65 70 72 72 73 73 70 69 68 63 61 59 59 49 52 52 55 57 61 60
58 58 57 57 58 57 57 59 57 57 57 58 57 57 56 56 57 56 56 56 55 53 53 54 56 56 60 68 70 70 72 71 71 68 60 62 59 55 59 58 58 57 56 55 60 62 59
57 57 57 57 57 58 57 57 57 57 57 57 57 56 56 56 56 55 55 52 55 56 48 57 57 58 62 67 61 66 73 67 64 59 60 59 54 60 60 59 59 57 55 56 59 61 60
56 56 57 57 57 57 57 57 57 57 57 57 57 56 56 55 56 54 54 55 61 60 47 54 57 57 60 64 59 61 68 65 61 56 57 54 59 60 59 57 56 56 54 53 55 56 57
56 55 55 56 56 56 57 57 56 57 56 56 56 56 55 55 52 55 52 60 59 59 42 49 53 58 60 62 58 68 69 68 62 58 56 56 60 57 56 56 57 51 59 57 55 53 50
55 55 55 55 55 55 55 55 56 55 56 56 56 56 55 55 52 51 57 59 59 56 32 55 53 67 62 60 63 61 69 67 58 57 58 57 56 55 54 56 59 56 58 56 55 53 52
54 55 55 55 55 54 54 55 55 55 55 56 55 55 55 53 53 56 58 59 57 42 31 50 56 53 54 58 61 62 65 68 65 58 58 58 62 60 60 60 60 59 57 54 52 51 45
54 54 54 54 54 54 54 54 55 54 54 55 55 55 54 57 51 57 58 55 41 34 52 49 50 54 53 53 56 58 57 56 55 49 49 55 57 61 62 58 60 58 52 44 41 42 42
53 53 54 54 54 54 54 54 54 53 54 54 54 53 53 55 58 57 55 44 33 43 44 55 55 52 50 54 55 55 53 53 55 55 49 48 46 57 60 60 56 54 53 44 37 38 43
53 53 53 54 54 54 54 53 53 53 53 53 53 50 49 51 56 55 47 36 39 44 50 51 53 48 48 52 54 54 51 54 56 56 51 45 48 58 59 61 61 53 50 54 42 39 39
53 53 53 53 53 53 53 53 53 53 53 53 47 46 48 52 56 50 42 40 45 52 54 53 46 50 45 48 49 51 48 54 55 57 60 53 47 54 57 61 58 57 57 47 45 37 35
53 53 53 53 53 53 53 53 53 53 53 53 45 40 50 53 53 44 36 41 48 54 55 50 48 48 49 47 50 48 49 55 60 55 59 54 52 50 55 53 53 52 51 49 50 45 40
52 52 53 53 53 53 53 53 53 53 53 50 42 34 48 53 38 41 39 46 50 52 55 52 52 49 49 50 48 48 50 54 57 58 54 56 50 43 51 57 58 56 53 52 44 42 41
52 52 52 52 52 53 52 52 52 52 53 46 38 39 48 50 33 37 44 46 51 49 51 50 49 51 53 50 47 49 51 57 56 57 54 54 48 43 46 52 55 53 53 51 48 44 41
52 52 52 52 52 52 52 51 52 52 53 47 38 32 40 42 47 42 40 43 43 52 51 52 50 52 51 49 51 48 50 56 55 57 51 56 48 47 44 49 52 47 50 51 51 42 44
51 52 52 51 52 52 51 51 51 52 53 46 39 35 41 33 36 41 44 45 43 43 51 51 48 49 49 46 48 49 53 53 55 51 54 56 48 48 50 51 51 51 51 49 49 51 46
51 51 51 51 51 51 51 51 51 52 52 42 35 36 40 42 42 40 42 42 43 46 47 46 46 48 51 46 50 48 53 52 52 52 52 52 48 47 46 48 50 49 52 50 50 51 50
51 51 51 51 51 51 51 50 51 51 51 41 42 44 42 42 40 37 38 43 44 48 49 51 50 47 46 51 54 56 57 56 56 54 49 48 45 42 42 45 46 39 46 50 51 52 53
50 51 50 51 51 51 50 50 50 51 51 45 44 42 39 36 40 39 42 45 45 47 44 50 51 48 53 58 57 56 54 53 52 51 53 45 44 41 37 37 32 51 52 54 52 53 54
50 50 50 51 51 51 50 50 50 51 52 45 46 43 40 35 42 43 43 43 48 49 47 49 52 54 57 54 44 44 40 43 44 48 48 50 42 37 36 38 43 48 50 50 50 53 55
49 50 50 51 49 50 49 49 50 51 52 49 42 44 43 37 40 47 44 45 43 43 43 47 54 56 53 45 40 37 35 41 41 43 47 45 45 42 35 35 34 47 53 54 57 45 56
49 50 50 50 49 49 49 49 50 51 51 49 42 45 42 38 43 47 44 44 50 45 41 44 49 48 53 37 35 35 37 45 39 37 37 37 37 37 33 36 41 50 53 55 44 49 53
48 49 50 50 49 49 49 49 50 50 51 49 42 46 42 40 42 46 49 47 49 48 40 43 46 46 40 37 36 37 35 42 42 44 40 41 38 35 34 34 37 52 52 48 54 52 53
49 49 50 50 49 48 48 48 49 50 50 50 41 46 46 40 43 48 48 51 58 57 50 48 47 46 47 41 39 38 35 35 42 40 46 39 45 42 44 45 52 53 56 55 53 55 51

GFSGBSN_sfc_temp_066.txt.gz
Temp
59 60 60 60 61 60 61 60 60 59 58 58 58 58 59 60 60 60 59 59 59 59 59 59 59 59 68 69 73 79 68 68 78 80 80 78 76 75 71 73 73 69 72 71 71 71 72
59 59 58 59 60 61 61 60 59 59 58 58 57 57 58 59 59 59 59 58 58 58 58 59 59 58 66 62 81 81 80 79 82 81 80 80 78 79 74 73 71 72 70 71 72 72 73
58 59 59 58 58 59 59 59 59 59 59 58 58 57 57 58 58 58 58 58 57 57 58 58 59 65 62 67 82 83 78 81 84 83 79 83 82 77 76 71 74 72 69 70 72 73 72
59 59 58 58 58 57 58 58 59 59 59 59 58 57 57 57 57 57 57 57 57 57 58 58 58 65 63 78 82 77 83 81 84 84 81 83 83 78 75 76 72 70 70 64 71 71 71
59 58 58 58 58 58 57 58 58 59 59 58 58 57 56 56 56 56 56 56 57 58 58 58 62 63 64 74 73 82 84 80 82 81 81 81 80 75 74 69 66 68 62 62 65 73 71
59 58 58 58 58 58 58 56 58 58 58 58 58 58 57 56 56 56 55 56 60 58 61 65 66 59 69 71 77 80 84 84 79 77 74 75 75 70 71 68 57 60 61 63 63 69 69
58 58 58 58 58 57 58 58 56 57 57 57 57 58 57 56 56 56 58 69 64 60 60 64 65 66 69 77 77 78 81 78 80 76 68 72 67 63 68 70 68 67 64 62 67 71 68
56 57 57 58 58 58 58 58 57 56 57 57 57 57 57 56 56 56 58 62 62 61 54 66 65 67 72 73 67 75 81 74 71 67 70 67 62 70 70 69 66 66 62 62 67 70 68
56 56 56 57 57 57 57 57 57 57 56 57 57 57 57 56 55 56 59 63 66 67 56 61 66 66 69 70 67 72 76 76 71 67 67 64 67 70 68 66 63 65 62 62 62 68 69
55 55 55 56 57 57 57 57 57 57 56 56 56 56 56 55 53 62 59 66 68 66 50 57 59 65 68 71 64 79 80 76 70 66 69 67 72 66 65 64 66 60 68 66 63 61 58
55 55 55 55 56 55 55 56 56 56 56 55 55 56 55 55 54 58 64 67 64 62 39 62 59 74 70 68 71 70 81 74 68 66 67 64 65 63 63 65 68 63 66 64 64 62 61
54 55 55 55 55 55 55 55 55 55 55 55 55 55 55 57 57 62 66 65 61 47 37 56 61 59 59 64 67 72 71 76 78 69 69 70 71 69 68 67 69 68 64 63 63 61 52
53 53 54 54 54 54 55 54 54 54 55 54 54 55 55 63 56 66 65 59 45 39 58 55 55 58 60 60 62 66 65 63 62 55 57 64 66 70 69 65 67 66 61 52 47 49 49
53 53 53 54 54 54 54 54 53 54 54 54 54 53 55 59 64 61 57 44 36 51 53 60 58 56 55 62 63 64 63 60 68 66 61 56 53 65 70 67 64 64 63 53 42 44 51
53 53 53 53 53 54 54 54 53 53 53 53 53 52 50 54 61 55 47 36 43 52 57 55 56 52 52 60 63 62 62 61 66 68 58 57 57 68 68 69 70 60 57 64 52 49 49
53 53 53 53 53 53 53 54 53 53 53 53 51 47 49 55 58 49 41 41 50 61 59 57 51 57 48 54 56 59 59 65 65 69 72 63 55 65 65 68 66 65 68 54 57 42 41
52 53 53 53 53 53 53 53 53 53 53 53 48 39 54 56 55 42 35 43 53 62 61 55 54 51 54 53 57 57 59 62 68 66 70 68 62 57 62 61 62 60 59 60 61 56 46
52 52 52 53 53 53 53 53 53 52 53 50 46 34 57 58 37 39 38 50 53 58 61 57 56 54 53 55 55 58 58 63 68 70 61 68 62 54 59 66 67 68 64 63 52 50 53
52 52 52 52 52 53 53 53 53 52 52 50 39 39 54 55 32 33 45 48 54 54 57 56 54 56 57 55 51 58 60 67 68 67 64 66 59 50 53 59 62 61 64 64 62 57 52
52 51 52 52 52 52 52 52 52 52 52 52 39 32 40 42 52 43 42 45 46 57 56 59 56 58 54 53 58 54 57 59 64 68 57 63 62 56 50 57 63 57 61 63 61 52 53
52 51 51 52 52 52 52 52 52 51 51 48 39 37 45 32 37 46 46 48 45 47 55 58 55 54 53 50 52 53 57 57 59 54 64 65 57 61 62 64 65 62 62 63 59 60 54
51 51 51 50 50 52 52 52 51 51 51 43 36 41 49 44 44 44 45 45 46 50 53 51 52 55 55 50 53 50 56 57 59 59 61 65 57 60 55 62 61 58 62 63 62 63 63
51 51 51 51 51 52 52 51 51 50 50 41 47 54 52 46 43 42 44 45 48 53 56 59 57 54 50 54 58 59 60 60 61 59 58 59 58 54 50 56 55 44 54 61 62 64 63
50 51 51 51 51 52 52 51 50 50 50 48 48 51 44 41 44 41 45 49 49 53 51 57 59 54 59 61 61 61 59 59 61 61 63 56 56 55 48 43 36 59 63 67 64 66 69
49 50 50 51 51 51 51 50 50 50 50 52 51 51 48 38 48 47 45 47 51 54 54 56 58 62 63 58 49 43 45 50 55 58 58 61 56 48 42 46 55 58 56 59 59 61 70
50 50 49 50 50 50 51 50 49 50 50 52 53 57 50 44 45 52 46 48 48 50 50 55 63 62 59 51 48 40 33 47 47 49 54 55 55 52 44 43 37 55 65 68 67 53 71
49 49 50 49 50 50 50 50 49 50 50 52 51 55 51 44 52 53 45 44 54 53 50 54 54 55 60 46 40 41 39 49 44 43 40 44 45 43 45 43 52 63 61 66 50 55 71
47 48 49 49 50 50 49 49 49 50 50 52 49 54 51 45 52 56 55 50 53 55 48 54 53 53 50 44 44 44 41 46 46 52 47 46 44 41 44 39 39 59 58 57 67 66 70
49 49 49 49 50 50 50 49 49 49 50 52 43 51 56 48 47 52 51 57 61 63 58 56 56 55 55 50 49 51 41 42 48 41 56 44 53 52 52 55 60 63 68 70 68 70 65

GFSGBSN_sfc_temp_069.txt.gz
Temp
60 60 60 59 59 61 61 61 60 60 59 59 58 58 59 59 59 59 59 58 59 59 59 59 60 59 68 74 78 84 68 69 81 83 83 83 79 79 75 78 78 75 77 79 79 78 79
59 59 59 59 59 59 60 60 60 59 59 59 59 58 58 58 58 58 58 58 58 58 59 59 59 58 70 64 88 89 87 83 87 84 84 86 83 84 78 77 76 78 77 78 79 78 79
60 59 59 59 59 59 58 58 59 59 59 59 59 58 58 58 58 58 58 58 58 58 58 59 59 67 67 69 90 91 86 86 90 88 84 88 87 81 82 76 81 79 72 71 69 79 76
59 59 59 58 58 58 58 58 58 59 59 59 59 58 58 57 57 56 57 57 57 58 58 59 59 70 64 87 91 86 88 86 90 91 88 89 88 82 79 82 77 73 74 65 61 73 76
58 59 59 58 58 58 57 57 57 58 59 58 59 58 58 57 56 56 56 56 57 58 59 59 65 68 67 75 77 85 88 83 86 87 87 87 84 78 80 71 68 72 63 64 68 77 76
58 58 59 58 58 58 58 57 57 57 57 58 58 58 58 58 56 56 55 56 61 59 63 72 72 63 72 75 83 86 89 87 83 82 79 78 77 72 74 70 58 61 65 66 66 72 74
58 58 58 58 58 58 58 58 57 57 56 57 58 58 58 57 57 56 59 71 67 64 68 67 71 70 75 82 84 82 88 83 83 78 68 76 69 65 71 74 73 70 68 66 71 75 70
57 57 57 57 58 58 58 58 57 56 57 57 57 57 57 57 56 56 62 65 69 66 59 72 71 72 77 79 72 80 87 75 73 67 73 72 64 74 76 74 71 69 66 66 71 74 71
56 56 56 56 57 57 58 58 57 56 56 56 56 57 57 56 56 58 64 68 75 71 59 67 74 71 73 77 70 76 81 78 72 68 70 66 71 77 71 70 67 68 65 66 65 72 74
55 55 55 56 56 56 57 57 57 57 56 56 56 56 56 56 53 67 65 74 75 71 54 63 65 71 75 76 67 82 85 79 75 68 72 70 76 71 69 67 70 63 73 69 67 65 51
55 55 55 55 55 55 55 56 56 56 56 56 55 55 55 54 56 61 70 74 73 65 40 68 68 80 77 70 77 75 86 79 70 70 71 67 70 68 66 68 72 66 71 68 68 65 65
54 54 54 55 54 54 55 55 55 55 55 55 55 55 55 57 59 60 67 68 67 51 40 61 67 63 63 67 73 79 77 81 81 72 73 72 79 75 72 74 73 74 68 68 68 65 54
54 54 54 54 54 54 54 54 55 54 54 55 54 54 56 63 53 68 63 57 48 43 64 61 60 63 61 62 65 71 68 67 64 58 59 67 69 75 75 68 72 69 64 53 49 50 50
53 53 53 53 54 54 54 54 54 54 54 54 54 53 57 61 66 61 53 44 40 55 57 65 63 63 56 64 63 66 66 63 69 68 63 58 55 69 73 70 65 66 65 53 43 45 52
53 53 53 53 53 54 54 54 54 54 54 53 53 57 58 61 63 58 43 35 45 56 65 63 62 56 54 62 62 64 64 64 68 71 61 59 60 75 74 75 73 66 61 70 58 58 51
53 53 53 53 53 53 53 53 54 54 53 53 49 54 55 62 62 52 38 37 51 64 67 65 55 60 54 56 57 60 62 70 68 73 75 67 58 70 72 74 74 69 72 57 59 45 43
52 52 52 52 52 52 53 53 53 53 53 53 46 42 58 62 56 43 33 43 52 65 68 62 58 59 59 58 59 56 61 69 72 71 74 71 64 63 68 64 64 64 62 64 65 59 48
52 52 52 52 52 52 53 53 53 53 53 50 43 36 57 59 36 39 36 48 53 58 66 64 62 62 60 60 58 56 53 67 73 74 66 70 65 57 61 72 75 72 65 65 54 53 57
51 52 52 52 52 52 52 53 53 53 52 46 39 41 57 56 33 36 46 48 53 56 59 61 59 62 64 58 54 59 59 67 72 71 67 69 61 52 57 64 68 64 68 69 66 64 55
51 51 52 52 52 52 52 52 53 52 52 47 39 34 41 44 52 46 45 46 47 56 56 62 61 64 60 57 61 56 58 64 67 71 60 66 64 58 51 58 65 59 64 67 65 54 55
51 51 52 52 52 52 52 52 52 52 51 46 39 40 47 33 37 47 49 50 47 48 56 58 57 60 58 54 56 54 58 61 62 62 67 67 58 62 64 67 68 66 64 65 62 63 56
51 51 51 51 51 51 52 52 52 52 51 43 35 46 49 49 45 45 46 47 48 52 55 52 53 59 61 57 58 53 56 58 59 65 64 68 57 61 58 65 66 62 66 66 66 66 66
51 51 52 51 52 52 51 52 52 52 50 42 44 57 53 45 44 43 46 47 49 55 57 60 59 58 57 61 63 61 60 59 61 61 61 62 59 57 50 62 61 52 60 65 66 69 67
50 51 51 51 51 51 51 51 51 51 50 46 50 55 46 41 43 47 48 50 51 53 52 59 61 58 65 69 65 61 59 57 59 62 65 60 59 57 49 46 39 60 70 70 66 69 72
49 50 50 51 51 51 51 50 50 50 51 47 56 52 48 39 49 48 49 50 53 55 54 58 62 65 70 62 53 48 43 45 52 60 62 64 58 52 45 47 55 62 63 63 63 64 73
49 49 50 50 50 50 50 51 50 50 51 47 54 60 53 45 47 54 49 52 49 50 52 57 66 69 64 58 49 42 35 41 43 52 60 62 59 53 49 43 39 58 68 70 72 56 73
49 49 49 49 50 50 50 50 51 51 50 48 47 58 55 48 55 55 49 50 56 54 52 56 59 55 64 50 42 43 43 53 41 39 43 47 47 44 47 45 54 68 71 71 52 54 74
48 49 49 49 49 50 50 50 51 50 50 48 46 58 56 50 53 57 58 54 55 55 50 56 53 51 52 46 46 48 46 48 49 52 49 47 45 42 48 43 41 68 63 58 66 73 74
47 47 49 49 49 49 50 50 51 50 50 49 45 58 59 51 52 59 63 60 64 63 60 57 55 57 58 52 53 53 46 45 50 43 59 42 54 50 54 54 67 68 70 71 73 70 74

GFSGBSN_sfc_temp_072.txt.gz
Temp
60 59 59 59 59 59 60 60 60 60 59 59 60 59 59 59 59 58 58 58 58 59 59 60 60 60 65 70 74 80 70 70 80 81 79 80 78 77 72 76 80 75 77 80 81 80 79
60 59 59 59 59 59 59 59 58 59 59 59 59 60 59 58 58 58 58 57 58 58 58 59 60 58 66 58 88 92 87 83 84 81 80 82 80 83 77 76 75 78 77 78 74 73 76
60 60 59 59 58 58 58 58 58 58 58 59 59 59 59 59 58 58 57 57 57 57 58 59 60 65 63 64 85 91 89 86 86 85 80 86 87 81 80 74 81 79 71 74 67 70 71
59 59 59 59 58 58 58 57 58 58 58 58 59 59 58 58 58 57 57 56 56 57 58 59 60 64 60 83 89 87 88 85 89 90 87 90 89 81 77 80 76 71 72 62 67 67 70
59 58 59 58 58 58 57 57 57 58 58 58 58 58 58 58 57 56 56 56 56 57 59 60 62 64 62 80 78 85 88 82 85 86 87 89 83 76 76 69 65 69 60 64 65 71 73
58 58 58 58 58 58 58 57 57 57 57 57 57 57 58 58 57 56 55 56 60 60 63 69 69 62 70 72 84 85 88 86 81 80 78 77 74 68 69 66 54 59 62 64 65 71 73
58 58 58 58 58 58 58 58 57 57 56 57 57 57 57 57 57 56 57 64 65 60 63 64 67 66 75 83 87 82 87 81 80 76 66 72 64 60 66 70 71 70 66 65 65 73 71
57 57 57 57 57 57 58 58 57 57 57 56 57 56 56 57 57 56 58 57 68 68 56 70 71 71 76 80 71 78 87 73 71 65 70 67 60 70 74 75 71 69 64 64 71 74 71
56 56 56 56 57 57 57 57 57 57 56 56 56 56 56 56 56 56 57 60 74 74 56 63 71 70 73 76 69 73 81 76 69 65 68 62 68 74 72 70 66 67 64 65 64 71 72
55 55 55 56 56 56 56 56 56 56 56 56 55 55 55 56 53 62 61 72 73 72 49 58 68 72 75 75 66 79 83 76 71 65 68 67 74 72 70 66 69 61 72 70 67 63 55
55 55 55 55 55 55 55 55 55 56 56 56 55 55 55 54 58 57 64 63 69 65 35 69 71 83 78 68 73 72 81 77 66 68 69 64 68 67 65 67 72 65 73 68 67 62 62
54 54 54 54 54 54 54 54 55 55 55 55 55 55 55 56 57 61 66 63 59 45 37 61 69 65 66 68 69 77 73 78 77 69 72 69 78 74 71 73 73 74 69 67 66 62 50
53 54 54 54 54 54 54 54 54 54 55 55 55 54 55 61 55 66 59 53 41 38 62 59 62 65 63 63 64 68 66 64 61 55 58 66 68 75 76 67 73 69 62 49 46 47 47
53 53 53 53 53 54 54 54 54 54 53 54 53 53 55 60 64 63 51 41 33 50 53 69 68 65 58 64 63 64 64 60 67 65 60 56 53 67 73 68 64 65 62 50 35 41 49
53 53 53 53 53 53 53 53 53 53 53 53 53 52 53 59 61 60 43 32 38 50 61 59 64 58 57 62 63 61 62 61 66 67 57 56 57 72 73 73 71 64 58 67 55 55 48
53 52 53 53 53 53 53 53 53 53 53 53 48 46 48 60 60 51 38 34 45 55 60 61 54 60 55 58 58 59 59 66 65 69 71 65 55 69 72 74 72 67 72 56 58 43 41
52 52 52 52 52 52 53 53 53 53 53 53 46 40 51 59 57 42 32 37 46 57 59 56 56 57 59 59 59 58 58 64 68 68 70 68 63 62 70 64 62 63 61 62 62 57 44
51 51 52 52 52 52 52 53 53 53 53 50 44 34 51 59 37 39 34 43 50 54 59 56 58 58 60 61 58 58 56 61 68 69 62 69 63 55 61 71 73 69 63 63 52 51 55
51 51 51 51 52 52 52 52 52 52 52 47 39 39 51 55 32 33 43 44 50 51 55 56 55 58 62 58 55 60 60 65 66 64 63 67 59 50 55 63 68 62 66 66 64 61 53
51 51 51 51 52 52 52 52 52 52 52 47 38 32 40 44 49 43 40 42 43 52 53 58 56 58 51 56 59 56 59 62 65 64 53 59 62 57 49 56 62 58 63 66 63 50 53
50 50 51 51 51 51 52 52 52 52 52 47 38 37 45 33 36 43 46 46 44 44 53 55 54 54 50 44 55 55 59 60 63 60 61 59 55 61 62 64 65 62 62 63 61 62 54
50 50 50 51 51 51 51 52 52 52 52 44 33 42 49 47 44 40 42 43 45 49 51 49 49 55 54 45 47 51 58 58 56 60 58 61 51 58 55 63 64 60 65 64 64 64 64
50 51 51 51 51 51 51 51 51 51 51 44 43 53 49 44 41 38 40 44 46 52 55 57 55 54 51 49 52 53 58 61 60 56 55 56 53 52 46 59 59 48 59 64 65 67 66
50 51 51 51 51 51 51 51 51 51 50 47 47 50 43 37 45 41 45 47 48 52 50 57 59 55 62 64 58 53 52 57 58 58 59 53 53 52 44 44 38 58 69 69 65 67 69
49 50 50 51 51 51 51 51 51 50 51 47 50 49 47 38 47 46 47 48 50 52 52 54 60 64 67 61 48 42 41 46 52 57 56 58 53 41 41 43 53 60 64 64 61 60 70
49 49 50 50 50 50 51 51 51 51 51 48 46 56 51 44 45 52 47 50 47 48 49 54 62 65 62 55 46 35 35 42 44 51 59 57 56 45 43 40 37 55 67 70 68 51 70
48 49 49 50 50 50 50 50 50 51 50 49 46 54 50 45 52 53 46 48 54 51 50 53 55 54 60 47 38 35 38 53 41 40 42 43 44 42 40 39 49 65 67 67 48 51 67
48 49 49 49 49 49 50 50 50 51 50 48 46 53 49 45 52 55 55 49 52 53 48 55 52 51 49 43 41 43 41 48 47 49 45 44 42 40 43 39 39 67 64 55 60 65 70
48 49 48 48 48 48 49 50 50 50 50 48 43 51 55 47 47 55 55 60 55 59 58 57 54 53 50 48 48 49 43 46 49 40 51 36 44 46 50 49 62 65 64 65 66 67 67

GFSGBSN_sfc_temp_075.txt.gz
Temp
60 60 59 59 59 59 60 60 59 58 58 59 59 59 60 60 59 58 58 57 58 58 58 59 59 59 57 58 63 76 69 69 72 74 71 71 68 67 62 65 67 66 68 72 69 70 69
60 59 59 59 59 59 59 59 58 58 58 58 58 58 59 59 59 58 58 57 57 57 57 58 59 58 55 49 76 80 74 73 75 72 71 71 71 74 68 67 64 70 69 68 65 68 69
59 59 59 59 59 59 58 58 58 58 58 58 58 58 58 59 58 58 58 57 57 57 57 58 59 60 55 54 73 75 78 76 76 75 71 75 77 70 69 64 72 70 62 64 62 62 63
59 59 59 58 58 58 58 58 57 58 58 58 58 57 57 58 58 57 57 56 56 57 57 58 59 57 50 73 72 71 75 73 80 79 78 79 79 72 67 70 68 63 60 52 62 64 66
59 59 59 58 58 58 57 57 57 57 57 57 57 57 57 56 56 57 56 56 56 58 58 58 56 53 51 74 68 74 76 75 77 79 77 84 76 65 66 56 53 56 49 54 61 65 63
58 59 58 58 58 58 58 57 57 57 57 57 57 57 56 56 56 56 55 56 58 58 60 64 63 52 61 66 75 77 77 78 73 72 71 68 63 56 55 51 43 50 52 60 57 61 61
58 58 58 58 58 58 58 58 57 57 57 57 57 56 56 56 56 56 54 54 54 50 55 54 56 58 67 75 79 75 77 74 71 67 57 62 52 50 53 58 62 61 60 56 60 65 61
57 57 57 57 57 57 57 57 57 56 56 56 56 56 56 56 56 56 52 48 56 56 47 62 62 63 68 72 64 71 78 65 62 56 61 58 52 60 65 65 64 63 57 55 61 67 62
56 56 56 56 56 57 57 57 57 56 56 56 56 56 56 55 55 51 49 51 61 59 46 56 62 62 65 69 62 64 72 67 61 56 58 54 59 67 64 62 61 60 57 56 57 64 61
56 55 55 56 56 56 56 56 56 56 56 56 55 55 55 54 49 51 50 60 61 60 39 48 59 62 67 68 60 72 74 68 62 57 59 58 66 64 63 61 64 55 65 64 61 54 45
55 54 54 55 55 55 55 55 55 55 55 55 55 55 54 55 47 47 57 60 62 57 25 58 63 75 70 62 65 65 74 68 59 60 59 56 59 60 59 63 66 59 66 62 59 53 49
54 54 54 54 54 54 54 54 54 54 54 54 54 54 54 51 48 52 58 56 52 39 28 54 64 62 61 61 63 67 65 69 67 62 62 60 68 65 64 68 67 68 62 59 56 51 39
53 53 53 53 54 54 54 54 54 54 54 54 54 54 53 55 44 57 55 48 34 29 56 52 56 60 58 56 58 60 58 56 51 48 49 58 60 67 70 61 65 62 53 39 35 34 35
53 53 53 53 53 53 54 54 54 54 54 54 53 53 52 53 53 55 49 40 28 42 44 59 58 57 53 57 56 58 56 51 58 56 50 47 45 61 68 63 58 56 54 39 33 32 41
53 53 53 53 53 53 53 53 53 53 53 53 53 49 48 52 53 50 42 30 32 40 52 50 53 49 51 57 56 55 53 53 58 59 49 48 49 66 69 68 65 56 50 59 46 46 39
52 52 53 53 52 52 53 53 53 53 53 52 47 45 46 54 52 47 36 32 38 48 52 51 41 48 44 50 51 50 50 58 57 63 65 56 48 64 66 66 65 61 63 47 48 34 33
52 52 52 52 52 52 52 52 53 53 53 53 45 40 49 55 51 38 30 34 41 49 52 47 45 44 46 45 47 47 51 58 61 62 65 61 54 54 63 58 57 56 54 55 54 46 35
51 51 52 52 52 52 52 52 52 52 52 49 43 33 49 52 36 36 32 40 45 45 51 49 49 48 45 47 46 44 49 54 63 61 59 59 54 46 52 64 68 64 56 55 41 43 44
51 51 51 51 51 51 52 52 52 52 51 46 38 38 49 49 31 32 39 40 42 42 45 46 45 51 51 48 42 44 51 58 60 59 55 57 49 40 46 56 63 58 59 59 56 50 43
51 51 51 51 51 51 52 52 51 51 52 47 36 31 39 42 43 38 34 36 37 46 44 47 47 50 47 46 50 40 43 56 58 59 56 57 50 46 40 48 56 52 58 59 54 40 43
50 50 50 50 50 50 51 51 51 51 51 46 37 34 40 32 35 36 40 39 37 37 46 48 43 44 45 41 43 40 47 48 55 55 57 55 45 50 54 59 61 57 56 56 54 54 47
50 50 50 50 50 51 51 51 51 51 51 44 33 36 42 40 40 36 37 36 38 40 44 42 41 45 47 42 45 41 45 45 45 55 52 55 45 50 47 55 58 56 57 57 57 58 57
50 50 50 50 50 51 51 51 51 51 50 43 43 47 43 39 38 34 35 38 40 44 47 49 48 44 42 47 51 51 50 48 47 47 49 52 47 45 40 51 52 40 50 57 58 61 58
49 50 50 50 50 51 51 51 51 51 50 46 44 45 39 33 38 36 40 41 41 44 42 49 51 47 52 58 55 51 50 49 47 45 52 47 47 43 36 40 34 51 61 61 58 62 62
49 50 50 50 50 50 50 50 50 50 51 47 47 44 40 33 40 41 40 41 43 45 45 47 52 55 56 51 43 38 37 39 43 47 50 52 47 37 36 38 45 53 58 55 54 53 63
49 49 50 50 50 50 50 50 51 50 51 48 47 49 45 38 37 47 42 44 40 39 41 46 54 54 50 45 39 32 29 36 38 45 53 52 48 39 35 32 31 47 59 63 61 43 61
49 49 49 50 50 50 50 50 50 51 51 49 46 49 46 39 46 49 43 41 47 44 40 45 47 46 51 35 33 30 34 42 34 35 37 35 36 35 31 31 38 57 63 61 43 42 63
48 48 49 49 49 50 50 50 50 51 51 48 46 49 44 40 44 50 52 46 45 46 39 44 44 43 39 33 33 32 29 39 40 44 41 38 35 35 36 33 32 59 59 51 53 57 63
48 49 49 49 49 49 49 49 50 50 51 50 42 48 51 43 42 51 53 56 52 51 47 47 46 45 43 37 37 37 32 32 37 31 48 39 42 40 43 40 52 57 58 60 61 60 60

GFSGBSN_sfc_temp_078.txt.gz
Temp
60 60 60 60 59 59 59 59 59 58 58 58 58 58 59 59 60 59 58 58 58 58 58 58 59 59 56 53 57 72 67 68 69 71 69 67 63 61 56 60 61 60 63 67 68 67 65
59 59 59 59 59 59 59 59 58 57 57 57 57 57 58 58 59 58 58 58 57 57 57 58 58 59 52 46 71 74 72 69 70 69 67 67 66 67 63 61 58 64 64 65 64 65 63
59 59 59 58 58 58 58 58 57 57 57 57 57 57 57 57 58 58 58 57 57 57 57 58 58 59 54 51 66 67 71 70 70 71 67 70 69 64 63 61 66 65 58 61 61 60 59
59 59 59 58 58 58 57 57 57 57 57 57 57 57 56 56 56 56 57 56 57 57 57 58 58 57 48 67 65 65 65 66 71 73 73 73 72 66 62 65 63 58 55 48 61 59 62
59 59 59 58 58 57 57 57 57 57 57 57 57 56 56 56 56 55 56 56 56 58 58 58 54 52 47 69 63 68 69 68 72 73 72 79 69 62 62 53 48 49 45 49 55 63 60
58 58 58 58 58 57 57 57 57 57 57 56 57 56 56 55 55 55 55 55 57 56 56 61 61 49 56 62 70 73 69 71 68 68 67 64 60 55 51 48 40 44 46 53 52 58 58
57 57 58 57 57 57 57 57 57 56 56 56 57 56 56 55 55 55 53 52 53 49 52 51 53 53 61 70 75 70 71 69 66 63 54 58 50 48 50 53 56 54 53 51 57 63 57
57 57 57 57 57 57 57 57 57 56 56 56 56 56 56 55 55 55 50 46 51 53 42 55 57 59 63 66 58 65 72 62 59 53 57 54 49 57 59 58 56 55 52 53 59 64 59
56 56 56 56 57 57 57 57 56 56 56 55 55 55 55 55 54 50 47 50 59 57 42 51 58 58 60 64 56 58 66 62 58 53 54 51 56 62 59 57 55 55 52 53 55 59 57
55 55 55 56 56 56 56 56 56 55 55 55 55 55 54 54 49 49 46 58 59 59 36 44 53 57 61 62 54 68 69 64 58 54 55 53 61 59 57 56 57 49 60 60 58 51 43
55 54 55 55 55 54 54 54 55 55 55 55 54 54 54 55 46 44 53 56 58 52 24 52 56 67 63 58 60 61 70 62 55 56 55 51 55 55 55 57 61 54 62 60 58 51 45
54 54 54 54 54 54 54 54 54 54 54 54 54 54 54 50 45 48 52 54 52 36 24 47 60 56 54 58 60 63 60 64 64 57 57 57 63 60 60 63 63 65 59 55 52 48 38
53 53 53 53 53 53 53 53 54 54 54 54 53 53 52 53 41 48 53 48 36 28 50 49 53 55 55 52 55 57 54 52 48 45 46 54 56 61 63 57 60 59 50 37 35 33 34
53 53 53 53 53 53 53 53 53 53 53 53 53 52 50 51 47 48 47 39 27 40 42 53 51 53 47 53 53 55 52 47 55 51 47 44 40 56 63 58 56 53 51 37 33 31 36
53 53 52 53 53 53 53 53 53 53 53 53 53 45 44 46 48 46 40 29 32 40 48 47 48 45 45 49 46 49 49 49 53 55 45 43 45 60 63 64 63 54 46 55 43 41 35
52 52 52 52 52 52 52 52 53 53 53 53 46 45 45 48 51 42 35 32 36 46 48 46 37 44 39 42 43 42 40 54 54 57 59 51 42 58 61 64 61 58 60 44 43 33 32
51 51 52 52 52 52 52 52 52 52 53 52 45 39 49 52 49 39 28 33 39 46 47 43 41 40 42 42 46 41 42 48 51 57 58 56 47 48 58 55 53 52 51 50 50 43 33
50 51 51 51 51 52 52 52 52 52 52 49 43 34 49 51 35 36 31 37 44 43 47 44 44 43 40 44 41 42 42 49 53 51 51 57 50 43 48 58 60 61 56 53 39 40 41
50 51 51 51 51 51 51 51 51 51 52 46 38 37 48 48 30 31 37 38 40 40 42 42 41 45 46 43 38 44 45 51 51 49 50 53 48 37 45 52 56 53 55 57 52 46 42
50 50 51 51 51 51 51 51 51 51 52 46 34 31 38 41 39 38 34 34 35 44 40 42 41 44 40 39 45 40 42 49 50 49 51 53 47 47 40 45 51 48 55 58 55 41 43
50 50 50 50 50 50 51 51 51 51 51 46 34 33 40 31 34 37 38 38 35 35 44 44 39 38 37 34 38 39 46 46 48 49 51 52 41 45 51 52 53 52 52 56 53 50 45
49 50 50 50 50 50 50 50 50 51 51 43 32 35 39 35 40 35 37 35 35 38 39 38 37 41 41 36 39 38 45 44 42 45 46 49 41 44 41 49 51 48 53 56 55 53 51
49 49 49 49 49 50 50 50 50 50 49 41 42 42 41 38 36 34 35 36 37 40 43 44 43 41 39 42 48 48 48 50 47 42 40 41 43 39 34 47 48 37 46 54 54 55 54
49 49 49 49 49 49 50 50 50 49 49 45 44 44 36 32 35 35 39 39 38 40 37 45 46 41 47 52 51 51 49 47 47 46 44 38 38 38 32 39 29 44 56 60 56 58 58
49 49 49 50 50 50 50 50 50 49 50 46 46 44 40 32 37 38 39 39 40 42 40 42 46 51 51 46 39 36 36 38 41 46 46 44 40 33 33 34 40 47 54 54 54 53 58
49 49 49 49 50 50 50 50 50 50 50 47 46 47 44 36 35 43 38 40 36 36 38 41 49 53 48 41 35 28 24 35 36 39 49 47 44 37 32 32 27 43 55 61 59 43 59
49 49 49 49 49 49 49 50 50 50 50 48 46 48 43 36 42 44 38 37 43 40 35 40 42 42 47 33 30 27 29 41 32 31 33 33 35 33 30 31 35 50 56 60 43 42 58
48 49 49 49 49 49 49 49 50 50 51 48 45 48 43 38 41 47 49 43 43 43 35 40 39 39 35 30 31 29 26 37 37 42 39 34 32 32 33 30 30 53 54 48 52 54 58
48 48 48 48 48 49 49 49 49 50 50 50 42 48 49 42 41 49 53 55 53 52 44 42 40 42 40 35 32 32 29 30 36 31 46 35 40 37 38 37 50 52 52 55 55 56 58

GFSGBSN_sfc_temp_081.txt.gz
Temp
60 60 59 59 59 59 59 59 58 57 57 57 57 57 58 58 59 58 58 57 58 58 58 58 58 58 57 50 55 68 67 67 66 67 66 65 62 59 54 55 57 57 60 62 64 63 61
59 59 59 59 58 59 59 59 58 57 57 57 56 57 57 57 58 57 57 57 57 57 57 58 58 58 55 44 67 69 69 65 68 66 65 66 64 64 59 57 55 60 60 61 61 62 61
59 59 59 58 58 58 58 58 57 57 57 57 57 56 56 56 57 57 57 56 56 56 57 58 58 57 52 50 63 63 65 65 66 67 64 66 66 62 59 57 61 60 56 58 58 58 59
59 59 59 58 58 57 57 57 57 57 57 57 57 56 56 56 55 56 56 55 56 56 57 58 58 56 47 65 62 62 62 63 67 67 67 68 68 63 60 61 60 55 50 46 55 59 61
58 59 59 58 58 57 57 56 57 57 57 57 56 56 56 55 55 55 55 55 55 57 57 57 53 52 46 66 61 66 65 64 68 68 67 74 66 60 58 51 46 46 41 45 53 59 57
58 58 58 58 57 57 57 57 56 56 56 56 56 56 56 55 55 54 54 55 56 55 56 58 58 48 55 59 67 70 65 67 64 65 62 61 57 52 49 47 38 41 43 48 48 53 54
57 58 58 58 57 57 57 57 56 56 56 56 56 56 56 55 55 54 52 49 48 48 50 48 50 50 56 67 70 66 69 64 63 59 52 55 48 46 50 51 52 50 47 45 53 59 53
57 57 57 57 57 57 57 56 56 56 56 56 55 55 55 55 55 54 48 45 51 51 41 52 53 52 58 62 53 62 68 59 56 50 54 50 47 54 56 54 53 51 47 47 53 58 55
56 56 56 56 56 56 57 56 55 56 55 55 55 55 55 54 54 50 46 48 58 56 41 48 53 54 56 59 52 55 62 60 55 50 51 48 53 59 56 53 51 50 47 48 48 55 56
55 54 55 56 55 56 56 56 55 55 55 54 54 54 54 53 49 47 45 54 55 54 34 42 49 54 59 59 50 64 67 62 56 51 52 49 59 55 52 53 53 46 55 54 53 48 42
54 55 54 54 55 55 54 54 54 55 55 54 54 54 53 54 45 43 50 53 55 49 24 51 54 65 60 54 56 58 67 60 52 53 52 48 51 53 50 54 56 51 57 54 53 49 42
54 54 54 54 54 53 53 53 54 54 54 54 53 53 53 49 45 47 50 51 50 35 25 44 55 52 52 55 56 59 57 59 62 55 53 53 58 56 57 60 58 60 53 51 48 45 36
53 53 53 52 53 53 53 53 53 53 53 53 53 53 51 51 41 47 49 44 34 26 47 45 47 51 50 50 52 54 50 49 45 43 44 50 53 57 59 53 56 54 46 35 33 32 34
53 53 53 53 53 53 53 53 53 53 53 53 53 52 50 50 47 46 42 36 26 38 39 50 47 49 45 47 48 47 48 43 51 48 43 42 39 53 58 55 51 50 48 35 32 30 35
52 52 52 52 52 52 52 52 53 53 52 52 52 44 45 45 47 45 36 27 31 37 45 41 44 41 41 45 46 45 42 45 49 51 43 41 42 56 60 60 60 50 43 54 41 37 33
53 53 52 52 52 52 52 52 52 52 52 52 45 44 45 46 47 43 33 30 34 44 45 44 34 40 35 39 40 41 41 47 46 50 55 48 40 54 58 60 60 56 56 42 40 32 30
51 52 52 51 51 51 51 52 52 52 52 52 42 38 46 48 46 38 27 29 36 45 45 40 38 36 38 38 42 40 40 47 48 48 50 49 46 45 54 50 50 49 47 47 47 39 33
50 50 51 51 51 51 51 51 51 52 51 49 42 33 47 49 34 36 30 34 42 42 45 42 41 39 36 38 37 38 39 45 49 48 42 48 44 40 47 55 57 57 53 51 39 37 38
50 50 50 50 50 51 51 51 51 51 51 45 37 38 47 47 29 30 36 37 39 39 40 40 39 42 42 38 33 39 41 50 51 47 43 45 39 34 41 48 55 49 51 53 48 43 37
50 50 50 50 50 51 51 51 51 51 51 45 35 31 38 40 38 35 34 34 33 42 39 41 39 41 37 35 39 36 39 48 49 50 48 47 40 37 35 42 48 45 51 51 51 37 39
49 50 50 50 50 51 51 51 51 51 51 45 36 32 39 30 33 36 37 38 33 33 41 40 36 36 35 31 34 34 40 43 49 47 46 44 35 42 45 51 51 49 48 49 46 47 43
49 49 49 49 50 50 51 51 51 51 51 42 33 34 38 33 38 34 36 35 36 37 39 37 36 39 37 32 35 34 40 40 41 44 42 43 35 40 39 48 51 49 49 50 48 48 51
49 49 49 49 49 50 50 50 50 50 49 41 42 41 38 37 35 33 33 35 36 40 41 43 41 39 36 39 43 44 44 45 44 43 36 34 35 33 33 43 45 36 44 50 51 49 50
48 48 48 49 49 50 50 50 50 50 49 44 43 41 35 31 34 34 38 37 38 40 37 44 44 38 45 50 47 45 44 44 45 43 45 36 33 34 30 34 29 43 52 54 52 53 55
48 48 49 48 48 49 49 49 49 49 49 44 45 42 38 31 36 36 38 39 39 41 40 40 43 48 49 45 37 32 31 34 38 44 44 43 36 32 30 31 37 43 48 48 48 48 58
49 49 50 49 49 49 49 48 49 49 49 46 44 46 42 34 33 41 37 39 36 35 37 40 48 51 44 40 34 28 22 31 33 39 46 42 42 34 32 29 25 39 51 58 57 40 57
49 49 49 49 49 49 49 49 49 49 49 46 44 47 42 35 41 42 37 37 42 39 35 39 41 39 44 33 29 28 27 37 29 31 32 33 33 32 32 31 34 46 51 55 38 39 57
48 48 49 49 49 49 49 49 49 50 49 47 44 47 43 38 41 45 47 42 42 42 34 40 38 36 33 28 29 29 24 32 33 38 35 33 31 30 33 30 28 49 50 44 48 55 55
48 48 48 48 48 49 49 49 49 49 50 49 42 47 47 40 40 48 50 53 52 51 44 43 39 39 37 32 30 30 26 25 33 29 43 35 38 34 37 35 47 49 50 52 54 52 55

GFSGBSN_sfc_temp_084.txt.gz
Temp
59 59 59 59 59 59 59 59 58 57 57 57 57 57 57 57 57 57 57 56 57 57 58 58 58 58 54 48 53 64 67 67 64 66 64 62 58 57 53 54 55 53 57 59 61 60 58
59 59 59 58 58 59 59 58 58 57 57 57 56 56 56 57 57 57 56 56 56 56 57 57 58 58 49 45 65 64 64 63 63 63 63 64 61 62 56 56 55 58 57 58 58 58 58
59 59 58 58 58 58 58 57 57 57 57 57 57 56 56 56 56 56 56 56 55 56 56 57 58 55 49 52 60 60 62 63 62 63 61 63 63 58 57 54 59 57 51 54 55 54 57
58 59 59 58 58 57 57 57 57 57 57 57 57 56 56 55 55 55 55 55 55 55 56 57 57 54 43 64 60 59 58 60 63 64 63 64 65 60 57 59 57 51 50 43 53 55 56
58 58 59 58 58 57 57 57 56 57 57 56 56 56 55 55 55 55 54 55 55 56 57 56 52 49 44 65 60 63 63 62 62 64 63 72 64 57 55 49 45 45 40 42 50 56 53
58 58 58 58 58 57 57 57 56 56 56 56 56 56 55 55 55 54 54 55 55 55 55 56 58 44 53 59 65 67 62 65 61 61 60 57 54 49 46 44 37 40 41 45 45 50 52
57 58 58 58 57 58 58 57 57 56 56 56 56 56 55 55 55 54 52 49 45 44 47 45 47 47 53 63 67 62 64 61 60 57 50 53 46 43 47 48 50 48 46 43 48 54 51
56 56 56 57 57 57 57 57 56 55 55 55 55 55 55 54 54 54 48 45 48 49 39 50 49 50 56 60 50 58 64 56 54 49 52 47 44 53 53 52 50 48 45 45 50 54 52
55 55 56 55 57 57 57 56 56 55 55 55 54 54 54 54 53 48 43 48 54 53 40 45 50 50 54 55 50 53 58 57 53 48 49 48 50 57 53 49 48 46 46 45 47 50 51
54 54 55 55 55 56 56 56 56 55 55 54 54 54 53 53 48 44 43 51 52 51 34 40 47 50 56 55 48 61 63 60 53 48 50 48 57 53 50 49 51 43 51 51 49 45 38
54 54 54 54 55 55 54 54 54 54 54 54 54 54 53 53 45 41 47 50 51 49 24 48 50 61 56 51 53 55 63 57 49 50 51 46 49 50 47 50 53 50 54 50 49 44 40
54 54 54 54 54 53 53 53 53 53 54 53 53 53 53 48 44 45 47 48 47 34 24 43 53 51 49 52 52 57 56 58 58 52 48 49 56 53 52 57 55 57 50 49 45 42 33
53 53 52 53 53 52 52 53 53 53 53 53 53 53 50 50 41 46 47 42 33 24 45 42 44 48 48 47 50 50 48 47 44 40 42 47 50 54 56 50 52 52 44 33 32 31 32
53 53 53 53 53 52 53 53 53 52 52 52 52 51 49 49 47 47 42 35 25 37 37 45 44 46 43 45 47 47 46 41 48 46 41 39 37 50 55 52 48 47 45 33 31 30 34
52 52 52 52 52 53 53 52 52 52 52 52 51 43 43 44 47 45 36 22 30 35 43 40 42 38 38 43 43 44 42 42 45 48 40 38 39 54 57 58 58 47 42 50 38 34 32
52 52 52 52 51 51 51 51 51 52 52 51 41 41 41 45 47 42 33 29 32 42 43 42 34 38 32 36 38 40 39 46 44 48 49 45 37 51 54 55 55 52 53 41 37 31 30
51 51 51 51 51 51 51 51 51 52 51 51 41 37 47 46 45 37 27 27 36 44 44 38 36 35 35 34 37 36 38 44 46 46 48 45 40 42 51 47 46 46 46 44 44 38 33
50 50 51 50 51 51 50 51 51 51 51 47 40 31 43 47 33 34 30 34 41 40 44 40 40 37 34 35 34 35 36 42 48 47 41 44 38 32 43 55 56 51 49 49 40 35 35
49 50 50 50 50 50 50 50 50 50 50 39 36 36 43 44 28 29 35 36 38 37 38 38 37 40 40 35 31 35 37 46 48 45 41 45 38 31 36 46 50 46 49 50 46 41 37
49 49 50 49 50 50 50 50 50 50 51 42 36 30 36 39 36 33 32 32 32 40 37 39 37 38 36 32 37 33 35 42 45 46 48 46 39 36 31 35 43 41 48 52 47 36 40
49 49 49 50 50 50 50 50 50 50 50 42 36 32 37 25 31 33 34 34 32 33 38 38 35 35 33 29 32 32 37 39 43 47 44 42 33 38 40 40 40 41 45 48 47 46 41
49 49 49 49 49 50 49 50 50 50 50 40 33 33 35 35 35 32 34 32 33 35 36 34 33 36 36 31 34 32 36 36 37 41 40 40 32 35 35 41 41 40 46 48 48 45 45
49 49 49 49 49 50 50 50 50 50 49 38 40 41 37 36 33 32 33 34 34 38 40 42 39 38 35 37 40 42 41 41 40 37 35 36 34 32 30 38 38 34 43 47 47 47 47
48 48 48 49 49 49 49 49 49 50 49 43 43 40 34 30 32 33 36 38 36 38 36 42 43 38 43 49 48 43 41 40 40 39 41 35 34 32 30 33 27 41 50 52 49 50 49
48 48 48 48 48 48 48 49 49 49 50 44 44 40 36 30 35 34 37 38 39 41 39 40 42 47 49 43 35 31 29 31 34 38 38 41 36 31 29 30 34 41 46 45 44 47 54
47 48 48 48 48 48 48 48 49 49 50 46 44 45 40 33 33 40 36 39 35 34 35 37 46 50 45 35 32 27 23 30 31 35 42 41 40 34 31 27 26 39 47 51 51 38 52
48 48 48 48 49 49 49 48 48 49 50 46 44 46 41 34 40 42 36 36 42 38 34 39 40 39 43 32 28 27 27 36 28 28 32 32 34 30 31 30 34 45 46 48 36 37 51
48 48 48 49 49 49 49 49 49 49 49 46 43 46 41 36 39 44 45 41 42 41 33 39 36 36 34 30 29 29 26 30 31 35 33 31 30 30 32 30 27 47 45 40 45 47 50
47 48 48 48 48 48 49 49 49 49 49 48 41 46 47 40 39 46 49 52 51 50 42 40 39 38 36 33 29 29 25 25 31 26 38 31 36 33 35 35 46 47 47 51 52 48 51

GFSGBSN_sfc_temp_087.txt.gz
Temp
60 60 59 59 59 59 59 59 58 57 57 57 57 57 57 57 57 57 57 56 56 57 57 58 58 58 55 53 57 68 67 68 68 70 69 67 65 64 61 62 62 59 64 65 67 66 66
60 59 59 59 59 59 59 58 57 57 57 57 56 56 56 57 57 57 56 56 56 56 56 57 58 58 51 48 70 67 66 68 69 69 68 69 68 68 64 62 61 64 63 65 66 66 66
58 59 59 58 58 58 58 58 57 57 57 57 57 56 56 56 56 56 56 56 55 56 56 56 57 56 48 53 68 65 64 66 68 68 66 69 71 67 66 61 65 64 59 62 64 65 65
58 58 59 58 58 58 57 57 57 57 57 57 57 56 55 55 55 55 55 55 55 55 56 57 57 54 46 63 65 61 63 63 65 67 67 70 71 67 65 66 62 59 57 54 62 63 63
58 58 58 58 57 57 57 57 57 57 57 56 56 56 55 55 55 54 54 55 55 56 57 56 52 50 46 65 61 67 65 64 64 65 67 72 68 63 62 57 55 54 51 52 57 62 63
57 57 57 58 57 57 57 57 57 57 56 56 56 56 55 55 54 54 54 54 55 56 56 56 56 46 55 58 65 68 65 66 64 62 62 62 60 55 54 54 46 50 48 50 53 60 60
57 57 57 57 57 58 58 57 57 56 56 56 55 55 55 55 54 54 53 51 48 47 49 46 49 47 52 61 66 64 67 64 64 61 53 57 53 48 53 55 56 55 51 52 56 60 58
55 55 56 56 56 56 57 57 57 56 56 56 55 55 55 54 54 54 51 48 46 47 38 50 49 49 55 58 50 58 66 58 57 53 55 52 48 55 57 56 56 54 51 52 57 59 57
55 55 56 56 56 56 55 57 56 55 55 55 55 54 54 53 53 50 46 48 53 52 40 46 50 50 52 55 50 52 60 60 55 51 52 51 53 58 55 52 51 52 51 52 52 56 58
55 54 54 55 55 55 55 55 55 55 55 54 54 54 53 53 48 48 46 52 52 51 36 41 46 51 55 55 48 60 63 61 56 51 52 52 59 55 53 52 54 48 55 55 53 52 47
54 54 54 55 55 54 54 54 55 55 54 54 53 53 53 53 46 43 48 51 52 48 27 49 50 63 58 51 54 57 63 58 51 52 53 50 51 52 51 52 55 53 57 54 54 51 49
54 54 53 53 53 53 53 53 53 53 53 54 53 53 53 48 45 48 50 49 48 35 26 44 53 51 49 52 54 58 57 61 59 53 54 53 59 57 56 58 57 59 55 53 51 50 41
52 53 52 53 53 53 53 53 52 52 53 53 52 52 51 51 42 49 49 45 34 27 45 41 44 49 49 46 50 52 49 48 46 41 43 50 52 57 59 53 56 57 50 41 38 38 39
52 53 53 53 53 53 53 52 52 52 52 52 52 51 48 49 49 49 45 38 26 37 37 46 45 46 43 46 47 48 48 44 50 49 45 41 39 52 58 57 51 51 51 42 35 36 43
51 51 51 51 52 52 52 52 52 52 52 52 51 43 44 45 48 47 38 26 32 35 42 40 43 40 40 44 45 46 44 43 47 48 41 41 41 55 57 60 60 50 45 55 43 42 41
52 52 52 52 52 52 52 52 52 51 52 51 42 41 42 47 47 44 33 30 34 41 42 42 36 39 34 38 40 41 42 47 46 50 50 45 38 51 55 59 59 56 57 44 45 36 35
51 51 51 51 51 50 51 51 51 52 51 50 41 36 44 47 45 37 27 30 35 44 44 39 37 37 36 36 39 38 40 46 48 48 50 46 43 43 52 50 50 51 49 50 50 45 40
50 50 50 50 50 50 51 50 51 51 51 46 39 30 44 47 32 34 29 34 41 39 44 41 41 39 37 38 36 38 38 43 49 49 42 46 41 36 42 53 56 55 51 52 43 42 42
49 50 50 49 50 50 50 51 51 51 51 40 35 35 44 43 28 28 35 35 39 37 38 39 38 40 41 38 35 37 39 47 48 47 43 46 39 33 40 47 51 47 49 52 50 48 43
49 49 49 49 50 50 50 50 50 50 50 43 35 28 35 38 38 34 31 32 32 40 39 40 38 40 38 36 39 35 36 43 45 45 47 47 40 38 34 37 41 39 43 46 43 41 44
49 49 49 49 49 50 49 50 50 50 50 42 34 31 36 28 30 33 35 34 32 32 39 40 35 37 36 32 34 34 38 41 45 47 46 45 35 39 41 43 43 41 42 43 41 44 42
49 49 49 49 49 49 50 50 50 50 50 39 30 31 35 34 35 33 32 32 33 34 36 34 33 37 37 33 35 34 38 38 39 44 43 43 34 35 34 40 42 40 44 46 45 46 47
49 49 49 49 49 49 50 50 49 50 48 37 39 40 36 34 33 30 32 34 32 38 39 41 39 37 35 38 42 43 44 43 42 38 36 37 34 32 31 39 40 35 43 45 47 51 51
48 48 49 49 49 49 49 49 49 49 48 42 39 38 32 28 31 32 35 36 34 37 35 41 42 39 43 48 46 44 43 42 41 41 42 36 33 32 30 34 26 46 52 52 47 51 56
48 48 48 48 48 48 48 49 49 49 49 42 43 38 34 27 33 34 36 36 38 40 39 39 44 46 48 42 34 31 32 33 37 39 39 41 36 31 28 31 39 44 48 46 41 43 53
48 48 48 48 48 48 48 48 48 49 50 44 43 44 38 31 30 39 36 37 34 35 36 39 47 48 42 36 33 27 26 32 33 36 41 40 39 34 31 27 26 41 47 49 52 39 50
47 47 48 48 48 48 47 48 48 48 49 46 42 45 39 32 37 40 35 36 41 39 36 38 39 37 40 32 29 28 28 37 30 32 32 31 32 28 29 27 36 46 48 50 37 39 47
47 48 48 48 49 48 47 47 48 48 49 46 43 46 40 35 38 42 45 41 42 40 34 37 36 35 33 30 31 31 30 35 35 39 35 34 31 30 31 28 27 49 48 41 44 48 49
47 48 48 48 48 48 49 49 48 47 48 48 41 46 46 37 38 45 47 51 50 48 41 39 39 37 39 34 34 36 31 32 35 30 42 34 40 37 38 38 46 51 50 51 50 49 50

GFSGBSN_sfc_temp_090.txt.gz
Temp
60 60 60 59 59 59 59 59 58 57 57 57 57 57 57 57 57 57 57 56 57 57 57 57 58 58 62 64 70 80 68 69 78 78 78 77 74 74 70 74 75 69 74 77 79 77 77
59 59 59 59 59 59 59 59 58 57 57 57 57 57 57 57 57 57 56 56 56 56 56 57 57 57 60 55 81 78 76 76 80 78 77 78 76 79 73 73 71 74 73 75 77 76 77
59 58 58 58 58 59 59 58 58 58 58 57 57 56 56 56 56 56 56 55 55 56 56 57 57 60 56 62 78 78 74 76 78 78 75 80 80 74 75 70 76 73 67 73 75 76 75
58 58 59 58 57 57 57 57 58 58 58 57 57 56 55 55 55 55 55 55 55 55 56 57 57 61 56 74 78 73 78 76 78 78 74 80 80 75 72 74 70 67 69 63 72 73 74
57 57 57 57 58 57 57 57 57 57 58 57 56 56 55 55 55 54 54 54 55 56 57 57 58 58 57 71 68 76 78 72 75 75 75 77 75 71 71 64 63 66 60 64 67 74 73
57 57 57 57 57 57 57 57 57 57 57 56 56 56 55 55 54 54 54 55 57 56 61 63 62 52 64 64 70 72 76 73 70 70 67 68 69 64 64 62 52 59 60 62 63 71 69
57 57 57 57 57 57 57 57 57 56 56 56 56 56 55 55 54 54 56 64 62 58 59 57 60 58 63 67 72 71 74 70 71 67 60 65 60 56 62 62 65 65 63 62 68 70 65
56 56 56 57 57 57 57 57 55 56 56 56 56 55 55 55 54 54 59 57 51 52 44 58 57 58 63 65 54 66 72 64 63 59 64 60 55 65 66 65 61 63 60 60 67 70 64
55 55 56 55 56 56 56 56 56 55 55 55 55 55 54 54 54 56 56 54 60 59 45 55 58 57 58 61 55 60 66 66 62 60 60 58 62 66 62 58 56 60 59 60 60 67 68
55 55 55 55 55 55 55 55 55 55 55 55 54 54 53 53 52 57 57 59 62 57 40 52 53 59 60 60 54 67 71 66 63 58 61 60 68 61 59 57 59 55 66 62 60 59 55
53 54 54 54 55 54 54 54 54 54 55 54 54 54 53 53 53 54 56 60 61 52 33 53 55 69 64 56 60 60 69 63 57 58 59 57 58 58 55 58 60 56 66 61 61 59 58
53 54 54 54 53 53 53 53 54 54 54 54 53 53 53 56 56 57 59 59 55 41 32 50 57 54 54 56 58 61 60 66 65 58 59 61 65 63 62 64 63 63 60 60 60 58 47
53 52 51 52 53 53 53 53 53 53 53 53 53 53 53 58 53 59 58 55 39 35 52 47 49 54 52 50 54 56 54 53 53 45 47 56 58 64 64 58 62 60 56 47 44 45 45
51 52 52 52 53 53 53 53 52 52 52 53 52 51 54 57 60 58 55 44 32 44 46 51 50 51 48 49 51 52 52 51 56 53 50 48 45 58 64 61 57 55 55 49 39 43 49
52 52 52 51 51 51 52 51 52 52 52 52 51 54 52 56 58 56 46 33 39 44 48 46 49 45 46 48 49 51 49 49 51 55 48 47 48 60 62 64 64 57 52 62 51 53 46
50 50 51 51 51 52 52 52 52 52 52 51 51 49 51 58 57 50 38 35 43 47 48 47 41 45 42 44 45 48 47 51 50 55 56 50 43 56 59 63 64 61 65 49 52 39 39
50 50 50 51 51 50 50 51 52 51 52 51 47 41 55 57 53 41 32 37 43 49 48 44 42 41 42 41 44 44 44 49 53 53 56 53 48 50 56 56 55 56 53 55 57 52 44
50 50 50 50 51 50 50 50 50 51 51 48 43 33 51 54 36 38 34 41 43 45 49 46 46 43 42 42 41 42 43 48 55 54 47 51 48 42 46 58 61 59 57 58 48 48 51
50 50 49 49 51 49 50 50 50 51 51 45 37 42 49 49 31 34 40 40 43 43 44 44 42 44 46 43 39 42 44 51 52 51 47 50 45 39 43 51 54 50 52 53 53 53 48
49 49 49 49 50 49 50 49 51 51 51 46 38 31 41 39 42 39 36 37 38 45 44 46 43 45 43 41 46 42 43 48 50 50 47 50 46 42 38 44 50 46 50 53 51 44 48
49 49 49 49 49 49 50 49 50 50 50 44 35 36 42 31 34 35 39 38 35 35 44 46 41 41 41 37 39 40 45 47 51 49 51 50 40 45 46 47 48 48 48 50 49 51 45
49 49 49 49 49 49 49 50 50 49 50 40 34 36 42 40 43 39 36 35 37 41 42 40 39 42 43 38 41 39 44 44 43 49 45 46 40 42 39 46 47 45 50 52 52 53 55
49 49 49 49 49 49 49 49 49 49 49 37 39 46 42 40 39 34 37 38 39 44 45 46 45 43 41 43 47 48 49 49 48 44 41 41 39 34 35 45 44 38 46 49 53 57 56
49 49 49 49 49 49 49 49 49 49 48 45 46 43 37 32 39 39 39 38 38 42 40 46 47 43 47 52 50 49 47 47 47 47 48 40 36 36 35 37 27 49 58 58 54 57 59
48 48 48 49 49 49 49 49 49 49 49 45 47 44 38 31 40 39 40 40 43 45 41 43 48 51 53 44 36 34 35 37 41 46 47 47 41 33 31 35 42 47 53 53 52 53 55
48 48 48 48 48 48 48 48 49 49 49 46 47 50 43 35 37 44 41 43 39 39 39 43 52 53 45 37 34 30 29 37 37 42 49 47 45 37 35 29 28 46 55 59 58 44 55
47 47 48 48 48 48 48 48 48 49 49 47 44 50 43 34 43 44 40 40 47 43 38 44 45 39 41 33 32 32 34 42 35 36 33 34 33 30 32 30 39 52 57 57 39 44 55
47 47 47 47 48 48 48 48 48 48 48 46 42 47 44 37 43 47 46 41 43 45 39 43 39 38 35 31 35 36 36 41 40 44 40 36 33 32 34 29 28 55 53 42 51 57 58
47 47 48 47 48 48 49 48 48 48 48 47 40 45 46 40 43 51 51 54 51 51 46 45 41 38 42 35 42 43 37 41 41 35 51 38 46 42 43 43 54 55 54 58 60 57 57

GFSGBSN_sfc_temp_093.txt.gz
Temp
60 60 60 60 60 60 60 60 59 58 58 57 57 57 57 57 57 57 57 56 56 57 57 57 58 58 63 69 73 87 70 71 81 81 81 81 78 77 73 77 80 76 78 81 84 83 83
60 59 59 59 59 60 60 60 59 58 58 57 57 57 57 57 57 57 56 56 56 56 56 57 58 57 62 60 87 87 85 84 85 83 81 83 80 83 77 77 76 80 80 79 82 82 82
58 58 59 59 58 58 58 58 58 58 58 57 57 57 56 56 56 56 56 55 55 55 56 56 58 62 63 67 87 87 83 82 86 85 80 85 85 80 79 73 80 78 72 76 78 80 79
58 58 58 58 57 58 57 57 58 58 58 58 57 56 56 55 55 55 55 55 55 55 56 57 58 65 60 83 85 81 83 81 83 84 83 85 85 78 76 79 75 70 71 64 76 81 81
58 58 58 58 57 57 57 57 57 58 58 57 57 56 56 55 55 55 54 55 55 57 58 57 62 63 62 72 74 82 83 77 81 82 82 83 80 73 74 67 62 67 60 65 72 80 78
58 58 58 57 57 57 57 57 56 56 57 57 57 56 56 55 55 54 54 54 60 57 59 68 69 57 67 70 75 77 82 78 75 76 73 71 72 67 68 65 53 56 61 66 66 76 75
57 57 57 57 57 57 57 57 57 56 56 56 56 56 56 55 55 54 56 67 65 61 65 62 65 65 69 78 77 76 81 75 74 71 62 69 63 59 65 67 67 66 66 66 72 78 71
56 56 56 56 57 56 57 57 56 56 55 56 56 56 55 55 54 54 58 62 58 58 50 64 65 65 70 74 62 70 79 67 67 61 67 66 58 68 71 69 67 65 62 63 69 75 71
56 56 56 56 56 56 56 56 56 55 55 55 55 55 55 54 54 56 62 61 66 65 52 60 68 65 67 69 61 65 74 69 66 62 65 60 66 71 68 66 62 63 60 61 63 71 72
54 54 55 55 56 55 56 56 56 55 55 54 55 55 54 53 53 62 60 65 67 64 46 58 59 64 65 66 59 72 74 70 66 61 64 65 71 68 65 63 65 57 66 64 64 63 56
54 54 54 54 54 54 54 54 54 54 55 55 54 54 54 53 56 57 62 66 66 55 35 60 61 75 69 62 65 65 73 68 60 63 63 61 64 64 62 64 67 61 66 64 64 62 61
53 53 53 54 53 53 53 54 54 53 54 54 54 54 54 58 58 62 66 64 59 41 35 55 63 59 59 61 62 65 63 69 69 61 65 64 74 69 67 69 68 68 62 62 62 61 50
52 51 50 51 52 50 53 53 54 54 53 53 53 53 54 62 56 63 63 57 42 36 57 54 55 59 58 56 58 60 56 55 55 48 51 59 61 67 68 63 67 64 57 46 39 42 46
52 50 48 49 52 52 51 52 52 53 52 52 52 52 55 61 65 62 58 47 33 48 52 58 55 57 53 55 56 56 56 53 60 59 56 50 47 62 67 64 60 60 58 48 36 40 48
51 50 51 51 51 51 49 49 51 51 52 52 52 55 55 58 62 60 49 35 40 47 56 52 54 50 52 53 53 55 55 56 58 58 52 52 52 65 68 68 66 59 53 63 52 55 49
50 50 51 50 50 49 51 51 52 52 51 51 51 49 52 61 61 54 43 37 47 55 52 51 44 51 49 51 50 51 52 57 55 58 62 56 48 60 64 66 66 62 68 52 55 41 38
50 51 51 51 51 51 51 50 51 52 51 51 47 41 57 63 58 44 35 41 48 55 52 48 48 47 50 47 50 48 49 54 57 56 61 57 54 54 59 56 57 58 56 58 60 55 45
50 50 50 51 51 50 51 51 51 50 51 49 43 35 56 59 40 42 39 46 50 50 54 51 51 49 47 48 46 46 47 52 57 57 53 56 52 48 53 62 63 61 60 59 49 49 55
50 50 50 50 50 50 50 51 50 51 50 48 39 44 55 52 34 38 44 46 49 48 48 49 48 51 51 46 42 47 48 55 56 55 52 54 49 43 46 55 59 56 60 61 60 57 50
50 50 50 50 50 50 51 50 50 50 51 47 40 33 44 44 47 42 40 42 41 50 48 51 49 52 47 45 50 45 47 52 53 54 48 51 51 47 42 47 53 48 54 57 55 47 50
49 49 50 50 50 50 50 50 50 50 50 47 37 37 46 34 37 40 42 40 41 40 47 50 46 46 45 41 44 44 49 50 53 50 54 52 43 49 50 52 53 52 52 54 52 53 47
50 50 49 49 49 49 49 50 50 50 49 42 35 38 45 43 45 42 40 39 38 44 46 42 43 48 48 43 45 44 48 49 48 53 51 50 43 47 44 49 50 48 53 55 56 56 57
49 49 49 49 49 50 50 49 49 49 49 39 41 50 41 40 42 38 40 42 42 45 47 50 47 47 45 48 53 54 53 51 51 48 44 44 44 40 37 49 48 41 49 53 55 58 58
48 49 49 49 49 49 49 49 49 49 49 44 42 48 39 33 38 41 43 40 42 45 42 48 51 45 51 56 55 53 51 50 49 49 50 40 42 40 36 40 29 50 61 60 55 58 62
48 48 49 49 49 49 49 49 48 49 49 48 50 42 40 34 42 42 44 42 44 45 44 45 48 55 55 49 40 38 39 39 44 49 49 49 39 34 33 37 44 49 55 54 53 53 59
48 48 48 48 48 48 48 49 49 49 49 49 49 51 42 36 39 46 43 45 40 41 44 47 55 57 51 39 36 31 31 39 38 44 52 49 46 37 36 31 30 50 58 62 59 45 58
47 48 48 48 48 48 48 48 48 49 49 48 48 50 42 35 46 48 43 43 50 47 42 45 49 47 48 35 32 33 36 44 36 37 38 37 35 32 35 33 41 56 59 61 41 43 58
47 47 47 47 48 48 48 48 48 48 49 47 46 51 44 39 46 50 51 47 49 48 40 45 42 43 37 32 37 39 38 43 44 47 42 38 34 32 36 31 30 59 56 47 53 59 60
47 47 47 47 47 48 48 47 47 48 48 48 40 49 52 41 46 54 55 57 54 54 46 43 42 39 46 40 44 44 39 43 44 37 51 36 46 42 44 43 56 60 58 62 63 60 60

GFSGBSN_sfc_temp_096.txt.gz
Temp
60 60 59 59 59 60 60 60 59 59 58 58 58 58 58 58 58 57 56 56 56 56 57 57 58 58 60 64 68 88 69 70 80 79 78 77 75 75 70 74 76 74 76 80 81 81 80
58 58 58 59 59 59 59 59 59 58 58 58 58 57 57 57 57 57 56 56 56 56 56 57 57 57 58 55 83 90 87 85 84 81 79 80 78 80 75 75 73 77 78 78 80 80 80
58 58 58 58 58 58 58 58 58 58 58 58 58 57 57 57 56 56 56 56 55 55 56 57 57 61 58 61 84 86 86 82 84 83 79 83 83 78 78 72 79 76 69 73 76 77 76
58 58 58 58 58 57 57 57 57 58 58 58 58 57 56 56 56 55 55 55 55 56 56 57 58 61 55 79 84 81 83 80 84 85 83 85 85 78 74 77 73 69 69 60 72 76 78
58 58 58 58 57 57 57 57 57 57 57 57 57 57 56 56 55 55 55 55 55 56 57 59 57 59 57 76 74 81 82 76 80 81 81 83 79 71 72 64 60 64 56 60 65 78 77
57 57 58 57 57 57 57 57 57 57 56 56 56 57 56 56 55 54 54 54 58 59 61 66 65 58 64 68 78 78 81 80 75 76 73 71 69 63 63 60 50 55 58 61 60 70 75
57 57 57 57 57 57 57 56 56 56 56 56 56 56 56 55 55 54 55 59 65 59 60 59 63 60 67 77 81 76 80 77 74 70 61 67 58 54 60 64 64 63 62 61 67 75 73
56 56 56 56 56 56 57 57 56 55 56 55 55 56 56 55 54 54 56 54 60 59 48 61 63 64 70 73 64 71 78 69 66 59 65 61 54 63 68 67 65 63 59 60 67 72 70
55 55 55 55 56 56 56 56 56 55 55 55 55 55 55 54 54 56 58 61 68 65 49 57 65 64 67 71 63 65 73 69 64 60 62 57 62 69 65 63 61 62 60 59 59 66 69
54 54 54 55 55 55 55 55 55 55 55 55 54 54 54 54 51 59 58 66 67 64 42 54 61 66 70 68 60 73 75 69 64 58 63 61 69 66 65 62 63 56 67 64 61 57 50
54 54 53 53 53 54 54 54 54 54 54 54 54 54 53 54 54 53 61 66 66 59 30 62 62 76 71 62 66 67 75 68 59 61 62 58 61 61 60 63 67 60 68 64 62 55 54
53 53 53 52 51 51 52 51 52 53 53 54 53 53 53 55 56 59 66 64 58 38 30 55 64 60 60 62 63 68 65 70 69 60 62 61 70 67 66 68 68 70 65 63 60 56 44
52 53 52 51 50 51 52 51 51 51 52 53 53 52 52 59 50 61 62 55 38 32 57 54 56 61 59 58 59 62 58 56 53 47 47 56 57 66 69 61 67 65 57 44 41 40 38
52 52 52 50 50 51 51 52 51 51 51 52 52 51 53 58 60 58 56 43 29 45 48 60 58 58 54 59 58 59 57 53 59 58 52 47 45 59 67 61 58 60 57 46 36 37 44
51 51 51 51 51 51 51 51 50 49 49 50 51 51 51 56 58 53 43 32 36 44 53 51 54 50 51 57 54 56 55 55 60 60 49 47 50 66 66 67 64 59 52 61 50 52 39
52 51 51 51 51 51 51 51 51 51 50 50 47 46 49 59 57 49 34 33 43 52 54 52 43 51 47 52 51 52 54 60 55 59 60 53 45 63 64 68 66 61 66 50 52 38 36
51 51 51 51 51 51 51 51 51 49 51 51 42 38 54 60 55 42 31 37 45 53 54 48 47 47 49 48 44 50 53 54 59 57 60 58 51 50 61 57 55 57 54 56 56 52 41
51 51 51 51 51 51 51 51 51 51 51 49 39 34 55 53 36 41 35 43 48 51 56 51 50 49 47 48 47 48 49 49 58 57 51 55 49 45 50 63 65 60 57 56 46 45 51
51 50 50 51 51 50 50 50 51 51 51 46 36 42 53 50 31 35 43 44 49 48 50 49 47 50 52 47 42 48 51 55 56 55 47 50 48 41 46 55 60 55 58 60 58 55 47
50 50 50 50 50 51 51 50 50 50 51 45 37 33 44 40 45 40 35 40 42 52 49 50 49 51 48 46 50 45 48 53 55 54 50 51 47 45 39 45 52 50 55 57 54 45 48
49 50 50 50 50 50 50 51 50 50 49 44 37 35 43 32 36 40 42 39 38 41 49 51 46 46 45 39 43 43 49 51 54 51 52 50 41 47 49 52 52 51 51 52 50 52 45
49 49 50 50 50 50 50 50 50 50 49 39 34 38 45 42 44 38 40 39 39 41 45 43 42 46 47 42 44 41 48 49 47 53 50 52 41 45 42 49 50 47 51 52 53 54 54
49 49 50 49 49 50 50 50 50 49 48 39 44 48 40 38 35 36 38 40 42 46 46 47 47 44 43 47 52 54 54 52 50 47 46 45 42 41 35 46 47 40 47 51 53 56 55
49 49 49 49 49 49 49 49 50 49 49 46 44 46 36 32 37 37 41 43 41 44 41 46 50 43 48 55 56 54 52 51 50 49 51 42 41 41 34 39 28 48 60 59 55 57 59
48 49 49 49 49 49 49 49 49 49 49 47 48 41 37 31 40 42 42 42 43 45 44 45 48 52 51 50 40 38 39 40 43 48 48 49 42 34 31 33 42 48 54 54 50 51 57
48 48 48 49 49 48 48 48 48 49 49 47 47 47 40 33 36 45 41 43 39 40 42 47 53 56 50 42 35 30 30 37 37 41 49 49 46 37 35 29 29 47 57 61 58 43 55
47 47 48 48 48 48 48 48 48 49 49 47 47 49 41 34 43 44 39 40 47 44 39 44 47 46 50 36 32 31 33 40 32 36 36 37 37 32 32 31 39 53 58 60 40 41 56
47 47 47 48 48 48 48 48 48 48 49 46 45 49 42 38 43 48 49 45 47 46 39 46 41 44 37 32 34 36 35 40 40 40 41 37 32 31 34 31 29 58 57 46 52 58 59
47 47 47 47 47 47 47 48 48 48 48 48 40 49 49 38 44 52 53 55 54 53 46 44 39 33 45 40 41 42 37 40 42 36 49 34 43 40 42 40 54 58 56 60 62 60 60

GFSGBSN_sfc_temp_099.txt.gz
Temp
59 59 59 59 59 59 59 59 59 58 58 57 57 57 58 58 58 57 57 56 56 57 57 57 57 58 55 54 58 73 68 68 69 71 70 69 65 63 60 63 65 64 66 71 73 73 71
58 58 58 58 58 58 58 58 58 57 57 57 57 57 57 57 57 57 57 56 56 56 56 57 58 57 51 46 73 78 75 73 75 72 70 70 68 71 66 65 62 68 68 69 68 68 69
58 58 58 58 58 58 57 57 57 57 57 57 57 57 57 57 57 56 56 56 55 56 56 57 58 57 51 52 70 72 73 72 75 74 70 73 74 68 66 62 69 68 60 65 67 66 66
58 58 58 58 57 57 57 57 57 57 57 57 57 56 56 56 56 55 55 55 55 56 56 57 58 54 45 68 68 71 72 71 75 76 74 75 74 68 64 67 65 59 57 50 61 66 70
57 57 57 57 57 57 56 57 57 57 57 57 56 56 55 55 55 55 55 55 55 56 57 58 51 49 47 71 66 71 73 70 73 73 72 80 71 62 62 53 49 51 46 50 56 67 66
57 57 57 57 57 57 57 57 56 56 56 56 56 56 55 55 55 54 54 55 56 56 57 62 60 47 56 60 71 74 72 75 70 68 66 64 59 53 51 47 40 44 48 53 53 63 66
56 57 57 57 57 57 57 56 56 56 55 55 55 55 55 55 55 54 52 48 51 48 53 50 53 53 60 69 74 69 73 70 68 64 53 59 48 44 48 53 55 55 53 52 57 64 64
56 55 55 55 56 56 56 57 56 55 55 55 55 55 55 55 54 54 50 43 53 51 42 55 56 56 62 65 57 63 70 59 59 52 57 53 47 56 59 58 56 55 51 51 58 63 64
55 55 55 55 55 55 56 56 55 55 55 54 54 55 54 54 54 49 46 51 61 57 39 49 56 55 57 61 55 57 64 61 56 53 54 50 55 61 58 56 54 54 52 52 53 60 64
55 54 54 54 54 54 54 55 54 54 54 54 54 54 53 53 46 47 46 60 62 54 31 43 52 59 62 63 56 67 67 61 56 51 54 53 61 59 56 54 56 49 59 59 59 55 44
53 53 53 54 53 53 53 53 53 53 53 53 53 53 53 53 44 42 53 58 60 48 18 54 58 70 66 58 61 62 68 62 52 53 54 50 54 54 54 57 60 54 59 59 59 53 46
53 53 53 53 53 52 52 52 52 52 52 52 53 53 53 49 45 48 55 53 48 30 21 47 59 56 55 57 58 61 60 63 61 54 55 53 61 58 56 62 62 64 57 57 57 49 39
53 53 52 52 52 51 51 51 52 51 51 52 52 51 50 52 40 54 51 44 26 22 50 47 51 56 53 51 53 56 53 50 45 40 41 50 51 58 61 52 59 57 50 36 35 32 33
52 52 52 52 52 51 51 52 51 51 51 50 50 50 48 50 51 51 46 32 22 37 39 52 52 53 48 54 54 53 51 45 52 49 43 38 36 51 59 53 51 52 51 37 30 30 35
52 52 52 51 51 51 51 51 51 51 50 50 50 43 42 47 51 44 37 23 27 37 46 45 47 44 46 51 51 52 49 47 52 53 42 41 43 56 59 60 58 52 46 55 46 46 35
53 52 52 51 51 51 51 51 51 51 51 51 39 38 40 51 49 44 33 28 35 45 47 44 36 45 40 43 44 41 45 50 49 55 54 48 39 54 56 61 59 57 59 45 47 34 30
51 51 51 51 51 51 51 51 51 51 50 50 38 35 44 49 46 36 26 28 38 47 50 44 41 39 41 41 41 42 43 44 45 50 53 49 44 45 51 51 51 50 50 51 51 44 33
51 51 51 51 51 51 51 51 51 51 50 46 39 28 45 48 33 32 27 37 43 42 48 46 46 43 41 42 41 42 37 44 49 49 45 46 44 39 46 50 53 57 52 51 40 39 42
51 51 51 51 51 51 50 51 50 50 50 41 35 32 43 39 28 26 36 39 41 41 43 44 44 46 45 41 36 43 40 52 53 47 42 44 40 35 39 44 50 50 54 56 52 48 41
50 50 50 50 50 50 50 51 50 50 50 41 35 28 34 36 37 33 32 32 34 45 45 47 45 45 41 39 44 39 43 50 51 51 49 47 41 38 32 38 44 43 48 50 45 38 41
50 49 49 50 50 50 50 50 50 50 49 40 35 28 37 28 31 32 35 36 35 32 44 45 42 42 39 34 37 37 42 45 48 50 48 44 35 41 44 47 46 46 46 48 40 45 41
49 49 48 49 50 50 50 50 49 49 49 39 31 28 35 32 37 34 34 32 34 39 40 37 36 42 41 36 38 36 41 41 39 45 42 46 35 41 38 45 47 42 47 48 48 49 48
49 48 49 49 49 50 50 50 50 49 47 37 38 40 34 32 30 28 30 35 33 37 42 46 42 39 35 41 40 41 45 45 44 41 38 40 37 35 32 43 41 33 42 47 48 51 48
49 48 49 49 50 49 49 49 49 50 48 39 37 36 32 24 29 32 37 39 38 38 35 42 43 38 44 46 48 47 45 46 44 44 44 37 36 35 30 35 23 42 54 53 49 52 51
48 48 48 49 49 49 49 48 48 49 49 39 39 37 33 23 33 35 37 39 40 39 38 41 45 46 43 41 33 33 32 34 38 43 42 43 38 30 28 27 37 44 50 48 46 43 51
48 48 48 48 48 48 48 48 48 48 49 41 39 41 37 30 28 39 36 35 32 33 34 39 47 44 44 35 32 25 22 31 31 37 46 44 41 32 29 25 23 42 49 55 53 36 52
48 48 48 48 48 48 48 48 48 48 49 42 38 42 38 32 36 39 32 33 39 37 32 37 39 39 41 25 26 26 26 38 29 30 30 32 32 29 28 27 34 49 50 55 35 37 51
47 47 47 47 48 48 48 48 48 48 49 44 41 43 38 33 35 40 41 36 38 37 32 36 32 35 33 30 28 29 25 34 33 34 35 32 29 27 30 25 25 54 52 42 47 49 51
47 47 47 47 47 47 48 48 48 48 48 48 39 44 45 36 35 42 44 46 45 44 38 38 35 33 35 31 31 33 28 33 35 28 37 32 37 33 35 34 47 52 50 52 53 51 50

GFSGBSN_sfc_temp_102.txt.gz
Temp
58 59 59 58 58 58 58 58 58 57 57 57 57 57 57 58 58 57 57 56 56 57 57 57 57 58 53 50 54 70 68 68 68 68 66 65 61 60 55 58 59 57 61 65 67 67 67
58 58 58 58 58 58 58 57 57 57 57 57 57 56 57 57 57 57 56 56 56 56 56 57 57 57 48 43 69 72 71 70 69 67 67 66 64 66 60 60 58 63 62 64 64 64 64
58 58 58 58 57 57 57 57 57 57 57 57 57 56 56 56 56 56 56 56 55 56 56 56 57 55 49 48 64 66 65 66 69 70 67 69 69 62 63 58 65 63 57 59 60 60 61
57 57 58 57 57 57 57 57 57 57 56 56 57 56 55 55 55 55 55 55 55 55 56 56 57 53 43 62 61 63 63 65 69 70 70 71 70 63 61 63 62 56 53 46 58 60 64
57 57 57 57 57 57 56 56 56 57 56 56 56 55 55 55 55 55 54 54 55 56 56 57 49 46 42 64 61 65 65 64 68 69 68 75 66 60 59 52 47 47 46 46 51 61 60
57 57 57 57 57 57 57 57 56 56 56 55 55 55 55 54 54 54 54 54 55 55 56 59 57 44 52 56 65 69 65 69 64 64 61 60 56 51 48 46 40 43 44 48 46 55 59
56 56 56 56 56 56 56 56 56 55 55 55 55 55 55 54 54 54 51 43 46 46 50 47 49 48 55 63 68 64 67 64 62 58 49 54 44 42 47 51 54 52 48 46 48 58 55
55 55 55 55 55 56 56 56 55 55 55 55 54 54 54 54 54 54 46 42 47 51 39 52 52 52 57 59 51 58 65 54 54 48 52 48 43 52 56 54 52 51 47 47 53 58 57
55 55 55 55 55 55 55 55 54 54 54 54 54 54 54 53 53 46 43 47 56 54 40 45 52 51 53 56 50 52 59 54 51 47 50 45 50 57 54 51 50 49 47 47 48 55 58
54 53 54 54 54 54 54 53 53 53 53 53 53 53 53 53 45 43 41 53 55 53 29 38 46 51 57 57 49 60 63 56 50 48 48 48 56 54 52 50 51 44 54 53 52 48 41
53 53 53 53 53 53 52 52 53 53 52 52 52 52 52 52 41 39 47 51 53 49 16 46 50 61 58 52 55 57 62 56 48 49 49 46 49 50 49 52 55 48 55 53 52 47 42
53 53 53 53 53 53 52 52 52 52 52 52 52 52 52 46 40 44 48 48 46 29 18 39 55 52 49 52 54 57 56 58 57 48 50 49 56 53 53 57 57 59 52 52 51 45 36
53 53 52 52 52 52 52 52 52 52 52 52 51 51 49 49 37 45 45 41 26 20 43 41 44 48 49 48 50 51 49 46 42 36 38 45 48 54 56 49 53 51 44 34 32 30 32
53 52 52 52 52 52 52 52 52 51 51 51 51 50 47 47 44 44 41 32 20 32 33 45 44 45 43 49 48 48 46 41 47 44 38 35 33 48 54 50 46 47 45 32 29 27 33
53 52 52 52 52 52 52 52 51 51 51 51 50 40 38 42 45 43 36 23 24 34 40 37 41 41 38 39 41 45 42 43 47 50 39 37 37 52 54 56 54 48 43 50 39 39 32
52 52 52 52 51 51 51 51 51 51 51 51 42 39 37 44 44 39 32 27 32 41 41 41 32 40 33 35 39 41 37 43 40 45 47 46 37 51 53 54 54 51 54 41 40 31 28
52 52 51 51 51 51 51 51 51 51 51 51 35 32 40 44 43 34 25 27 35 43 44 38 34 34 38 37 39 38 35 43 44 42 46 44 42 42 49 43 43 45 46 45 45 39 33
51 51 51 51 51 51 51 51 51 51 50 44 37 28 40 44 32 31 30 32 41 40 43 40 41 39 38 39 38 37 34 36 45 43 36 44 40 35 45 49 51 48 47 48 36 35 38
51 51 51 51 51 51 51 50 50 51 49 36 33 30 39 39 22 28 33 36 39 37 39 39 39 41 43 39 34 39 38 46 48 42 35 41 35 31 40 45 46 44 47 50 46 43 36
50 50 50 50 50 50 50 50 50 50 50 40 33 26 30 37 35 30 30 31 33 41 38 42 41 43 38 35 41 36 40 45 46 46 44 44 37 34 30 36 41 38 43 46 43 34 37
50 50 50 49 50 50 50 50 50 50 50 39 34 28 30 19 26 31 33 33 31 32 39 40 37 38 36 31 33 33 39 41 46 47 47 41 35 38 40 43 45 41 43 42 38 38 34
50 50 49 48 49 50 50 50 50 50 49 35 31 31 31 29 33 31 31 32 31 32 35 33 34 38 37 32 34 31 36 36 37 44 41 43 35 37 33 42 43 41 44 44 44 41 42
50 50 49 48 48 50 50 50 50 50 46 36 38 37 34 30 28 24 28 33 34 35 37 41 39 35 33 36 38 39 40 40 39 40 37 37 35 32 29 38 39 31 39 44 46 47 45
49 49 48 48 49 49 49 49 49 49 46 36 35 37 32 23 28 29 33 35 35 36 33 39 40 36 43 45 44 43 41 41 41 42 43 36 34 30 26 32 23 41 51 49 45 46 47
49 48 48 48 49 49 49 49 48 49 49 37 36 36 32 21 29 31 34 34 35 37 35 37 41 44 42 40 31 31 30 32 36 40 39 40 33 25 23 24 34 42 46 44 43 41 48
48 48 49 48 48 48 48 48 48 48 49 38 36 38 37 30 26 36 31 34 29 28 31 36 43 43 41 32 26 25 21 30 30 34 42 39 36 28 25 23 20 39 46 50 49 34 49
48 48 48 48 48 47 48 48 48 48 48 39 36 39 36 30 32 34 29 30 37 34 29 33 36 35 41 28 26 23 25 36 26 28 28 28 26 26 23 22 31 44 50 51 34 35 49
48 48 47 48 47 48 48 48 48 48 48 42 36 39 37 31 33 38 39 33 34 33 29 33 31 33 30 28 28 27 24 33 31 34 32 29 24 21 25 22 23 49 49 40 44 46 48
47 47 47 47 46 46 47 48 48 48 48 46 38 44 41 35 32 40 41 42 41 40 34 35 33 32 35 30 31 31 28 31 31 27 34 28 33 30 32 32 45 48 47 51 52 49 46

GFSGBSN_sfc_temp_105.txt.gz
Temp
58 58 58 58 58 58 58 58 57 57 57 57 57 57 57 57 57 57 56 56 56 56 57 57 57 57 52 47 52 67 69 68 64 65 63 62 58 56 52 53 55 53 56 61 62 62 61
58 57 58 58 57 57 57 57 57 57 56 56 56 56 56 56 56 56 56 56 55 56 56 56 57 57 48 41 66 67 65 65 66 63 62 63 61 62 56 56 55 58 59 60 61 61 61
57 57 57 57 57 57 57 57 56 57 56 56 56 56 55 55 55 55 56 55 55 55 56 56 56 54 46 47 62 63 62 61 63 65 61 64 66 60 58 55 61 59 53 56 56 58 57
57 57 57 57 57 57 56 57 56 56 56 56 56 55 55 55 55 55 55 54 54 55 56 56 56 52 41 60 57 58 57 60 62 63 64 66 66 60 57 60 58 54 51 44 55 59 61
56 57 57 57 56 56 56 56 56 56 56 55 55 55 55 54 54 54 54 54 54 56 57 56 48 46 39 61 57 62 61 59 63 63 63 72 63 56 55 48 44 46 41 44 50 59 57
56 56 56 56 56 56 56 56 56 55 55 55 55 55 55 54 54 54 53 54 54 55 56 56 55 42 49 54 61 64 62 64 60 59 58 57 53 47 44 43 37 41 41 46 46 53 55
55 55 55 55 55 55 56 56 55 55 55 55 55 55 54 54 54 53 50 44 43 43 46 42 45 45 50 58 63 59 63 61 58 54 46 51 42 41 46 47 51 50 45 43 46 56 53
55 55 55 55 55 55 55 55 54 54 54 54 54 54 54 53 53 53 45 41 46 47 35 48 49 49 54 55 47 54 61 52 51 45 48 45 41 48 50 49 48 46 45 44 48 54 53
54 54 54 54 54 54 54 54 53 53 53 53 53 53 53 52 52 46 39 43 51 52 37 43 50 49 50 53 45 49 56 52 48 44 45 43 47 54 50 47 46 45 43 43 45 52 51
53 53 53 54 54 54 53 53 53 53 53 53 53 52 52 52 45 40 40 48 51 52 29 36 42 48 52 52 44 55 59 54 47 45 46 45 53 51 47 46 47 41 49 49 47 44 37
53 53 53 53 53 52 53 52 52 52 52 53 52 52 52 52 42 37 45 48 51 47 15 43 46 56 54 48 51 52 56 53 47 45 46 44 46 46 45 47 50 45 52 48 47 42 37
53 53 53 52 52 52 52 52 52 52 52 52 52 52 51 45 39 42 45 45 42 27 18 36 47 46 46 48 50 53 51 54 52 45 46 48 51 50 48 53 54 54 47 46 43 40 31
52 53 53 52 52 52 52 52 52 52 51 52 51 51 49 47 37 42 43 37 23 18 39 35 38 42 43 41 45 48 45 43 38 33 34 43 45 48 52 45 49 48 41 30 28 28 30
52 52 52 52 52 52 52 52 51 51 51 51 51 50 45 46 41 42 39 31 14 30 31 40 40 39 37 40 39 39 42 39 44 42 35 32 32 45 50 48 42 43 42 31 27 27 31
52 52 52 52 52 51 51 51 51 51 51 51 50 39 37 39 42 41 34 13 23 30 31 31 38 34 34 39 37 36 37 34 39 41 36 33 35 48 50 54 52 45 37 48 38 35 31
52 52 52 52 52 51 51 51 51 51 51 51 42 35 34 42 42 38 30 27 29 37 37 38 29 31 26 32 32 34 35 38 40 42 42 40 33 47 50 51 50 49 51 38 37 30 29
51 52 52 51 51 51 51 51 51 51 51 50 35 30 38 41 42 35 20 27 32 41 41 35 32 31 30 32 32 31 32 36 41 42 43 38 36 39 46 43 41 41 41 42 44 36 33
51 51 51 51 51 51 51 51 51 50 50 42 35 19 38 41 27 30 27 33 38 37 42 38 37 37 31 36 33 31 32 36 43 43 36 37 34 30 40 46 47 43 44 45 34 33 34
50 50 51 50 51 50 50 50 50 50 49 35 32 32 38 38 23 22 33 32 38 36 37 37 36 39 37 36 32 37 38 47 46 41 37 38 32 27 33 39 44 40 43 45 43 40 35
50 50 50 50 50 50 50 50 50 50 49 37 32 25 27 37 35 28 28 30 31 40 37 38 38 40 36 35 40 35 38 45 46 42 43 42 34 29 25 30 41 38 41 42 41 33 33
50 50 50 50 50 50 50 50 50 50 49 38 32 29 30 17 26 29 32 31 30 29 37 38 35 36 33 30 32 32 37 39 44 45 41 37 29 32 36 41 41 39 39 41 38 36 33
50 50 50 50 50 49 49 50 50 50 48 35 29 27 34 28 30 29 30 28 30 32 33 33 31 35 34 30 32 29 33 33 34 39 38 41 30 32 31 39 41 38 40 43 43 41 40
50 50 50 49 49 49 49 50 50 50 46 35 36 39 32 29 28 23 27 31 31 34 37 39 37 33 32 35 38 39 38 38 37 34 35 36 33 30 27 36 36 32 38 42 42 44 43
50 49 50 49 49 49 49 49 49 49 46 35 34 35 30 24 28 29 31 32 32 33 31 37 37 33 40 44 41 40 37 37 36 37 39 35 34 32 28 32 22 39 48 47 43 44 47
49 49 49 49 48 48 49 49 49 48 48 36 35 36 32 21 30 30 31 31 33 34 33 35 38 41 40 37 30 30 29 31 34 37 36 38 33 28 26 27 33 39 43 41 40 40 46
48 49 49 48 48 48 48 48 48 49 48 38 35 37 36 28 27 34 30 31 28 27 29 33 41 41 39 31 24 20 20 28 28 32 39 37 35 30 26 22 17 35 45 48 47 33 48
48 48 48 49 48 48 48 48 48 48 48 39 35 38 35 29 31 32 28 28 33 30 27 30 33 33 36 26 23 22 23 33 21 25 28 26 26 25 23 20 29 41 47 48 33 36 47
48 48 48 48 48 48 48 48 48 48 48 40 35 39 36 31 31 36 37 31 31 32 25 30 29 30 29 25 28 27 23 29 27 31 30 27 23 18 23 21 21 46 46 38 42 47 49
47 47 48 48 47 47 47 47 47 48 48 45 36 39 40 35 31 38 39 41 39 38 32 32 30 28 34 29 30 28 24 30 30 25 33 27 31 29 30 29 41 43 43 47 48 46 45

GFSGBSN_sfc_temp_108.txt.gz
Temp
57 57 57 57 57 57 58 57 57 56 56 56 56 56 56 56 56 56 56 55 56 56 56 56 57 57 49 45 49 64 66 65 63 63 61 60 56 54 49 51 52 50 52 56 58 59 57
57 57 57 57 57 57 57 57 56 56 56 56 56 56 56 56 56 56 55 55 55 55 55 56 56 56 46 39 62 62 60 62 63 60 59 60 58 59 54 52 52 54 54 58 58 57 57
57 56 57 56 56 56 56 56 56 56 56 56 56 55 55 55 55 55 55 54 54 54 55 56 56 53 44 46 57 58 58 58 59 62 57 61 62 56 56 52 58 56 50 53 53 54 55
56 56 57 56 56 56 56 56 56 56 56 55 55 55 54 54 54 54 54 54 54 55 56 57 56 49 39 57 56 56 55 56 60 60 60 63 62 57 54 57 55 50 49 42 51 55 58
56 56 56 56 55 55 55 56 55 55 55 55 55 55 54 54 54 53 53 53 54 56 56 56 46 44 39 60 55 61 58 56 60 58 58 68 59 53 51 45 41 43 38 40 47 56 56
56 56 55 55 55 55 55 55 55 54 54 54 54 54 54 54 53 53 53 54 55 55 55 55 53 41 49 50 57 60 60 60 58 57 55 53 50 45 41 41 34 37 38 42 42 49 53
56 55 55 55 55 55 55 55 54 53 54 54 54 54 54 53 53 53 50 45 41 39 44 38 42 42 45 54 60 55 59 57 56 51 44 49 41 40 45 44 48 46 42 40 42 51 48
54 54 54 54 54 54 55 54 53 53 53 53 53 53 53 53 53 52 44 40 42 43 34 45 46 46 51 53 43 51 58 48 49 42 45 42 39 46 48 46 45 44 43 43 44 51 51
54 53 53 53 54 54 54 53 53 53 53 53 53 52 52 52 52 44 38 42 48 48 33 41 47 46 48 50 42 45 53 48 45 43 43 41 44 53 48 44 43 43 42 42 42 46 49
52 53 53 53 53 53 53 53 52 52 52 52 52 52 51 51 43 39 38 45 47 45 27 33 40 46 51 50 42 51 55 50 44 43 42 42 51 48 43 44 45 39 46 46 43 40 33
53 52 52 52 52 52 52 52 52 52 52 52 52 52 51 50 38 36 42 44 47 41 13 40 43 53 52 45 47 49 53 48 42 40 43 42 42 43 43 45 47 43 49 45 43 38 34
52 52 52 52 52 51 52 52 52 52 52 51 51 51 51 46 39 40 42 42 40 24 15 34 44 40 40 43 46 49 49 52 48 42 42 45 47 47 47 50 50 50 45 44 40 37 28
52 52 53 52 52 51 51 51 51 51 51 51 51 51 47 46 35 40 40 36 21 16 37 31 33 36 36 37 41 40 38 39 35 30 30 40 41 45 51 44 47 46 39 29 26 26 28
52 52 52 52 52 51 51 51 51 51 51 51 51 50 44 44 40 41 37 24 8 28 29 37 35 34 32 36 36 37 36 34 43 40 32 28 28 42 47 45 40 41 42 31 27 25 30
52 52 52 52 51 51 51 51 51 51 51 51 50 37 36 38 40 39 28 9 20 28 33 31 33 30 31 36 33 33 34 33 38 40 32 30 32 44 47 48 49 40 37 45 35 34 30
52 52 52 51 52 51 51 51 51 51 51 50 36 33 33 40 40 36 26 26 27 36 37 35 25 32 26 29 30 30 30 35 34 40 40 37 31 44 47 48 47 44 47 35 34 28 27
51 51 52 52 51 51 50 50 50 50 50 48 33 28 38 40 39 30 18 25 31 38 39 31 30 29 30 30 30 29 29 34 40 37 39 35 34 37 42 40 38 38 37 39 39 33 29
51 51 51 51 51 50 50 50 50 50 49 42 31 18 40 39 24 29 26 31 38 35 40 36 35 34 32 31 29 29 28 33 44 40 34 36 32 30 36 42 43 41 39 42 32 32 32
51 50 50 50 50 50 50 50 50 50 49 34 28 29 37 38 22 20 29 33 35 34 35 35 33 37 38 33 27 35 33 43 44 41 33 35 31 27 29 36 40 37 40 41 42 36 32
51 50 50 50 50 50 50 50 50 50 48 35 29 19 27 36 35 29 20 26 29 38 35 37 35 37 33 32 38 33 35 42 43 42 44 39 33 29 24 28 36 31 37 39 38 32 35
48 50 50 50 50 50 50 50 50 50 49 37 29 21 31 21 23 28 28 30 28 27 36 36 33 33 30 27 31 31 36 38 42 44 42 38 29 32 35 38 39 38 34 37 35 35 34
50 50 50 50 50 50 50 49 49 49 48 34 28 24 33 30 30 28 27 28 29 30 32 31 31 32 33 29 31 29 34 34 33 39 38 39 27 32 30 38 38 34 36 34 39 38 36
50 50 50 50 50 49 49 49 49 49 45 36 32 33 30 28 27 23 26 29 28 31 35 37 35 31 30 33 35 37 38 38 38 35 33 34 30 27 27 33 33 27 34 38 40 43 39
50 50 50 50 49 49 49 49 48 49 45 34 32 33 29 22 27 29 30 30 29 31 29 35 36 32 37 42 39 38 35 36 35 35 37 31 31 29 28 30 22 38 44 43 41 43 43
49 49 50 49 50 49 49 48 48 49 47 35 33 33 31 21 29 30 30 30 31 32 30 33 36 39 39 34 29 29 29 31 33 34 34 35 32 26 24 27 32 35 43 41 38 39 44
49 49 49 49 49 48 48 48 48 49 48 39 35 36 35 25 25 32 29 31 27 26 29 32 38 39 36 29 23 20 19 27 28 31 36 34 33 28 27 24 20 35 43 46 44 31 45
48 48 48 49 49 48 48 47 48 48 48 39 37 38 36 27 30 32 27 28 31 29 26 29 31 32 34 24 22 21 23 31 21 23 27 26 25 25 24 23 31 39 44 46 31 33 45
48 48 48 48 48 48 48 48 48 48 48 39 36 39 36 30 30 34 35 30 30 29 24 29 27 29 29 22 24 26 24 27 26 27 27 27 24 19 22 19 21 43 44 36 40 43 46
47 48 48 48 47 47 48 48 47 48 48 43 32 38 41 34 30 36 38 40 38 38 30 30 28 26 31 26 27 28 25 29 28 23 33 23 31 28 29 28 39 41 41 45 46 45 43

GFSGBSN_sfc_temp_111.txt.gz
Temp
57 57 57 57 57 57 57 57 56 56 56 56 56 56 56 56 56 56 56 55 55 56 56 56 57 57 52 50 53 64 64 64 67 65 64 63 61 60 55 57 58 55 58 61 64 64 64
57 57 57 57 57 57 57 56 56 56 56 56 56 55 55 55 55 55 55 55 55 55 55 56 57 56 48 46 65 61 60 62 65 64 64 64 63 64 59 58 58 61 60 62 64 64 63
57 57 57 56 56 56 56 56 56 56 55 55 55 55 55 55 55 54 54 54 54 55 55 57 57 54 45 52 61 61 59 61 63 65 61 64 65 61 61 57 62 60 55 59 60 62 62
56 56 57 56 56 55 55 56 56 55 55 55 55 55 54 54 54 54 54 54 54 55 56 56 56 50 45 59 61 59 61 61 63 61 61 65 65 62 59 62 59 55 55 49 58 60 62
56 56 56 56 55 55 55 55 55 55 55 54 55 54 54 53 53 53 53 53 54 56 56 55 50 48 45 62 58 63 63 59 63 61 60 67 63 58 58 52 49 51 46 47 52 60 61
56 56 55 55 55 55 55 55 54 54 54 54 54 54 53 53 53 53 53 53 55 55 56 55 54 45 53 52 58 61 65 63 59 59 57 57 56 52 51 50 40 44 45 47 49 58 58
56 55 55 55 54 54 55 55 53 53 54 54 53 53 53 53 53 53 50 47 43 43 45 39 43 41 46 54 59 56 61 58 59 56 50 53 47 44 50 52 53 51 48 47 52 58 56
55 55 54 54 54 54 54 54 53 53 53 53 53 53 52 52 52 52 48 41 41 42 34 45 45 45 50 52 42 50 58 48 50 46 51 47 43 52 53 51 50 49 47 47 52 56 55
54 54 54 54 54 53 53 53 52 52 52 52 52 52 52 52 51 45 42 42 48 46 33 39 47 46 50 52 44 47 54 50 45 44 47 45 50 54 50 47 46 47 45 46 46 53 55
53 53 53 53 53 52 52 52 52 52 52 52 52 52 51 51 45 41 42 46 46 46 31 37 44 49 52 53 43 56 56 52 47 42 46 46 54 51 47 46 49 43 50 49 48 46 41
53 52 52 52 52 52 52 52 52 52 52 52 52 52 51 49 41 39 45 45 47 44 22 40 45 57 52 45 45 50 59 52 43 43 45 43 46 46 46 47 50 46 52 49 48 45 45
52 52 52 52 52 51 51 52 51 51 51 52 51 51 51 45 42 43 44 44 44 30 19 34 43 41 40 43 45 50 49 53 53 44 45 44 51 51 51 53 53 53 50 48 46 45 35
52 52 52 52 52 51 51 51 51 51 51 51 51 50 47 46 39 43 43 39 29 21 37 33 34 38 37 37 39 39 37 39 37 34 36 42 43 50 53 48 51 50 46 36 33 32 34
52 52 52 52 52 52 51 51 51 50 51 51 50 48 44 44 43 43 39 28 17 29 30 39 36 36 33 38 38 38 35 33 42 40 37 33 33 44 51 50 46 45 45 36 28 30 37
52 52 51 52 52 51 51 50 50 50 50 50 48 39 39 41 42 41 33 19 25 28 34 32 34 30 31 37 35 35 33 31 33 33 32 34 35 47 49 52 52 44 40 51 40 40 37
52 52 51 51 51 51 51 50 50 50 50 48 38 36 37 42 43 38 28 28 29 36 37 36 26 31 27 31 30 31 30 34 33 37 35 35 31 46 49 52 53 49 53 38 41 31 30
52 52 52 52 51 51 50 50 50 50 50 47 35 32 41 42 42 32 23 28 32 39 39 33 30 29 31 29 32 30 30 35 41 40 39 34 34 41 46 44 43 45 43 46 46 41 35
51 51 51 51 51 51 50 50 50 50 48 42 33 24 42 43 28 31 27 30 38 36 40 37 36 33 30 32 30 30 29 34 44 42 33 36 33 31 41 43 45 49 46 47 40 36 41
51 51 51 51 50 50 50 50 50 50 48 36 30 32 39 41 22 25 31 32 35 34 36 34 34 35 37 32 29 34 36 44 45 42 35 34 32 28 35 40 43 37 43 45 47 43 40
50 51 51 50 50 50 50 50 50 50 48 37 31 22 31 36 35 30 25 27 30 38 36 37 35 36 33 32 37 33 35 42 43 43 45 37 32 29 28 32 37 34 37 40 41 38 41
50 50 50 50 50 50 50 50 50 50 48 37 28 25 32 22 27 30 30 31 29 29 36 37 34 34 31 28 31 32 36 36 41 44 42 39 28 31 34 39 40 38 36 36 36 40 39
50 49 48 50 50 50 50 50 49 50 48 35 27 28 33 32 32 29 29 29 29 30 31 31 31 33 33 29 31 28 32 33 33 40 37 40 32 33 30 37 39 36 38 38 40 41 41
49 49 49 50 50 50 50 50 49 49 45 37 34 36 32 29 29 27 28 31 30 32 35 36 34 32 32 35 37 37 38 37 36 33 33 34 32 32 29 36 35 32 36 38 40 42 43
50 50 50 50 50 50 50 49 49 49 44 36 35 34 28 23 29 30 31 32 31 32 29 34 36 32 39 43 40 41 38 36 36 36 37 33 32 33 29 33 23 40 46 46 40 41 47
49 49 50 50 50 49 49 49 48 48 46 37 35 34 31 24 31 31 31 32 33 34 32 33 37 41 41 37 32 31 33 35 37 37 35 37 34 29 27 28 35 39 43 42 39 40 46
49 49 50 50 49 49 49 48 48 48 48 38 36 37 36 27 28 34 31 32 29 29 31 34 40 41 39 33 28 24 23 29 30 34 38 36 36 31 30 25 23 37 45 49 47 37 47
48 48 48 49 48 48 48 48 48 48 48 39 39 40 37 29 34 34 30 30 34 32 29 32 34 35 37 28 27 26 26 33 25 26 29 30 30 27 28 26 33 43 46 48 35 37 47
48 48 48 48 48 48 48 48 48 48 48 41 40 39 37 31 33 35 36 33 34 33 28 32 31 33 31 27 26 27 26 30 28 31 30 28 27 26 29 25 23 45 46 38 42 46 49
47 48 48 48 48 48 48 48 48 48 48 43 35 39 43 34 33 37 39 41 41 40 35 34 32 30 34 29 31 30 27 30 30 24 33 27 31 29 32 33 40 44 42 46 46 46 46

GFSGBSN_sfc_temp_114.txt.gz
Temp
58 58 58 58 57 57 57 57 56 56 56 56 56 56 56 56 56 56 55 55 56 56 56 56 57 57 62 64 67 73 66 71 76 73 71 71 69 68 64 68 70 65 68 73 73 73 74
58 58 57 57 57 57 57 56 56 56 56 56 56 55 55 55 55 55 55 55 55 55 56 56 57 58 60 59 72 74 74 74 76 73 72 72 71 74 68 66 66 71 70 71 73 72 74
58 57 57 57 56 56 56 56 56 56 56 56 56 55 55 55 55 55 55 55 55 55 56 57 58 61 57 62 71 73 71 70 71 70 68 74 73 68 69 64 71 68 62 67 70 71 70
57 57 57 57 56 56 56 56 55 55 55 55 55 55 54 54 54 54 54 54 54 56 56 57 57 60 59 68 72 71 73 72 75 73 67 69 73 67 65 69 66 62 64 57 69 70 71
57 57 57 56 55 55 55 55 54 54 54 54 54 54 54 53 53 53 54 54 55 57 56 56 59 58 59 68 65 69 70 64 67 70 69 70 66 63 65 58 57 61 53 58 62 69 69
56 56 56 56 55 55 55 55 54 53 54 54 54 54 53 53 53 53 53 54 56 58 62 63 63 58 64 55 63 64 70 67 63 66 64 61 62 59 60 58 47 53 54 56 56 66 68
56 56 56 55 55 55 55 55 53 53 54 54 54 53 53 53 53 53 59 65 61 60 57 50 50 47 55 61 66 63 67 63 63 59 54 61 53 52 59 61 59 58 57 57 62 67 63
56 55 55 55 55 55 55 54 53 53 53 53 53 53 53 52 53 53 61 53 47 48 43 53 54 53 58 61 55 61 69 57 55 50 56 55 49 60 64 62 59 56 54 55 61 65 61
55 55 55 55 55 54 54 53 52 52 52 52 52 52 52 52 51 56 54 50 56 54 45 50 55 53 56 62 56 56 63 59 53 49 51 48 56 62 59 56 53 54 52 54 55 61 63
54 54 54 54 54 53 52 52 52 52 52 52 52 52 51 52 53 55 53 56 57 54 46 45 51 54 59 59 52 63 66 58 53 48 50 51 58 54 55 53 57 49 60 57 54 53 48
53 53 53 53 52 52 52 52 52 52 52 52 52 51 50 50 54 56 53 57 57 52 34 46 50 63 60 53 54 54 64 57 47 48 51 47 52 51 50 53 58 53 60 56 54 52 52
53 53 52 52 52 52 52 52 51 51 51 51 51 51 51 55 57 54 56 56 54 42 32 41 50 48 48 51 52 56 56 60 58 49 51 50 58 56 54 58 59 60 55 55 55 53 42
53 52 52 52 52 52 52 51 51 51 51 51 51 50 53 57 52 55 55 54 42 37 44 39 40 45 44 45 47 49 47 45 37 31 37 46 50 56 57 50 58 56 50 40 38 39 39
52 52 52 52 52 52 52 51 51 50 51 51 50 49 48 54 55 53 53 45 29 36 37 45 42 43 39 45 45 45 45 36 45 37 33 34 35 52 57 52 50 52 50 41 33 37 43
52 52 52 52 52 51 51 51 50 50 50 50 48 53 54 51 54 54 50 35 35 36 37 37 41 38 40 43 42 42 42 35 38 36 28 29 36 55 57 58 57 51 47 56 47 50 44
52 52 52 52 52 51 51 51 50 50 50 48 54 51 49 52 52 51 44 35 38 41 42 40 32 37 34 38 38 38 36 41 39 44 40 33 28 49 54 58 58 56 58 44 47 35 34
52 52 52 51 52 51 51 50 50 50 50 47 51 46 49 53 52 47 37 38 38 44 43 38 36 34 38 35 38 35 34 40 45 44 46 34 32 42 50 48 48 50 49 50 52 48 40
52 52 52 51 51 51 51 50 50 50 48 49 47 36 50 51 41 43 40 38 39 41 45 41 41 39 36 37 35 36 33 40 49 47 37 36 32 33 41 50 55 57 51 52 43 42 47
51 51 51 51 51 51 50 50 50 50 49 49 44 43 50 49 32 37 39 38 40 40 41 40 38 41 42 38 32 40 41 48 49 44 38 40 33 32 37 44 43 40 53 54 54 53 46
50 51 51 51 51 51 50 50 50 50 48 51 42 32 41 40 43 34 30 34 35 43 41 42 41 42 40 38 43 37 40 45 48 45 45 44 33 29 25 30 41 33 35 47 50 44 46
50 50 51 51 51 50 50 50 50 50 49 50 41 36 41 31 33 38 37 36 34 32 41 43 40 40 36 32 37 38 41 42 46 46 45 42 31 34 36 40 45 41 39 38 41 48 44
50 50 50 50 50 50 50 50 50 50 48 46 34 38 41 39 38 36 35 36 35 36 36 37 37 40 40 36 37 34 39 39 37 42 40 43 32 38 34 38 44 41 42 44 44 44 50
50 50 49 49 50 50 50 50 50 49 49 45 45 45 43 36 37 35 37 37 36 37 40 42 40 38 37 41 44 44 45 44 43 38 35 36 36 34 32 41 39 36 41 45 46 49 49
50 50 49 48 49 50 50 49 49 49 49 48 47 45 37 33 38 37 36 38 37 38 35 41 42 39 45 50 48 50 50 48 46 44 43 36 36 36 32 38 23 41 50 50 47 49 52
50 49 49 49 50 50 49 49 49 49 48 49 48 45 40 33 39 38 37 38 40 40 39 40 43 47 49 44 39 37 40 41 43 45 45 42 38 34 29 32 39 40 45 43 42 45 50
49 49 49 49 49 49 49 49 49 49 48 49 49 50 45 36 37 41 38 39 36 38 38 40 47 49 45 41 34 29 28 34 35 39 45 42 41 35 34 26 26 39 49 53 50 35 50
49 49 49 49 49 49 49 48 49 49 48 49 49 50 44 35 43 41 38 38 42 39 37 40 40 41 44 36 31 31 28 38 30 30 33 35 36 32 33 30 37 45 49 55 35 36 48
48 49 49 49 49 49 49 48 49 48 48 47 47 50 44 39 43 42 43 40 41 41 35 40 38 38 39 32 33 34 32 36 32 34 32 31 31 32 34 29 27 49 49 39 45 50 46
45 47 47 48 49 48 48 48 48 48 48 48 43 49 47 37 43 45 47 49 48 47 42 41 38 35 41 36 39 38 33 35 34 27 36 30 31 31 36 39 48 50 44 46 49 47 47

GFSGBSN_sfc_temp_117.txt.gz
Temp
60 59 59 58 58 58 58 57 57 57 56 56 56 56 56 56 56 56 56 56 56 56 56 57 57 57 64 70 72 80 69 74 82 81 77 75 73 73 67 72 74 71 74 77 79 79 78
59 58 58 58 58 58 57 57 56 56 56 56 56 56 55 55 55 55 55 55 55 55 56 57 58 57 66 64 79 82 80 80 81 79 77 77 74 76 71 71 70 74 74 75 77 76 78
58 58 58 57 57 57 57 56 56 56 55 55 55 55 55 55 55 55 55 55 55 55 57 58 59 64 65 65 78 82 80 78 79 78 72 76 77 72 73 68 76 73 66 70 72 74 73
58 58 58 57 57 56 56 56 55 55 55 55 55 55 54 54 54 54 54 54 54 56 57 58 58 69 65 75 81 77 77 75 79 80 76 75 73 71 67 71 69 64 66 59 70 73 74
58 58 58 57 56 56 55 55 54 54 54 54 54 54 54 53 53 53 54 54 55 58 57 58 62 67 63 71 70 75 78 70 72 75 76 75 72 64 66 59 57 62 55 60 64 76 74
57 57 57 56 56 55 55 55 53 53 54 54 54 54 54 53 53 53 53 54 57 58 61 70 71 63 66 60 69 72 78 75 69 68 67 68 64 61 63 58 48 52 55 60 61 69 72
57 57 57 56 55 55 55 55 53 53 53 54 54 53 53 53 53 53 59 69 66 62 67 57 56 56 61 70 73 72 75 72 70 68 58 64 58 54 61 63 62 58 56 55 61 71 68
56 56 56 56 55 55 55 54 53 53 54 53 53 53 53 53 53 53 66 61 55 56 55 61 60 60 63 69 61 68 74 62 60 55 61 57 52 62 65 64 63 61 55 55 62 67 65
55 56 56 55 55 55 55 54 53 53 53 53 53 53 53 52 53 59 61 57 63 61 54 57 60 60 61 66 59 61 67 62 57 53 55 52 57 63 59 59 57 59 56 57 56 63 66
54 54 55 55 55 55 54 53 53 52 52 52 52 52 52 51 52 63 60 62 65 61 50 50 55 60 64 65 58 68 68 61 56 51 53 52 59 56 55 54 58 51 63 60 57 54 49
54 54 54 54 54 53 53 53 53 52 52 52 52 52 52 51 60 63 59 63 64 58 38 52 55 68 66 58 59 61 70 63 52 52 52 48 51 51 52 55 60 54 63 60 59 55 53
53 53 53 53 53 52 52 52 52 52 52 51 52 51 52 59 62 61 64 62 59 45 35 47 55 53 54 58 58 61 61 65 61 52 54 52 59 56 54 57 59 60 57 59 58 55 42
52 53 53 53 52 52 52 52 52 51 51 51 51 51 55 62 58 62 62 59 46 41 51 45 45 51 51 50 52 54 52 52 45 37 39 47 51 57 59 52 57 56 50 41 38 40 40
52 52 52 52 52 52 52 51 51 51 51 51 51 50 53 62 63 60 60 51 34 43 44 50 48 50 46 50 49 50 50 46 50 44 38 36 34 47 48 46 49 51 50 42 32 36 42
52 52 52 52 52 52 52 51 51 51 51 51 50 59 61 59 60 60 55 38 44 43 44 42 47 43 44 49 48 48 46 43 46 45 29 32 35 48 53 55 53 51 47 56 47 51 44
52 52 52 52 52 51 51 51 51 51 51 50 58 58 58 58 59 57 49 40 45 47 47 46 37 42 39 43 43 43 41 46 46 49 49 37 27 46 50 52 55 55 59 45 48 35 35
52 52 52 51 51 51 51 51 51 51 50 50 55 52 55 59 57 53 41 45 45 49 48 44 42 41 43 41 42 41 38 45 51 49 49 42 33 38 42 42 46 52 49 52 51 48 39
51 52 52 51 51 51 51 51 51 51 50 46 55 42 56 58 47 51 47 45 41 47 49 46 46 44 42 42 40 41 38 45 53 51 41 39 33 32 36 47 51 53 53 53 43 42 48
51 51 51 51 51 51 51 51 51 50 50 57 50 52 56 53 36 43 45 44 46 46 46 45 44 46 47 43 37 43 45 53 53 49 42 41 35 27 38 40 44 43 53 54 53 54 46
51 51 51 51 51 51 51 51 51 50 50 51 51 37 48 49 52 43 38 41 41 48 46 47 46 48 45 42 46 42 44 51 52 51 46 46 36 30 25 30 37 31 40 52 51 44 47
51 51 51 51 51 51 51 51 51 50 50 50 47 41 49 34 38 44 44 43 39 39 46 48 45 45 42 37 40 41 46 47 50 49 48 45 32 37 40 44 43 42 40 45 45 46 44
51 50 50 51 51 51 51 51 50 50 50 50 38 46 47 49 46 43 39 41 40 43 42 42 42 45 46 39 41 39 44 43 41 48 44 46 35 40 37 44 44 41 41 42 47 49 52
51 50 50 50 50 50 50 50 50 50 49 50 53 54 50 43 43 41 42 42 41 44 45 47 45 43 41 44 49 49 49 48 47 44 40 39 38 37 33 43 38 33 41 44 45 47 51
51 51 50 50 50 50 50 50 50 50 49 54 54 54 44 38 44 42 42 42 42 44 41 46 47 42 48 55 52 52 52 52 53 51 50 40 37 39 33 38 24 40 53 49 48 51 51
50 50 50 50 50 49 50 50 49 49 49 51 55 51 46 37 45 43 42 42 44 45 42 44 48 51 53 48 40 39 42 45 47 50 50 49 40 34 32 33 38 41 48 47 45 46 52
50 50 50 50 49 48 49 50 49 49 50 51 52 54 49 39 42 47 43 44 41 43 44 45 51 54 50 43 38 30 30 36 36 41 50 48 45 37 36 30 26 41 50 56 54 38 48
49 50 50 49 48 49 49 49 49 49 49 50 50 53 48 37 47 46 42 43 48 45 42 45 45 45 49 38 33 33 32 39 31 32 35 37 38 34 36 33 40 48 51 54 34 33 46
48 49 49 48 48 49 49 49 49 49 49 50 48 53 48 41 48 48 49 44 46 45 40 45 42 43 41 35 35 36 35 39 36 38 35 33 31 31 36 33 29 47 47 34 39 46 42
48 48 49 48 48 49 49 49 49 49 49 49 44 52 54 41 43 50 52 54 52 51 45 46 42 39 44 39 39 39 34 37 36 30 39 30 34 31 34 35 41 41 38 44 44 41 40